[[{"header":{"parameterUnit":"m.s-1","parameterCategory":1,"la1":30.6,"la2":28.766,"lo1":-90.7593,"lo2":-88.6598,"dy":0.0162,"dx":0.0183,"nx":116,"ny":114,"refTime":"2023-03-12T06:00:00:Z","depth":0,"parameterNumber":2,"parameterNumberName":"U-component_of_WINDS"},"data":[0.0,0.0,0.0,0.0,0.0,0.0,0.0,0.0,0.0,0.0,0.0,0.0,0.0,0.0,0.0,0.0,0.0,0.0,0.0,0.0,0.0,0.0,0.0,0.0,0.0,0.0,0.0,0.0,0.0,0.0,0.0,0.0,0.0,0.0,0.0,0.0,0.0,0.0,0.0,0.0,0.0,0.0,0.0,0.0,0.0,0.0,0.0,0.0,0.0,0.0,0.0,0.0,0.0,0.0,0.0,0.0,0.0,0.0,0.0,0.0,0.0,0.0,0.0,0.0,0.0,0.0,0.0,0.0,0.0,0.0,0.0,0.0,0.0,0.0,0.0,0.0,0.0,0.0,0.0,0.0,0.0,0.0,0.0,0.0,0.0,0.0,0.0,0.0,0.0,0.0,0.0,0.0,0.0,0.0,0.0,0.0,0.0,0.0,0.0,0.0,0.0,0.0,0.0,0.0,0.0,0.0,0.0,0.0,0.0,0.0,0.0,0.0,0.0,0.0,0.0,0.0,0.0,0.0,0.0,0.0,0.0,0.0,0.0,0.0,0.0,0.0,0.0,0.0,0.0,0.0,0.0,0.0,0.0,0.0,0.0,0.0,0.0,0.0,0.0,0.0,0.0,0.0,0.0,0.0,0.0,0.0,0.0,0.0,0.0,0.0,0.0,0.0,0.0,0.0,0.0,0.0,0.0,0.0,0.0,0.0,0.0,0.0,0.0,0.0,0.0,0.0,0.0,0.0,0.0,0.0,0.0,0.0,0.0,0.0,0.0,0.0,0.0,0.0,0.0,0.0,0.0,0.0,0.0,0.0,0.0,0.0,0.0,0.0,0.0,0.0,0.0,0.0,0.0,0.0,0.0,0.0,0.0,0.0,0.0,0.0,0.0,0.0,0.0,0.0,0.0,0.0,0.0,0.0,0.0,0.0,0.0,0.0,0.0,0.0,0.0,0.0,0.0,0.0,0.0,0.0,0.0,0.0,0.0,0.0,0.0,0.0,0.0,0.0,0.0,0.0,0.0,0.0,0.0,0.0,0.0,0.0,0.0,0.0,0.0,0.0,0.0,0.0,0.0,0.0,0.0,0.0,0.0,0.0,0.0,0.0,0.0,0.0,0.0,0.0,0.0,0.0,0.0,0.0,0.0,0.0,0.0,0.0,0.0,0.0,0.0,0.0,0.0,0.0,0.0,0.0,0.0,0.0,0.0,0.0,0.0,0.0,0.0,0.0,0.0,0.0,0.0,0.0,0.0,0.0,0.0,0.0,0.0,0.0,0.0,0.0,0.0,0.0,0.0,0.0,0.0,0.0,0.0,0.0,0.0,0.0,0.0,0.0,0.0,0.0,0.0,0.0,0.0,0.0,0.0,0.0,0.0,0.0,0.0,0.0,0.0,0.0,0.0,0.0,0.0,0.0,0.0,0.0,0.0,0.0,0.0,0.0,0.0,0.0,0.0,0.0,0.0,0.0,0.0,0.0,0.0,0.0,0.0,0.0,0.0,0.0,0.0,0.0,0.0,0.0,0.0,0.0,0.0,0.0,0.0,0.0,0.0,0.0,0.0,0.0,0.0,0.0,0.0,0.0,0.0,0.0,0.0,0.0,0.0,0.0,0.0,0.0,0.0,0.0,0.0,0.0,0.0,0.0,0.0,0.0,0.0,0.0,0.0,0.0,0.0,0.0,0.0,0.0,0.0,0.0,0.0,0.0,0.0,0.0,0.0,0.0,0.0,0.0,0.0,0.0,0.0,0.0,0.0,0.0,0.0,0.0,0.0,0.0,0.0,0.0,0.0,0.0,0.0,0.0,0.0,0.0,0.0,0.0,0.0,0.0,0.0,0.0,0.0,0.0,0.0,0.0,0.0,0.0,0.0,0.0,0.0,0.0,0.0,0.0,0.0,0.0,0.0,0.0,0.0,0.0,0.0,0.0,0.0,0.0,0.0,0.0,0.0,0.0,0.0,0.0,0.0,0.0,0.0,0.0,0.0,0.0,0.0,0.0,0.0,0.0,0.0,0.0,0.0,0.0,0.0,0.0,0.0,0.0,0.0,0.0,0.0,0.0,0.0,0.0,0.0,0.0,0.0,0.0,0.0,0.0,0.0,0.0,0.0,0.0,0.0,0.0,0.0,0.0,0.0,0.0,0.0,0.0,0.0,0.0,0.0,0.0,0.0,0.0,0.0,0.0,0.0,0.0,0.0,0.0,0.0,0.0,0.0,0.0,0.0,0.0,0.0,0.0,0.0,0.0,0.0,0.0,0.0,0.0,0.0,0.0,0.0,0.0,0.0,0.0,0.0,0.0,0.0,0.0,0.0,0.0,0.0,0.0,0.0,0.0,0.0,0.0,0.0,0.0,0.0,0.0,0.0,0.0,0.0,0.0,0.0,0.0,0.0,0.0,0.0,0.0,0.0,0.0,0.0,0.0,0.0,0.0,0.0,0.0,0.0,0.0,0.0,0.0,0.0,0.0,0.0,0.0,0.0,0.0,0.0,0.0,0.0,0.0,0.0,0.0,0.0,0.0,0.0,0.0,0.0,0.0,0.0,0.0,0.0,0.0,0.0,0.0,0.0,0.0,0.0,0.0,0.0,0.0,0.0,0.0,0.0,0.0,0.0,0.0,0.0,0.0,0.0,0.0,0.0,0.0,0.0,0.0,0.0,0.0,0.0,0.0,0.0,0.0,0.0,0.0,0.0,0.0,0.0,0.0,0.0,0.0,0.0,0.0,0.0,0.0,0.0,0.0,0.0,0.0,0.0,0.0,0.0,0.0,0.0,0.0,0.0,0.0,0.0,0.0,0.0,0.0,0.0,0.0,0.0,0.0,0.0,0.0,0.0,0.0,0.0,0.0,0.0,0.0,0.0,0.0,0.0,0.0,0.0,0.0,0.0,0.0,0.0,0.0,0.0,0.0,0.0,0.0,0.0,0.0,0.0,0.0,0.0,0.0,0.0,0.0,0.0,0.0,0.0,0.0,0.0,0.0,0.0,0.0,0.0,0.0,0.0,0.0,0.0,0.0,0.0,0.0,0.0,0.0,0.0,0.0,0.0,0.0,0.0,0.0,0.0,0.0,0.0,0.0,0.0,0.0,0.0,0.0,0.0,0.0,0.0,0.0,0.0,0.0,0.0,0.0,0.0,0.0,0.0,0.0,0.0,0.0,0.0,0.0,0.0,0.0,0.0,0.0,0.0,0.0,0.0,0.0,0.0,0.0,0.0,0.0,0.0,0.0,0.0,0.0,0.0,0.0,0.0,0.0,0.0,0.0,0.0,0.0,0.0,0.0,0.0,0.0,0.0,0.0,0.0,0.0,0.0,0.0,0.0,0.0,0.0,0.0,0.0,0.0,0.0,0.0,0.0,0.0,0.0,0.0,0.0,0.0,0.0,0.0,0.0,0.0,0.0,0.0,0.0,0.0,0.0,0.0,0.0,0.0,0.0,0.0,0.0,0.0,0.0,0.0,0.0,0.0,0.0,0.0,0.0,0.0,0.0,0.0,0.0,0.0,0.0,0.0,0.0,0.0,0.0,0.0,0.0,0.0,0.0,0.0,0.0,0.0,0.0,0.0,0.0,0.0,0.0,0.0,0.0,0.0,0.0,0.0,0.0,0.0,0.0,0.0,0.0,0.0,0.0,0.0,0.0,0.0,0.0,0.0,0.0,0.0,0.0,0.0,0.0,0.0,0.0,0.0,0.0,0.0,0.0,0.0,0.0,0.0,0.0,0.0,0.0,0.0,0.0,0.0,0.0,0.0,0.0,0.0,0.0,0.0,0.0,0.0,0.0,0.0,0.0,0.0,0.0,0.0,0.0,0.0,0.0,0.0,0.0,0.0,0.0,0.0,0.0,0.0,0.0,0.0,0.0,0.0,0.0,0.0,0.0,0.0,0.0,0.0,0.0,0.0,0.0,0.0,0.0,0.0,0.0,0.0,0.0,0.0,0.0,0.0,0.0,0.0,0.0,0.0,0.0,0.0,0.0,0.0,0.0,0.0,0.0,0.0,0.0,0.0,0.0,0.0,0.0,0.0,0.0,0.0,0.0,0.0,0.0,0.0,0.0,0.0,0.0,0.0,0.0,0.0,0.0,0.0,0.0,0.0,0.0,0.0,0.0,0.0,0.0,0.0,0.0,0.0,0.0,0.0,0.0,0.0,0.0,0.0,0.0,0.0,0.0,0.0,0.0,0.0,0.0,0.0,0.0,0.0,0.0,0.0,0.0,0.0,0.0,0.0,0.0,0.0,0.0,0.0,0.0,0.0,0.0,0.0,0.0,0.0,0.0,0.0,0.0,0.0,0.0,0.0,0.0,0.0,0.0,0.0,0.0,0.0,0.0,0.0,0.0,0.0,0.0,0.0,0.0,0.0,0.0,0.0,0.0,0.0,0.0,0.0,0.0,0.0,0.0,0.0,0.0,0.0,0.0,0.0,0.0,0.0,0.0,0.0,0.0,0.0,0.0,0.0,0.0,0.0,0.0,0.0,0.0,0.0,0.0,0.0,0.0,0.0,0.0,0.0,0.0,0.0,0.0,0.0,0.0,0.0,0.0,0.0,0.0,0.0,0.0,0.0,0.0,0.0,0.0,0.0,0.0,0.0,0.0,0.0,0.0,0.0,0.0,0.0,0.0,0.0,0.0,0.0,0.0,0.0,0.0,0.0,0.0,0.0,0.0,0.0,0.0,0.0,0.0,0.0,0.0,0.0,0.0,0.0,0.0,0.0,0.0,0.0,0.0,0.0,0.0,0.0,0.0,0.0,0.0,0.0,0.0,0.0,0.0,0.0,0.0,0.0,0.0,0.0,0.0,0.0,0.0,0.0,0.0,0.0,0.0,0.0,0.0,0.0,0.0,0.0,0.0,0.0,0.0,0.0,0.0,0.0,0.0,0.0,0.0,0.0,0.0,0.0,0.0,0.0,0.0,0.0,0.0,0.0,0.0,0.0,0.0,0.0,0.0,0.0,0.0,0.0,0.0,0.0,0.0,0.0,0.0,0.0,0.0,0.0,0.0,0.0,0.0,0.0,0.0,0.0,0.0,0.0,0.0,0.0,0.0,0.0,0.0,0.0,0.0,0.0,0.0,0.0,0.0,0.0,0.0,0.0,0.0,0.0,0.0,0.0,0.0,0.0,0.0,0.0,0.0,0.0,0.0,0.0,0.0,0.0,0.0,0.0,0.0,0.0,0.0,0.0,0.0,0.0,0.0,0.0,0.0,0.0,0.0,0.0,0.0,0.0,0.0,0.0,0.0,0.0,0.0,0.0,0.0,0.0,0.0,0.0,0.0,0.0,0.0,0.0,0.0,0.0,0.0,0.0,0.0,0.0,0.0,0.0,0.0,0.0,0.0,0.0,0.0,0.0,0.0,0.0,0.0,0.0,0.0,0.0,0.0,0.0,0.0,0.0,0.0,0.0,0.0,0.0,0.0,0.0,0.0,0.0,0.0,0.0,0.0,0.0,0.0,0.0,0.0,0.0,0.0,0.0,0.0,0.0,0.0,0.0,0.0,0.0,0.0,0.0,0.0,0.0,0.0,0.0,0.0,0.0,0.0,0.0,0.0,0.0,0.0,0.0,0.0,0.0,0.0,0.0,0.0,0.0,0.0,0.0,0.0,0.0,0.0,0.0,0.0,0.0,0.0,0.0,0.0,0.0,0.0,0.0,0.0,0.0,0.0,0.0,0.0,0.0,0.0,0.0,0.0,0.0,0.0,0.0,0.0,0.0,0.0,0.0,0.0,0.0,0.0,0.0,0.0,0.0,0.0,0.0,0.0,0.0,0.0,0.0,0.0,0.0,0.0,0.0,0.0,0.0,0.0,0.0,0.0,0.0,0.0,0.0,0.0,0.0,0.0,0.0,0.0,0.0,0.0,0.0,0.0,0.0,0.0,0.0,0.0,0.0,0.0,0.0,0.0,0.0,0.0,0.0,0.0,0.0,0.0,0.0,0.0,0.0,0.0,0.0,0.0,0.0,0.0,0.0,0.0,0.0,0.0,0.0,0.0,0.0,0.0,0.0,0.0,0.0,0.0,0.0,0.0,0.0,0.0,0.0,0.0,0.0,0.0,0.0,0.0,0.0,0.0,0.0,0.0,0.0,0.0,0.0,0.0,0.0,3.8022,0.0,0.0,0.0,0.0,0.0,0.0,0.0,0.0,0.0,0.0,0.0,0.0,0.0,0.0,0.0,0.0,0.0,0.0,0.0,0.0,0.0,0.0,0.0,0.0,0.0,0.0,0.0,0.0,0.0,0.0,0.0,0.0,0.0,0.0,0.0,0.0,0.0,0.0,0.0,0.0,0.0,0.0,0.0,0.0,0.0,0.0,0.0,0.0,0.0,0.0,0.0,0.0,0.0,0.0,0.0,0.0,0.0,0.0,0.0,0.0,0.0,0.0,0.0,0.0,0.0,0.0,0.0,0.0,0.0,0.0,0.0,0.0,0.0,0.0,0.0,0.0,0.0,0.0,0.0,0.0,0.0,0.0,0.0,0.0,0.0,0.0,0.0,0.0,0.0,0.0,0.0,0.0,0.0,0.0,0.0,0.0,0.0,0.0,0.0,0.0,0.0,0.0,0.0,0.0,0.0,0.0,0.0,0.0,0.0,0.0,0.0,0.0,0.0,0.0,0.0,0.0,3.9948,0.0,0.0,0.0,0.0,0.0,0.0,0.0,0.0,0.0,0.0,0.0,0.0,0.0,0.0,0.0,0.0,0.0,0.0,0.0,0.0,0.0,0.0,0.0,0.0,0.0,0.0,0.0,0.0,0.0,0.0,0.0,0.0,0.0,0.0,0.0,0.0,0.0,0.0,0.0,0.0,0.0,0.0,0.0,0.0,0.0,0.0,0.0,0.0,0.0,0.0,0.0,0.0,0.0,0.0,0.0,0.0,0.0,0.0,0.0,0.0,0.0,0.0,0.0,0.0,0.0,0.0,0.0,0.0,0.0,0.0,0.0,0.0,0.0,0.0,0.0,0.0,0.0,0.0,0.0,0.0,0.0,0.0,0.0,0.0,0.0,0.0,0.0,0.0,0.0,0.0,0.0,0.0,0.0,0.0,0.0,0.0,0.0,0.0,0.0,0.0,0.0,0.0,0.0,0.0,0.0,0.0,0.0,0.0,4.365,4.4492,4.5831,4.5966,4.6284,4.6544,4.3808,4.1936,4.0818,4.0685,0.0,0.0,0.0,0.0,0.0,0.0,0.0,0.0,0.0,0.0,0.0,0.0,0.0,0.0,0.0,0.0,0.0,0.0,0.0,0.0,0.0,0.0,0.0,0.0,0.0,0.0,0.0,0.0,0.0,0.0,0.0,0.0,0.0,0.0,0.0,0.0,0.0,0.0,3.8998,3.9606,4.0157,4.0537,3.7918,0.0,0.0,0.0,0.0,0.0,0.0,0.0,0.0,0.0,0.0,0.0,0.0,0.0,0.0,0.0,0.0,0.0,0.0,0.0,0.0,0.0,0.0,0.0,0.0,0.0,0.0,0.0,0.0,0.0,0.0,0.0,0.0,0.0,0.0,0.0,0.0,0.0,0.0,0.0,0.0,0.0,0.0,0.0,3.7143,3.7365,0.0,0.0,0.0,0.0,0.0,0.0,0.0,0.0,0.0,0.0,0.0,0.0,0.0,4.2047,4.3547,4.4283,4.4871,4.536,4.6631,4.7377,4.7597,4.8241,4.8568,4.8603,4.8157,0.0,4.3193,4.2567,0.0,0.0,0.0,0.0,0.0,0.0,0.0,0.0,0.0,0.0,0.0,0.0,0.0,0.0,0.0,0.0,0.0,0.0,0.0,0.0,0.0,0.0,0.0,0.0,0.0,0.0,0.0,0.0,0.0,0.0,0.0,0.0,0.0,0.0,0.0,0.0,3.9269,4.0711,4.2744,4.3015,4.335,4.364,4.2304,4.035,3.7979,3.6845,0.0,0.0,0.0,0.0,0.0,0.0,0.0,0.0,0.0,0.0,0.0,0.0,0.0,0.0,0.0,0.0,0.0,0.0,0.0,0.0,0.0,0.0,0.0,0.0,0.0,0.0,0.0,0.0,0.0,0.0,0.0,0.0,0.0,0.0,0.0,0.0,0.0,0.0,0.0,3.6549,3.778,3.7795,3.8157,3.8117,0.0,0.0,0.0,0.0,0.0,0.0,0.0,0.0,0.0,4.3055,4.4088,4.5109,4.6172,4.6972,4.7973,4.9135,4.9309,5.036,5.2073,5.1941,5.2073,5.2368,5.2368,5.073,4.7846,4.541,4.3486,4.2085,0.0,0.0,0.0,0.0,4.2842,4.2615,0.0,0.0,0.0,0.0,0.0,0.0,0.0,0.0,0.0,0.0,0.0,0.0,0.0,0.0,0.0,3.1775,0.0,0.0,0.0,0.0,0.0,0.0,0.0,0.0,0.0,0.0,0.0,0.0,4.1778,4.332,4.5714,4.5886,4.6093,4.6259,4.6059,4.3844,4.0186,3.9013,3.7324,0.0,0.0,0.0,0.0,0.0,0.0,0.0,0.0,0.0,0.0,0.0,0.0,0.0,0.0,0.0,0.0,0.0,0.0,0.0,0.0,0.0,0.0,0.0,0.0,0.0,0.0,0.0,0.0,0.0,0.0,0.0,0.0,0.0,0.0,0.0,0.0,0.0,0.0,3.738,3.8344,3.8425,3.9076,3.9172,0.0,0.0,0.0,0.0,0.0,0.0,4.1657,4.2928,4.4246,4.5564,4.6791,4.7988,4.9124,4.9921,5.1155,5.2768,5.2384,5.339,5.5675,5.5131,5.509,5.5461,5.5461,5.4204,5.1915,4.8408,4.606,4.4668,4.438,4.4284,4.4514,4.5809,4.5794,4.5415,0.0,0.0,0.0,0.0,0.0,0.0,0.0,0.0,0.0,0.0,0.0,0.0,0.0,0.0,3.4155,3.4914,3.5673,3.554,0.0,0.0,0.0,0.0,0.0,0.0,0.0,0.0,0.0,4.0912,4.3768,4.5645,4.6548,4.7272,4.7962,4.861,4.7893,4.6251,4.3875,4.1666,3.983,3.8139,0.0,0.0,0.0,0.0,0.0,0.0,0.0,0.0,0.0,0.0,0.0,0.0,0.0,0.0,0.0,0.0,0.0,0.0,0.0,0.0,0.0,0.0,0.0,0.0,0.0,0.0,0.0,0.0,0.0,0.0,0.0,0.0,0.0,0.0,0.0,0.0,0.0,0.0,0.0,3.9878,4.0582,0.0,0.0,0.0,0.0,4.1996,4.2777,4.3877,4.5367,4.5741,4.6818,4.8787,4.9257,5.0495,5.2706,5.3456,5.4351,5.5415,5.6148,5.657,5.6708,5.6682,5.669,5.6723,5.6723,5.5825,5.4106,5.1242,4.9126,4.7606,4.6925,4.6757,4.7082,4.84,4.8655,4.8547,0.0,0.0,0.0,0.0,0.0,0.0,0.0,0.0,0.0,0.0,0.0,0.0,0.0,3.4604,3.6782,3.7979,3.8353,3.7629,3.5633,0.0,0.0,0.0,0.0,0.0,0.0,0.0,4.178,4.5285,4.6824,4.8472,5.0203,5.0471,5.0755,5.0996,5.0713,4.9893,4.8424,4.4678,4.1924,3.9888,3.7818,3.5673,0.0,0.0,0.0,0.0,0.0,0.0,0.0,0.0,0.0,0.0,0.0,0.0,0.0,0.0,0.0,0.0,0.0,0.0,0.0,0.0,0.0,0.0,0.0,0.0,0.0,0.0,0.0,0.0,0.0,0.0,0.0,0.0,0.0,0.0,0.0,0.0,0.0,4.1474,4.3262,0.0,4.3543,4.3689,4.4126,4.4884,4.5785,4.6536,4.7145,4.8331,4.9884,5.18,5.244,5.362,5.5424,5.5693,5.6482,5.7797,5.7116,5.7564,5.8944,5.7978,5.7253,5.6805,5.6805,5.6176,5.5097,5.3624,5.1856,5.0045,4.9661,4.9613,4.9953,5.1279,5.1382,5.1063,0.0,0.0,0.0,0.0,0.0,0.0,0.0,0.0,0.0,0.0,0.0,3.1947,3.4214,3.695,3.9365,4.109,4.0779,3.9393,3.6875,0.0,0.0,0.0,0.0,0.0,0.0,4.098,4.4279,4.8065,4.9092,5.0479,5.2203,5.2203,5.2341,5.2582,5.2306,5.2065,5.1659,4.8086,4.5126,4.2636,4.0572,3.8537,3.6536,0.0,0.0,0.0,0.0,0.0,0.0,0.0,0.0,0.0,0.0,0.0,0.0,0.0,0.0,0.0,0.0,0.0,0.0,0.0,0.0,0.0,0.0,0.0,0.0,0.0,0.0,0.0,0.0,0.0,0.0,0.0,0.0,0.0,0.0,4.1165,4.3014,4.3366,4.5419,4.6666,4.6274,4.6619,4.7192,4.7939,4.9093,4.9972,5.0532,5.1675,5.2971,5.4502,5.5004,5.59,5.715,5.7426,5.8185,5.9383,5.8668,5.9116,6.053,5.9254,5.8426,5.7943,5.7667,5.7107,5.6349,5.5866,5.4645,5.3118,5.2708,5.2881,5.3428,5.4166,5.4135,5.3735,0.0,0.0,0.0,0.0,0.0,0.0,0.0,0.0,0.0,0.0,2.9937,3.3327,3.7093,3.9577,4.1889,4.4132,4.2855,4.0676,3.7714,3.6018,0.0,0.0,0.0,0.0,3.9802,4.3542,4.6645,4.8955,5.0479,5.1582,5.2341,5.2341,5.2762,5.3452,5.2686,5.2797,5.3425,5.19,4.9548,4.6624,4.3464,4.2125,4.1538,0.0,0.0,0.0,0.0,0.0,0.0,0.0,0.0,0.0,0.0,0.0,0.0,0.0,0.0,0.0,0.0,0.0,0.0,0.0,0.0,0.0,0.0,0.0,0.0,0.0,0.0,0.0,0.0,0.0,0.0,0.0,0.0,0.0,4.0309,4.2366,4.4412,4.5637,4.708,4.7886,4.7602,4.88,5.0077,5.1205,5.2659,5.4142,5.5547,5.5651,5.6038,5.6805,5.6874,5.7253,5.7969,5.8771,5.9538,6.0297,6.0978,6.1314,6.1314,6.0565,6.022,6.0151,5.9383,5.8625,5.7935,5.79,5.7487,5.6805,5.5969,5.6317,5.7248,5.6994,5.6757,5.6483,0.0,0.0,0.0,0.0,0.0,0.0,0.0,0.0,0.0,0.0,3.0528,3.4505,3.7196,4.0549,4.3263,4.4969,4.2181,3.9738,3.8399,0.0,0.0,0.0,0.0,0.0,4.2953,4.621,4.9272,5.2141,5.3107,5.4245,5.5529,5.5529,5.5659,5.5874,5.5624,5.5667,5.5805,5.4797,5.3892,5.2754,4.8582,4.5285,4.2654,0.0,0.0,0.0,0.0,0.0,0.0,0.0,0.0,0.0,0.0,0.0,0.0,0.0,0.0,0.0,0.0,0.0,0.0,0.0,0.0,0.0,0.0,0.0,0.0,0.0,0.0,0.0,0.0,0.0,0.0,0.0,4.2557,4.333,4.2776,4.5558,4.8145,4.945,5.1297,5.2684,5.3251,5.3679,5.4275,5.5158,5.5632,5.6046,5.646,5.6969,5.7383,5.7598,5.8668,5.9357,5.9564,6.0323,6.1091,6.185,6.1496,6.1599,6.2126,6.1358,6.0703,6.0194,5.9978,5.9418,5.8659,5.8107,5.8107,5.828,5.6969,5.6729,5.7086,5.6983,5.6738,5.6429,0.0,0.0,0.0,0.0,0.0,0.0,0.0,0.0,0.0,0.0,3.0701,3.4604,3.7196,4.0342,4.2579,4.3451,4.1181,3.8841,3.6846,0.0,0.0,0.0,0.0,4.3056,4.612,4.9176,5.1755,5.3866,5.5245,5.6383,5.7288,5.7598,5.7736,5.7736,5.7426,5.7253,5.7219,5.6418,5.6107,5.5866,5.321,5.0287,4.7196,4.4844,4.3015,4.1567,3.9813,3.9365,3.9289,3.7538,0.0,0.0,0.0,0.0,0.0,0.0,0.0,0.0,0.0,0.0,0.0,0.0,0.0,0.0,0.0,0.0,0.0,0.0,0.0,0.0,0.0,0.0,0.0,0.0,4.5358,4.7197,4.81,4.9666,5.1266,5.2792,5.4356,5.5606,5.6485,5.6555,5.7038,5.815,5.7909,5.7874,5.8219,5.8633,5.8875,5.8875,6.0047,6.0668,6.0668,6.1427,6.2057,6.2505,6.2333,6.2496,6.2919,6.216,6.1574,0.0,6.0815,6.022,5.9461,5.9047,5.89,0.0,0.0,0.0,0.0,0.0,5.7368,5.6885,0.0,0.0,0.0,0.0,0.0,0.0,0.0,0.0,0.0,0.0,0.0,3.4042,3.7058,3.9405,4.0819,4.0992,3.9986,3.7876,0.0,0.0,0.0,4.1096,4.3545,4.6223,4.923,5.2176,5.4107,5.5004,5.7038,5.8107,5.828,5.8935,5.928,5.9332,5.8599,5.828,5.8245,5.7495,5.7219,5.7288,5.7012,5.5563,5.308,4.8831,4.7514,4.7582,4.4712,4.289,4.1562,4.0135,0.0,0.0,0.0,0.0,0.0,0.0,0.0,0.0,0.0,0.0,0.0,0.0,0.0,0.0,0.0,0.0,0.0,0.0,0.0,0.0,0.0,0.0,0.0,0.0,4.865,5.18,5.4725,5.4321,5.433,5.5914,5.6762,5.746,5.8219,5.828,5.884,6.022,5.9659,5.9556,6.0289,0.0,0.0,0.0,0.0,6.1599,6.1427,6.2298,6.2721,6.2643,6.3298,6.3609,6.3574,6.2919,6.2609,6.2574,6.1875,6.1151,6.047,6.0358,5.9806,5.8935,5.828,5.8519,5.9206,5.8861,5.8293,5.7739,0.0,0.0,0.0,0.0,0.0,0.0,0.0,0.0,0.0,2.7083,3.0558,3.3835,3.6284,3.8565,4.0428,4.1676,3.8841,3.6387,0.0,0.0,3.9503,4.3483,4.6389,4.9375,5.2452,5.4272,5.6142,5.8133,5.859,5.9418,6.0634,6.0806,6.0875,6.0875,6.0703,6.0634,6.059,5.984,5.9875,6.0289,5.8418,5.6314,5.4073,5.1927,5.0479,4.9314,4.7486,4.7031,4.6962,4.4863,4.4443,4.4395,4.1835,4.0336,0.0,0.0,0.0,0.0,0.0,0.0,0.0,0.0,0.0,0.0,0.0,0.0,0.0,0.0,0.0,0.0,0.0,0.0,0.0,4.9872,5.2308,5.4956,5.8607,5.8925,5.8916,5.9271,5.9461,5.984,6.0565,6.0634,6.0771,6.1047,6.0944,6.0909,6.1082,6.1712,6.1746,6.1116,6.3013,6.3462,6.2264,6.3609,6.3979,6.3402,0.0,0.0,6.3609,6.3436,6.3402,6.3367,6.3229,6.2747,6.1988,6.1358,6.0245,5.9004,5.8832,5.8883,5.9064,5.8959,5.8939,5.8856,0.0,0.0,0.0,0.0,0.0,0.0,0.0,0.0,0.0,0.0,2.9592,3.1938,3.3835,3.5387,3.6456,3.6841,3.515,0.0,0.0,3.9054,4.2366,4.6948,4.9693,5.2348,5.5046,5.6555,5.8073,5.9599,6.0728,6.1703,6.2461,6.3229,6.3609,6.3574,6.3186,6.2806,6.2393,6.1677,6.1323,6.122,6.0047,5.8702,5.7116,5.4789,5.3444,5.2582,5.1107,5.0072,4.9238,4.81,4.7203,4.6313,4.4803,4.3164,4.1586,0.0,0.0,0.0,0.0,0.0,0.0,0.0,0.0,0.0,0.0,0.0,0.0,0.0,0.0,4.2011,4.3955,0.0,4.9791,5.2859,5.5611,5.8426,6.147,6.1574,6.1185,6.0806,6.0737,6.1047,6.1815,6.153,6.1634,6.2393,6.1737,6.1496,6.1884,6.2264,6.2333,6.191,6.3358,6.3816,6.3057,6.3781,6.4152,6.4152,6.3781,6.3772,6.4126,6.3781,6.3609,6.3609,6.3609,6.2953,6.1815,6.0625,5.9694,5.9004,5.9004,5.9004,5.9012,5.9106,5.9191,5.9249,0.0,0.0,0.0,0.0,0.0,0.0,0.0,0.0,0.0,0.0,2.8592,3.0036,3.1425,3.2248,3.2455,0.0,0.0,0.0,0.0,4.109,4.4844,5.0176,5.2624,5.49,5.7185,5.8564,5.9702,6.0642,6.2505,6.354,6.3841,6.4887,6.5491,6.5644,6.4809,6.414,6.3574,6.3126,6.253,6.1944,6.1806,6.1392,6.0496,5.728,5.5858,5.5417,5.3935,5.1666,4.9383,4.9658,4.8245,4.641,4.672,4.5472,4.3493,4.1709,4.0195,0.0,0.0,0.0,0.0,0.0,0.0,0.0,0.0,4.0537,4.1349,4.3933,4.4445,4.5256,4.7846,5.0906,5.3758,5.5876,5.8707,6.1401,6.354,6.3195,6.2436,6.1634,6.1668,6.2013,6.2643,6.2264,6.2496,6.3703,6.2806,6.2471,6.3135,6.3022,6.2919,6.2919,6.3505,6.3747,6.3609,6.3747,6.4048,6.4462,6.3885,6.3919,6.4462,6.3876,6.3609,6.3609,6.3436,6.2599,6.1185,5.9797,5.9142,5.9004,5.9004,5.9004,5.9021,5.9166,5.9251,5.9277,0.0,0.0,0.0,0.0,0.0,0.0,0.0,0.0,0.0,0.0,0.0,0.0,0.0,0.0,0.0,0.0,0.0,0.0,3.9422,4.2366,4.6403,5.172,5.4134,5.6409,5.8694,5.9633,6.078,6.2229,6.2505,6.3298,6.4556,6.3884,6.4045,6.4779,6.3864,6.3509,6.3643,6.422,6.4393,6.4255,6.3609,6.3298,6.2816,5.9081,5.6797,5.5417,5.3935,5.0624,4.7176,4.8472,4.7438,4.5783,4.7169,4.6493,4.4785,4.273,4.0607,3.8684,3.7529,3.7848,3.8586,3.9018,4.0224,4.1641,0.0,4.3822,4.4784,4.6485,4.6812,4.7951,5.1675,5.3604,5.605,6.032,6.1708,6.2781,6.4358,6.3945,6.3195,6.2436,6.2953,6.3367,6.3471,6.3979,6.4393,6.4565,6.5092,6.5412,6.5506,6.4851,6.4462,6.4462,6.4531,6.4255,6.3609,6.4264,6.4289,6.3703,6.3643,6.3643,6.3703,6.3643,6.3609,6.3574,6.2919,6.2126,6.1254,6.0427,5.9633,5.9004,5.9004,5.9004,5.9004,5.9021,5.903,5.9038,0.0,0.0,0.0,0.0,0.0,0.0,0.0,0.0,0.0,0.0,0.0,0.0,0.0,0.0,0.0,0.0,0.0,0.0,4.0158,4.3671,4.801,5.3314,5.5728,5.8004,6.028,6.1125,6.2057,6.3126,6.3574,6.4092,6.4694,6.4789,6.5024,6.5365,6.4875,6.476,6.496,6.5138,6.5011,6.4669,6.4358,6.3462,6.1979,5.953,5.6253,5.2823,5.1797,4.9348,0.0,0.0,4.619,4.5673,4.7196,4.6348,4.4512,4.3202,4.0879,3.8703,3.8684,3.9564,4.0679,4.1509,4.3521,4.5553,4.6649,4.7472,4.8581,5.0416,5.115,5.2206,5.4761,5.6739,5.8906,6.1734,6.3104,6.4161,6.5265,6.3988,6.285,6.2549,6.1988,6.1979,6.2884,6.4014,6.4703,6.4703,6.5437,6.5895,6.5895,6.5575,6.5403,6.5403,6.5403,6.5023,6.4264,6.4565,6.4565,6.422,6.3816,6.3816,6.423,6.3816,6.3609,6.354,6.2333,6.1599,6.122,6.0013,5.9314,5.9004,5.9004,5.9004,5.9004,5.9004,5.9004,5.9004,0.0,0.0,0.0,0.0,0.0,0.0,0.0,0.0,0.0,0.0,0.0,0.0,0.0,0.0,0.0,0.0,0.0,0.0,0.0,4.3533,4.7941,5.3038,5.5831,5.8314,6.0634,6.1634,6.254,6.3298,6.4048,6.4393,6.4347,6.4664,6.483,6.4854,6.4677,6.4847,6.523,6.5297,6.5245,6.4979,6.4575,6.3151,6.1013,5.8495,5.4598,5.0341,4.9417,4.6934,0.0,0.0,4.3404,4.3479,4.4996,4.4492,4.3172,4.2206,4.0101,3.8303,3.941,4.0884,4.2511,4.4231,4.6768,4.9146,5.0317,5.1184,5.2317,5.425,5.49,5.559,5.7116,5.8771,6.047,6.2195,6.3402,6.4437,6.5437,6.3609,6.2091,6.1884,6.0668,6.0323,6.1436,6.3462,6.4807,6.5014,6.5955,6.6506,6.6506,6.63,6.6196,6.6196,6.5782,6.5299,6.4703,6.4496,6.4402,6.4393,6.385,6.3885,6.4368,6.385,6.3609,6.354,6.2186,6.1496,6.122,5.9866,5.9211,5.9004,5.9004,5.9004,5.9004,5.9004,5.9004,5.9004,0.0,0.0,0.0,0.0,0.0,0.0,0.0,0.0,0.0,0.0,0.0,0.0,0.0,0.0,0.0,0.0,0.0,0.0,0.0,4.117,4.534,4.9942,5.3685,5.672,5.9038,6.0565,6.1737,6.254,6.3264,6.356,6.3422,6.2528,6.2164,6.2206,6.2132,6.2623,6.3525,6.4353,6.5167,6.5723,6.423,6.2703,6.0737,5.5563,5.1624,4.8679,4.7203,0.0,0.0,0.0,3.833,3.799,3.9497,4.0434,4.0716,3.9192,3.7791,3.7179,3.9174,4.096,4.3135,4.6678,4.9286,5.1597,5.3839,5.4908,5.5874,5.7452,5.7211,5.7185,5.8659,5.9004,5.9797,6.2126,6.2549,6.3057,6.4531,6.2772,6.1082,6.0358,5.9521,5.903,5.9107,6.2496,6.5023,6.5792,6.7196,6.8024,6.8024,6.7369,6.6955,6.6955,6.5531,6.4703,6.4703,6.3988,6.3643,6.3643,6.3609,6.3609,6.3643,6.3609,6.3609,6.3574,6.2781,6.2022,6.1254,6.0461,5.9702,5.9004,5.9004,5.9004,5.9004,5.9004,5.9004,5.9004,0.0,0.0,0.0,0.0,0.0,0.0,0.0,0.0,0.0,0.0,0.0,0.0,0.0,0.0,0.0,0.0,3.1597,3.3253,0.0,3.8606,4.2187,4.6748,5.0582,5.3444,5.5245,5.7762,5.9185,5.9461,6.0185,6.0527,6.0464,6.0173,6.0325,6.0836,6.0665,6.1414,6.2812,6.2987,6.3564,6.4161,6.1643,6.0297,5.9159,5.2762,4.8452,4.5361,0.0,0.0,0.0,0.0,3.6087,3.6806,3.7289,3.7634,3.7634,3.6639,3.7447,3.9179,4.1424,4.5034,4.8784,5.1536,5.4272,5.6693,5.7978,5.8452,5.853,5.8004,5.6237,5.4903,5.538,5.5476,5.6557,5.9908,6.2026,6.3565,6.4565,6.4048,6.2737,6.047,5.9538,5.8875,5.8314,6.0797,6.2979,6.4264,6.5782,6.6851,6.7334,6.761,6.7507,6.7024,6.6506,6.5738,6.4703,6.4462,6.4324,6.4324,6.4324,6.4083,6.3609,6.3609,6.3609,6.3574,6.2816,6.2333,6.1988,6.0703,6.0047,5.9737,5.9211,5.9004,5.9004,5.9004,5.9004,5.9004,0.0,0.0,0.0,0.0,0.0,0.0,0.0,0.0,0.0,0.0,0.0,0.0,0.0,0.0,0.0,0.0,0.0,3.1735,3.3465,0.0,3.8939,4.2417,4.6251,4.888,5.0121,5.2597,5.3834,5.3729,5.5377,5.5996,5.562,5.6517,5.7012,5.7218,5.7415,5.8275,5.9598,5.9484,5.9827,6.0108,5.7067,5.5357,5.3977,4.7865,4.3837,0.0,0.0,0.0,0.0,3.3776,3.4254,3.5456,3.518,3.5456,3.5973,3.6323,3.8359,4.1262,4.4712,4.8707,5.259,5.5426,5.7805,5.9625,6.0427,6.0392,5.9771,5.8211,5.5822,5.3783,5.3056,5.2431,5.3078,5.6194,5.8339,6.0385,6.2502,6.249,6.1841,6.0737,5.9702,5.8978,5.8737,6.0047,6.153,6.3091,6.5127,6.6506,6.6955,6.7714,6.7773,6.7024,6.6989,6.6403,6.5127,6.5127,6.5127,6.5127,6.4841,6.4462,6.3979,6.3703,6.3609,6.3565,6.3091,6.2574,6.1979,6.1013,6.0254,5.9737,5.9211,5.9004,5.9004,5.9004,5.9004,5.9004,0.0,0.0,0.0,0.0,0.0,0.0,0.0,0.0,0.0,0.0,0.0,0.0,0.0,0.0,0.0,0.0,0.0,0.0,3.0533,0.0,0.0,3.7196,4.0894,4.3241,4.3994,4.5561,4.6253,4.5994,4.9137,5.0165,4.9219,5.1605,5.2258,5.1487,5.2402,5.3257,5.402,5.4078,5.4145,5.3957,5.0887,4.8376,4.5969,4.1285,0.0,0.0,0.0,0.0,3.1804,3.1839,3.2913,3.4086,3.3421,3.4214,3.588,3.8226,4.0572,4.3567,4.8838,5.2038,5.4736,5.8469,5.9918,6.0599,6.1254,6.0737,5.9668,5.8047,5.577,5.3441,5.1466,4.9889,4.9541,5.1487,5.2425,5.4483,5.9046,5.8932,5.9142,6.122,6.0176,5.9556,6.0254,6.0358,6.0987,6.2445,0.0,6.6886,6.6955,6.7645,6.7714,6.7024,6.6955,6.661,6.5895,6.593,6.593,6.5886,6.5127,6.4738,6.4669,6.3954,6.3609,6.3609,6.3609,6.2772,6.1427,6.1323,6.0452,5.9107,5.903,5.9004,5.9004,5.9004,5.9004,5.9004,0.0,0.0,0.0,0.0,0.0,0.0,0.0,0.0,0.0,0.0,0.0,0.0,0.0,0.0,0.0,0.0,0.0,0.0,2.8972,0.0,0.0,0.0,3.7196,3.9301,0.0,0.0,0.0,4.3078,4.431,4.4789,4.4538,4.5548,4.6252,4.6615,4.7349,4.8128,4.8899,4.8893,4.9016,4.8894,0.0,4.4755,4.4333,0.0,0.0,0.0,0.0,3.2421,3.1869,3.2416,3.4007,3.5909,3.6841,3.7807,3.9117,4.1993,4.5258,4.8872,5.303,5.7116,6.0677,6.2737,6.3393,6.3462,6.3082,6.1082,5.8556,5.59,5.1413,4.7453,4.5828,4.6087,4.7686,5.1045,5.5315,5.9417,6.2872,6.4129,6.4462,6.391,6.3496,6.291,6.1988,6.2402,6.2919,6.3298,6.454,6.5541,6.6162,6.6886,6.7196,6.7024,6.6472,6.6102,6.5895,6.6437,6.6437,6.5895,6.5679,6.5265,6.4669,6.3954,6.3609,6.3609,6.3609,6.3367,6.291,6.1772,6.1082,6.0599,5.9452,5.9004,5.9004,5.9004,5.9004,5.9004,0.0,0.0,0.0,0.0,0.0,0.0,0.0,0.0,0.0,0.0,0.0,0.0,0.0,0.0,0.0,0.0,0.0,0.0,0.0,2.9523,0.0,0.0,0.0,0.0,0.0,0.0,0.0,0.0,0.0,0.0,3.923,4.1044,4.2091,4.2458,4.328,4.3925,4.4332,4.3958,0.0,0.0,0.0,0.0,0.0,0.0,0.0,0.0,3.2869,3.3007,3.3973,3.5421,3.6979,3.864,4.0503,4.1849,4.3457,4.7196,5.0287,5.3348,5.7487,6.1013,6.3747,6.492,6.4713,6.3738,6.1979,5.9573,5.6513,5.2363,4.8155,4.4699,4.2946,4.3489,4.542,4.9193,5.3753,5.8283,6.233,6.4131,6.5092,6.5196,6.523,6.4885,6.4067,6.4377,6.4609,6.4609,6.5299,6.592,6.6368,6.7093,6.7334,6.7024,6.692,6.6886,6.6886,6.7265,6.7093,6.6378,6.6068,6.5472,6.4669,6.3954,6.3609,6.3609,0.0,6.3436,6.3022,6.1806,6.1116,6.0703,5.9487,5.9004,5.9004,5.9004,5.9004,5.9004,0.0,0.0,0.0,0.0,0.0,0.0,0.0,0.0,0.0,0.0,0.0,0.0,0.0,0.0,0.0,0.0,0.0,0.0,0.0,0.0,0.0,0.0,0.0,0.0,3.1804,3.1623,3.1528,3.1528,3.3502,0.0,0.0,0.0,0.0,0.0,0.0,0.0,0.0,0.0,0.0,0.0,0.0,0.0,0.0,0.0,0.0,0.0,3.1908,3.3766,3.6525,3.9014,4.0676,4.2062,4.4339,4.6189,4.8383,5.2831,5.5107,5.7211,6.1712,6.3954,6.5186,6.5989,6.4885,6.2772,5.9694,5.7124,5.3848,4.8363,4.5516,4.3397,4.1395,4.169,4.3513,4.7332,5.0788,5.4954,6.0513,6.2243,6.3747,6.593,6.6196,6.6196,6.6196,6.6196,6.6196,6.6196,6.6782,6.7093,6.7024,6.761,6.7679,6.7024,6.7714,6.8083,6.8083,6.8083,6.7748,6.6989,6.624,6.5472,6.4669,6.3954,6.3609,6.3609,6.3609,0.0,6.2574,6.1772,6.1013,6.0254,5.9452,5.9176,5.9142,5.9038,5.9073,5.9142,0.0,0.0,0.0,0.0,0.0,0.0,0.0,0.0,0.0,0.0,2.5766,2.4916,0.0,0.0,0.0,0.0,0.0,0.0,0.0,0.0,0.0,0.0,0.0,0.0,3.1804,3.1767,3.1749,3.1749,3.1987,3.2398,0.0,0.0,0.0,0.0,0.0,0.0,0.0,0.0,0.0,0.0,0.0,0.0,0.0,0.0,0.0,0.0,3.249,3.3869,3.5944,3.9508,4.2877,4.601,4.8286,5.0493,5.2977,5.69,5.8668,6.0254,6.423,6.592,6.6782,6.7541,6.5635,6.2816,5.9771,5.5505,5.0811,4.5897,4.2751,4.0392,3.8735,4.0429,4.3752,4.8992,5.2763,5.7415,6.4062,6.5164,6.593,6.7541,6.7714,6.7714,6.7714,6.7714,6.7714,6.7714,6.7842,6.7645,6.7024,6.7127,6.7127,6.6989,6.7714,6.8083,6.8083,6.8083,6.7748,6.6989,6.624,6.5472,6.4669,6.3954,6.3609,6.3609,6.3609,0.0,6.3333,6.2609,6.1806,6.1047,6.0289,5.9978,5.9909,5.9245,5.9418,5.9909,0.0,0.0,0.0,0.0,0.0,0.0,0.0,0.0,2.4458,2.7006,2.5916,2.5069,2.5467,2.5531,0.0,0.0,0.0,0.0,0.0,0.0,0.0,0.0,0.0,0.0,3.1804,3.1693,3.1693,3.1804,0.0,3.1691,3.2032,3.2738,3.3446,3.4184,3.4948,3.5553,3.5947,0.0,0.0,3.4408,3.3613,3.2911,0.0,0.0,0.0,0.0,3.3171,3.4691,3.6777,3.9399,4.3034,4.6983,5.0154,5.3004,5.5908,5.9702,6.1367,6.2712,6.6127,6.73,6.7576,6.7541,6.4945,6.1185,5.6564,5.2245,4.7606,4.1927,3.9943,3.887,3.7606,3.9679,4.288,4.6852,5.0739,5.5383,6.1461,6.3367,6.4989,6.7265,6.7886,6.8083,6.8083,6.8083,6.8083,6.8083,6.8083,6.7945,6.7576,6.7576,6.7576,6.7576,6.7921,6.7921,6.7541,6.7541,6.7162,6.6413,6.5644,6.5083,6.4669,6.3954,6.3609,6.3609,6.3609,0.0,6.354,6.2816,6.2264,6.185,6.1082,6.0771,6.0668,5.9909,5.9875,6.0082,0.0,0.0,0.0,0.0,0.0,0.0,0.0,2.4652,2.4946,2.7056,2.6074,2.5337,2.5877,2.5394,2.5234,0.0,0.0,0.0,0.0,0.0,0.0,0.0,0.0,0.0,0.0,0.0,0.0,3.1804,3.1632,0.0,0.0,0.0,0.0,0.0,3.5273,3.5966,3.6249,3.5495,3.5116,0.0,0.0,3.2786,0.0,0.0,0.0,0.0,0.0,3.4861,3.6753,3.8796,4.1861,4.5539,4.9341,5.3073,5.6687,5.9995,6.1959,6.3698,6.67,6.7753,6.7852,6.7128,6.3986,5.953,5.3548,4.9354,4.4977,3.8775,3.7906,3.7974,3.7134,3.8906,4.1406,4.4199,4.7737,5.2099,5.7728,6.0668,6.3367,6.6403,6.7541,6.8083,6.8083,6.8083,6.8083,6.8083,6.8083,6.8083,6.8083,6.8083,6.8083,6.8083,6.8083,6.7748,6.7024,6.7162,6.6713,6.5644,6.5196,6.4772,6.4427,6.385,6.3609,6.3609,6.3609,0.0,0.0,6.2953,6.2643,6.2436,6.1806,6.1565,6.1461,6.053,6.0392,6.0565,0.0,0.0,0.0,0.0,0.0,0.0,0.0,2.4542,2.503,2.6664,2.5939,2.5293,2.5356,2.5209,2.5124,0.0,0.0,0.0,0.0,0.0,0.0,0.0,0.0,0.0,0.0,0.0,0.0,3.1804,3.1781,0.0,0.0,0.0,0.0,0.0,0.0,3.4868,3.6249,3.5495,0.0,0.0,0.0,0.0,0.0,0.0,0.0,0.0,0.0,3.297,3.3645,3.7431,3.9365,4.0792,4.4152,4.9052,5.3849,5.5569,5.8505,6.1858,6.4776,6.668,6.7658,6.6902,6.3505,5.8875,5.3444,4.8507,4.3667,3.8556,3.7436,3.7328,3.7059,3.7595,3.9368,4.3267,4.5634,4.9348,5.6046,5.9564,6.253,6.5654,6.7231,6.8083,6.8083,6.8083,6.8083,6.8083,6.8083,6.8083,6.8083,6.8083,6.8083,6.8083,6.8083,6.7748,6.7024,6.7679,6.6911,6.4807,6.5472,6.5058,6.3712,6.3643,6.3609,6.3609,6.3609,0.0,0.0,6.354,6.3091,6.2505,6.2402,6.2411,6.2195,6.0746,6.1091,6.2091,0.0,0.0,0.0,0.0,0.0,0.0,2.5318,2.5768,2.6618,2.8271,2.7639,2.6866,2.6418,2.5749,2.509,0.0,0.0,0.0,0.0,0.0,0.0,0.0,0.0,0.0,0.0,0.0,3.1356,3.1804,3.1804,0.0,0.0,0.0,0.0,0.0,0.0,3.4556,3.5461,3.4744,0.0,0.0,0.0,0.0,0.0,0.0,0.0,0.0,0.0,0.0,3.4477,3.6469,3.7998,3.9037,3.897,4.2128,4.6948,5.2509,5.6443,5.9835,6.3555,6.6052,6.7364,6.6249,6.1931,5.6717,5.1973,4.6728,4.1752,3.7834,3.7185,3.7312,3.7184,3.7206,3.8028,4.0599,4.1817,4.421,4.9238,5.2555,5.6288,6.1185,6.3496,6.561,6.7886,6.8083,6.8083,6.8083,6.8083,6.8083,6.8083,6.8083,6.8083,6.8083,6.7669,6.73,6.6989,6.6359,6.5842,6.5403,6.4816,6.4437,6.4264,6.3816,6.3609,6.3609,6.3609,0.0,0.0,6.3609,6.3436,6.316,6.316,6.316,6.3022,6.1988,6.1988,6.2333,0.0,0.0,0.0,0.0,0.0,2.4707,2.5559,2.6256,2.7222,2.869,2.8479,2.7897,2.7163,2.6167,2.5131,2.4098,0.0,0.0,0.0,0.0,0.0,0.0,0.0,0.0,0.0,0.0,3.0735,3.1459,3.1459,3.1602,0.0,0.0,3.2692,3.2933,0.0,0.0,0.0,0.0,0.0,0.0,0.0,0.0,0.0,0.0,0.0,0.0,0.0,0.0,0.0,0.0,0.0,3.7152,3.5813,3.7108,4.0476,4.7548,5.2631,5.6806,6.0652,6.4025,6.6127,6.4967,6.0388,5.507,5.0627,4.5439,4.0621,3.7357,3.7274,3.7662,3.7291,3.717,3.7536,3.8684,3.9339,4.0974,4.4589,4.7934,5.1831,5.6762,5.9392,6.2298,6.6093,6.7438,6.8083,6.8083,6.8083,6.8083,6.8083,6.8083,6.8083,6.8083,6.761,6.7127,6.6679,6.5817,6.5334,6.5196,6.4333,6.4092,6.4358,6.385,6.3609,6.3609,6.3609,0.0,0.0,6.3609,6.3609,6.3609,6.3609,6.3609,6.3505,6.2781,6.2643,6.2712,0.0,0.0,0.0,0.0,0.0,0.0,0.0,2.5594,2.6296,2.7126,2.7782,2.7887,2.7092,2.6236,2.5332,2.4363,0.0,0.0,0.0,0.0,0.0,0.0,0.0,0.0,0.0,0.0,2.9903,3.0705,3.0705,3.108,3.1804,3.1804,3.2214,3.2899,0.0,0.0,0.0,0.0,0.0,0.0,0.0,0.0,0.0,0.0,0.0,0.0,0.0,0.0,0.0,0.0,0.0,0.0,0.0,3.5163,3.5415,3.9772,4.6179,5.2493,5.534,5.9883,6.3645,6.2897,5.909,5.4333,4.9742,4.5076,4.0743,3.7378,3.7711,3.8286,3.7275,3.7597,3.8011,3.8108,3.8997,4.0779,4.389,4.7603,5.0865,5.3176,5.546,5.8366,6.2195,6.592,6.8083,6.8083,6.8083,0.0,6.8083,6.8083,6.8083,6.8083,6.8083,6.7403,6.593,6.661,6.5851,6.3643,6.4358,6.4324,6.3609,6.3609,6.3609,6.3609,0.0,0.0,0.0,6.3609,6.3609,6.3609,6.3609,6.3609,6.3505,6.2781,6.2953,6.3471,0.0,0.0,0.0,0.0,0.0,0.0,0.0,2.6468,2.7236,2.8063,2.7851,2.7332,2.6467,2.5561,2.4627,2.3616,0.0,0.0,0.0,0.0,0.0,0.0,0.0,0.0,0.0,0.0,2.939,3.0705,3.0705,3.108,3.1804,3.1804,3.1903,3.214,3.2032,3.2358,0.0,0.0,0.0,0.0,0.0,0.0,0.0,0.0,0.0,0.0,0.0,0.0,0.0,0.0,0.0,0.0,0.0,0.0,0.0,3.5428,4.0649,4.6735,5.0038,5.3259,5.5516,5.4911,5.1661,4.799,4.5684,4.2062,3.8801,3.7216,3.7696,3.8313,3.8101,3.8028,3.851,4.0095,4.0051,4.0516,4.2447,4.6315,5.027,5.3747,6.0289,6.4923,6.6028,6.7212,6.7899,6.7899,6.7899,6.7899,6.7899,6.8049,6.8083,6.8083,6.761,6.7127,6.6644,6.5851,6.5083,6.4358,6.4092,6.3816,6.3609,6.3609,6.3609,0.0,0.0,0.0,0.0,6.3609,6.3609,6.3609,6.3609,6.3609,6.3574,6.3333,6.3402,6.3574,0.0,0.0,0.0,0.0,0.0,0.0,0.0,2.7082,2.7695,2.8488,2.7912,2.7185,2.6573,2.5449,2.4435,2.3724,0.0,0.0,0.0,0.0,0.0,0.0,0.0,0.0,0.0,2.7975,2.8734,3.0252,3.0252,3.077,3.1804,3.1804,3.1804,3.1795,3.1646,3.1782,0.0,0.0,0.0,0.0,0.0,0.0,3.1486,0.0,0.0,0.0,0.0,0.0,0.0,0.0,0.0,0.0,0.0,0.0,0.0,0.0,3.7046,4.1291,4.5147,4.8358,5.0566,5.0253,4.7576,4.469,4.3309,4.0495,3.8028,3.7511,3.8149,3.8692,3.847,3.8409,3.8767,3.993,3.971,4.0003,4.1707,4.5492,4.9732,5.4152,6.1228,6.569,6.5554,6.6856,6.7678,6.7678,6.7678,6.7678,6.7678,6.7535,6.7467,6.7467,6.7143,6.6713,6.6127,6.5186,6.4565,6.4289,6.3816,6.3609,6.3609,6.3609,6.3609,0.0,0.0,0.0,0.0,6.3609,6.3609,6.3609,6.3609,6.3609,6.3609,6.3609,6.3609,6.3609,0.0,0.0,0.0,0.0,0.0,0.0,0.0,0.0,2.7589,2.8415,2.7767,2.7188,2.7152,2.5628,2.4548,2.4335,0.0,0.0,0.0,0.0,0.0,0.0,0.0,0.0,0.0,2.729,2.801,2.9411,2.948,3.0243,3.1735,3.177,3.177,3.1726,3.1581,3.1476,0.0,0.0,0.0,0.0,0.0,0.0,0.0,0.0,0.0,0.0,0.0,0.0,0.0,0.0,0.0,0.0,0.0,0.0,0.0,0.0,0.0,0.0,0.0,4.4691,4.7773,4.7773,4.5856,4.358,4.2164,3.9933,0.0,3.8038,3.8742,3.9201,3.8586,3.8757,3.8856,3.8377,3.8602,3.9577,4.1657,4.5521,4.9929,5.4863,5.9468,6.2148,6.1968,6.5283,6.7499,6.7499,6.7499,6.7499,6.7499,6.6792,6.6382,6.6314,6.6642,6.6123,6.4656,6.4675,6.4305,6.3581,6.36,6.3609,6.3609,6.3609,6.3609,0.0,0.0,0.0,0.0,6.3609,6.3609,6.3609,6.354,6.354,6.3609,6.354,6.3531,6.3609,0.0,0.0,0.0,0.0,0.0,0.0,0.0,0.0,0.0,0.0,2.6433,2.5773,2.6359,2.4836,2.3729,0.0,0.0,0.0,0.0,0.0,0.0,0.0,0.0,0.0,0.0,2.729,2.7738,2.8661,2.9209,3.0006,3.0981,3.1528,3.1494,3.0972,3.1341,3.1093,0.0,0.0,0.0,0.0,0.0,0.0,0.0,0.0,0.0,0.0,3.2192,3.3219,0.0,0.0,0.0,0.0,0.0,0.0,0.0,0.0,3.4346,0.0,3.6891,0.0,3.9717,3.9717,3.9253,3.8681,0.0,3.7752,3.7295,3.7271,3.7873,3.8766,3.9791,3.9398,3.9463,4.1098,4.1284,4.1729,4.3263,5.0134,5.6167,5.9442,6.3582,6.5424,6.3509,6.5721,6.7263,6.7263,6.7263,6.7263,6.7263,6.6701,6.6109,6.5508,6.5011,6.46,6.4247,6.4391,6.408,6.3368,6.3526,6.3609,6.3609,6.3609,6.3609,0.0,0.0,0.0,6.3609,6.3609,6.3609,6.354,6.2988,6.3091,6.354,6.2953,6.3126,6.3609,0.0,0.0,0.0,0.0,0.0,0.0,0.0,0.0,0.0,0.0,0.0,0.0,0.0,0.0,0.0,0.0,0.0,0.0,0.0,0.0,0.0,0.0,0.0,0.0,2.6726,2.6764,2.7148,2.7911,2.8623,2.9592,3.0705,3.1065,3.0978,3.0604,3.0473,0.0,0.0,0.0,0.0,0.0,3.1182,0.0,0.0,0.0,0.0,0.0,3.2267,3.3063,0.0,3.406,3.41,3.414,0.0,0.0,0.0,0.0,3.4587,3.5385,3.6127,3.6664,3.6989,3.6989,3.6989,3.6989,3.6989,3.6989,3.7095,3.7431,3.7812,3.8474,3.9714,3.9334,3.9375,4.0984,4.1573,4.2881,4.5938,5.1057,5.607,6.0235,6.3071,6.4791,6.5125,6.6278,6.7024,6.7024,6.7024,6.6865,6.6526,6.5926,6.5229,6.4437,6.3708,6.3397,6.359,6.3696,6.361,6.3293,6.3061,6.3,6.3091,6.2712,6.253,0.0,0.0,0.0,6.2565,6.2953,6.3091,6.3091,6.3022,6.3264,6.354,6.316,6.3264,6.3609,0.0,0.0,0.0,0.0,0.0,0.0,0.0,0.0,0.0,0.0,0.0,0.0,0.0,0.0,0.0,0.0,0.0,0.0,0.0,0.0,0.0,0.0,0.0,2.5205,2.6063,2.6101,2.6481,2.729,2.8282,2.9347,3.0506,3.0751,3.0711,3.0418,2.9503,2.9063,0.0,0.0,0.0,0.0,3.0898,0.0,0.0,0.0,0.0,0.0,0.0,0.0,0.0,3.4161,3.3978,3.3648,3.4179,0.0,0.0,0.0,0.0,0.0,3.6593,3.706,3.7246,3.705,3.709,3.7125,3.7025,3.6989,3.7195,3.7812,3.8018,3.8354,3.9264,3.9241,3.9351,4.0055,4.1525,4.4477,4.9792,5.1814,5.4659,5.9844,6.1467,6.3217,6.6024,6.6588,6.6802,6.6802,6.67,6.6373,6.574,6.4884,6.413,6.3511,6.2685,6.2387,6.2743,6.2874,6.2969,6.3027,6.2476,6.2286,6.2425,6.1659,6.1289,6.1289,0.0,0.0,6.153,6.2229,6.2505,6.2549,6.3195,6.3436,6.3436,6.3436,6.3505,6.3609,0.0,0.0,0.0,0.0,0.0,0.0,0.0,0.0,0.0,0.0,0.0,0.0,0.0,0.0,0.0,0.0,0.0,0.0,0.0,0.0,0.0,0.0,2.3925,2.4646,2.6067,2.6101,2.6481,2.729,2.936,3.0105,2.9634,3.1553,3.1664,3.0198,2.9452,2.8807,2.8323,0.0,0.0,0.0,3.0836,0.0,0.0,0.0,0.0,0.0,0.0,0.0,0.0,3.2928,3.3213,3.3626,3.2945,0.0,0.0,0.0,0.0,0.0,3.5767,3.7255,3.8333,3.7281,3.7466,3.7777,3.7125,3.6989,3.702,3.716,3.7677,3.8488,3.9736,4.0268,4.0732,4.1399,4.4667,4.935,5.5816,5.8481,6.0317,6.1849,6.4367,6.5449,6.413,6.5709,6.6802,6.6802,6.6203,6.5808,6.5717,6.44,6.3622,6.3511,6.2178,6.1496,6.1564,6.2338,6.2454,6.1855,6.2071,6.2213,6.2215,6.1588,6.1289,6.1289,0.0,6.1677,6.2333,6.2445,6.2505,6.2505,6.2609,6.2678,6.2678,6.2678,6.3057,6.3609,0.0,0.0,0.0,0.0,0.0,0.0,0.0,0.0,0.0,0.0,0.0,0.0,0.0,0.0,0.0,0.0,0.0,0.0,0.0,0.0,0.0,2.3052,2.3553,2.4361,2.5425,2.5872,2.6454,2.7198,2.9068,2.9978,2.9939,3.0532,3.0128,2.8886,2.8266,2.8092,2.8286,2.8714,0.0,0.0,0.0,0.0,0.0,0.0,0.0,0.0,0.0,0.0,0.0,0.0,3.3239,3.3285,3.3171,0.0,0.0,0.0,0.0,0.0,3.4999,3.6496,3.7804,3.7469,3.8173,3.8887,3.8545,3.8475,3.8374,3.8088,3.8622,3.9328,3.9984,4.1139,4.3055,4.633,4.9229,5.2356,5.6253,5.7647,5.9158,6.1535,6.299,6.4197,6.5178,6.6183,6.6802,6.6802,6.6102,6.5537,6.5131,6.4096,6.3149,6.2337,6.1661,6.0892,6.0071,6.0877,6.1185,6.0968,6.1146,6.108,6.0789,6.0197,5.9942,5.9942,0.0,6.028,6.0634,6.1091,6.1201,6.118,6.1997,6.2277,6.222,6.2631,6.304,6.3442,0.0,0.0,0.0,0.0,0.0,0.0,0.0,0.0,0.0,0.0,0.0,0.0,0.0,0.0,0.0,0.0,0.0,0.0,0.0,0.0,2.2844,2.2785,2.3443,2.4235,2.5129,2.5934,2.6743,2.7607,2.9127,3.0145,3.0599,2.9576,2.8632,2.779,2.7615,2.7854,2.8396,2.862,2.9684,0.0,0.0,0.0,0.0,0.0,0.0,0.0,0.0,0.0,0.0,0.0,0.0,0.0,0.0,0.0,0.0,3.3116,3.3354,3.3621,3.4266,3.5773,3.7261,3.7603,3.8517,3.949,4.0094,4.0106,4.0038,4.0094,4.0707,4.118,4.099,4.2727,4.5767,5.0656,5.334,5.5437,5.7255,5.7829,5.9158,6.2236,6.2574,6.369,6.6531,6.6633,6.6531,6.6531,6.5696,6.4928,6.4367,6.3487,6.2472,6.1332,6.096,6.0206,5.9013,5.9564,5.9919,6.0059,6.0106,5.9945,5.9495,5.8973,5.8718,5.8727,5.8858,5.8978,5.9185,5.9813,5.9974,5.9987,6.135,6.1875,6.1984,6.2736,6.3104,6.3227,0.0,0.0,0.0,0.0,0.0,0.0,0.0,0.0,0.0,0.0,0.0,0.0,0.0,0.0,0.0,0.0,0.0,0.0,0.0,0.0,2.2918,2.3315,2.3448,2.4296,2.5884,2.665,2.7676,2.904,3.0607,3.135,3.1273,2.9752,2.8565,2.7828,2.8727,2.8858,2.8465,2.9262,3.0213,3.1173,0.0,0.0,0.0,0.0,0.0,0.0,0.0,0.0,0.0,0.0,0.0,0.0,0.0,0.0,3.2834,3.2552,3.2972,3.3498,3.3586,3.5584,3.7676,3.769,3.7967,3.8812,4.1205,4.1374,4.1532,4.336,4.4354,4.4639,4.3709,4.5713,4.8575,5.1725,5.5809,5.9622,6.253,6.4106,6.5324,6.6294,6.6396,6.6497,6.6757,6.617,6.5774,6.5774,6.4468,6.3656,6.3589,6.2236,6.14,6.1298,5.9902,5.9115,5.9013,5.9047,5.909,5.9109,5.9294,5.9352,5.9302,5.8769,5.8525,5.8525,5.8534,5.8919,5.9569,5.9603,5.9628,5.9722,6.0561,6.1294,6.1984,6.2736,6.3019,6.3028,0.0,0.0,0.0,0.0,0.0,0.0,0.0,0.0,0.0,0.0,0.0,0.0,0.0,0.0,0.0,0.0,0.0,0.0,0.0,0.0,2.3517,2.3045,2.4406,2.5426,2.5941,2.7103,2.7977,2.845,2.9447,2.9668,2.9148,2.8531,2.7837,2.7169,2.8105,2.8746,2.9152,3.0075,3.0735,3.1251,3.1705,0.0,0.0,0.0,0.0,0.0,0.0,0.0,0.0,0.0,3.2793,3.3172,3.287,3.283,3.2814,3.2486,3.2586,3.2836,3.2823,3.4876,3.7035,3.7035,3.8162,3.9946,4.2493,4.3293,4.3799,4.5035,4.6657,4.7593,4.6763,4.8448,5.093,5.3915,5.8186,6.167,6.3274,6.5144,6.6305,6.6136,6.6531,6.6633,6.617,6.5876,6.5503,6.5053,6.3632,6.2821,6.2821,6.1366,6.0341,5.9868,5.9284,5.8786,5.8321,5.833,5.833,5.8321,5.886,5.8863,5.844,5.8334,5.8321,5.833,5.8455,5.867,5.8909,5.8909,5.8847,5.8823,5.993,6.0825,6.163,6.2353,6.2702,6.2808,0.0,0.0,0.0,0.0,0.0,0.0,0.0,0.0,0.0,0.0,0.0,0.0,0.0,0.0,0.0,0.0,0.0,0.0,0.0,2.3482,2.3609,2.3077,2.455,2.5498,2.5793,2.7023,2.7866,2.8328,2.8524,2.8344,2.7786,2.7786,2.7519,2.7106,2.8374,2.9265,2.9868,3.0638,3.1188,3.1552,3.1872,3.1818,0.0,0.0,0.0,0.0,0.0,0.0,0.0,0.0,3.2633,3.3162,3.2612,3.2624,3.2737,3.2465,3.2371,3.2306,3.2393,3.3921,3.57,3.642,3.8117,4.0545,4.4044,4.5309,4.6231,4.8016,4.9211,4.9796,4.9301,5.0693,5.2757,5.5293,5.9471,6.2661,6.3386,6.5009,6.5933,6.5402,6.5797,6.5899,6.5402,6.5121,6.4681,6.3971,6.2753,6.1941,6.168,6.0452,5.9394,5.8684,5.865,5.8287,5.7552,5.7789,5.7891,5.79,5.8423,5.8389,5.79,5.8036,5.8124,5.8099,5.8268,5.8321,5.8321,5.8321,5.825,5.8217,5.9315,6.0216,6.1028,6.1782,6.23,6.263,0.0,0.0,0.0,0.0,0.0,0.0,0.0,0.0,0.0,0.0,0.0,0.0,0.0,0.0,0.0,0.0,0.0,0.0,2.2898,2.2927,2.3112,2.3581,2.3604,2.424,2.5571,2.6323,2.7444,2.8976,2.8171,2.779,2.779,2.7786,2.7786,2.7871,2.9844,3.0617,3.0529,3.0924,3.1524,3.2109,3.1388,3.1627,0.0,0.0,0.0,0.0,0.0,0.0,0.0,0.0,3.1585,3.2711,3.1809,3.202,3.2568,3.2426,3.2249,3.2157,3.2362,3.2826,3.3786,3.6042,3.7748,4.0326,4.5842,4.7328,4.8658,5.2669,5.2283,5.1235,5.1235,5.2494,5.4016,5.5462,5.9471,6.2661,6.3386,6.413,6.4613,6.458,6.4613,6.458,6.458,6.3927,6.3183,6.2424,6.167,6.0926,6.0148,5.9394,5.865,5.7924,5.79,5.7552,5.6799,5.7518,5.7891,5.7891,5.79,5.7891,5.7891,5.7891,5.7891,5.7891,5.7891,5.7891,5.7891,5.7891,5.7891,5.7958,5.8718,5.9462,6.0216,6.0984,6.1782,6.2391,0.0,0.0,0.0,0.0,0.0,0.0,0.0,0.0,0.0,0.0,0.0,0.0,0.0,0.0,0.0,0.0,0.0,0.0,0.0,2.4055,2.4424,2.3905,2.4842,2.5465,2.5726,2.6373,2.7165,2.8171,2.7397,2.7029,2.7025,2.7501,2.7733,2.7853,2.9327,3.0101,3.0292,3.0475,3.081,3.1207,3.1037,3.1188,3.1549,0.0,0.0,0.0,0.0,0.0,0.0,0.0,0.0,0.0,3.2246,3.2437,3.2568,3.2426,3.2371,3.2306,3.2393,3.4616,3.7005,3.7309,4.064,4.457,4.7273,4.7943,4.9195,5.3424,5.3518,5.2833,5.2833,5.4456,5.5944,5.6384,5.9819,6.2492,6.2685,6.3802,6.44,6.3893,6.4265,6.4174,6.3159,6.2854,6.2178,6.0892,6.0105,5.9564,5.9327,5.8626,5.7891,5.7137,5.7137,5.6765,5.6037,5.6249,5.635,5.635,5.6867,5.7408,5.7891,5.7891,5.7891,5.7891,5.7891,5.7891,5.7891,5.7891,5.7891,5.7958,5.8718,5.9462,6.0216,6.0984,6.1782,6.2391,0.0,0.0,0.0,0.0,0.0,0.0,0.0,0.0,0.0,0.0,2.4493,0.0,0.0,0.0,0.0,0.0,0.0,0.0,0.0,0.0,2.4723,2.4499,2.5147,2.5601,2.5703,2.6364,2.6928,2.7359,2.6928,2.6678,2.667,2.7742,2.8205,2.8268,2.969,3.0301,3.0285,3.0389,3.0578,3.0825,3.0872,3.1154,3.1564,0.0,0.0,0.0,0.0,0.0,0.0,0.0,0.0,0.0,3.1931,3.2166,3.2404,3.2258,3.2357,3.2642,3.3292,3.5443,3.7831,3.929,4.2597,4.6289,4.918,5.0516,5.2064,5.5252,5.5108,5.4456,5.4761,5.5674,5.6655,5.7534,5.981,6.1714,6.2323,6.2888,6.3226,6.3091,6.2922,6.2584,6.2018,6.168,6.0868,5.9336,5.8829,5.8457,5.8143,5.7442,5.6833,5.6384,5.635,5.6012,5.5268,5.5564,5.5699,5.5699,5.6139,5.6765,5.7476,5.7755,5.7891,5.7891,5.7891,5.7891,5.7891,5.7891,5.7891,5.7924,5.8389,5.9201,6.0148,6.0655,6.1511,6.2391,0.0,0.0,0.0,0.0,0.0,0.0,0.0,0.0,0.0,0.0,2.4849,2.4833,0.0,0.0,0.0,0.0,0.0,0.0,0.0,0.0,2.4524,2.5237,2.5022,2.5155,2.5706,2.6357,2.67,2.67,2.67,2.6712,2.6745,2.8257,2.8918,2.896,3.0523,3.0914,3.0435,3.0509,3.0657,3.0837,3.0859,3.1368,3.206,3.1986,0.0,0.0,0.0,0.0,0.0,0.0,0.0,0.0,3.1285,3.1542,3.217,3.2044,3.2391,3.3127,3.4685,3.5741,3.7399,4.1535,4.3994,4.6609,5.1427,5.4118,5.6012,5.7417,5.6722,5.6114,5.6799,5.6418,5.6646,5.8675,5.9665,6.0655,6.2018,6.167,6.1535,6.212,6.096,6.0351,6.1028,6.0419,5.937,5.7924,5.7789,5.7485,5.6722,5.6071,5.5665,5.5597,5.5597,5.5234,5.4507,5.5166,5.5496,5.5496,5.5564,5.5944,5.663,5.7417,5.7823,5.7891,5.7823,5.7823,5.7891,5.7891,5.7891,5.7891,5.7891,5.8804,6.008,6.0013,6.0994,6.2289,0.0,0.0,0.0,0.0,0.0,0.0,0.0,0.0,0.0,0.0,0.0,0.0,0.0,0.0,0.0,0.0,0.0,0.0,0.0,0.0,2.593,2.5682,2.6063,2.6322,2.6458,2.6628,2.67,2.67,2.67,2.6953,2.7498,2.8291,2.8987,2.9537,3.0326,3.067,3.0629,3.0263,3.0549,3.1163,3.0867,3.1222,3.1869,3.1248,3.1377,0.0,0.0,0.0,0.0,0.0,0.0,0.0,3.1734,3.1977,3.223,3.2777,3.3266,3.3854,3.4842,3.7553,4.0472,4.1935,4.6022,5.0437,5.3433,5.4473,5.5074,5.5978,5.6833,5.7485,5.762,5.8017,5.8438,5.8912,6.0139,6.0926,6.0655,6.0994,6.1119,6.0655,6.0283,5.9936,5.953,5.9327,5.8616,5.7137,5.7036,5.6697,5.5978,5.58,5.5437,5.4837,5.4846,5.4465,5.3754,5.3881,5.3983,0.0,5.4566,5.4905,5.5116,5.6427,5.7349,5.7857,5.7273,5.7383,5.7891,5.7891,5.7891,5.7891,5.7891,5.8804,6.0047,5.9462,6.0206,6.1535,0.0,0.0,0.0,0.0,0.0,0.0,0.0,0.0,0.0,0.0,0.0,0.0,0.0,0.0,0.0,0.0,0.0,0.0,0.0,0.0,0.0,2.6367,2.6687,2.6813,2.67,2.6687,2.6657,2.6657,2.6943,2.7261,2.762,2.8657,2.9312,2.9683,3.0301,3.0503,3.0316,3.0406,3.0577,3.0785,3.0601,3.1065,3.177,3.0999,3.1154,3.1745,0.0,0.0,0.0,0.0,0.0,0.0,0.0,0.0,3.1956,3.2332,3.2975,3.3982,3.5965,3.8726,4.1809,4.4976,4.8402,5.158,5.381,5.4454,5.4786,5.5424,5.6534,5.7383,5.7383,5.7983,5.8583,5.8955,5.9665,6.0172,6.0114,6.0148,6.0172,6.0114,5.9471,5.8896,5.8524,5.8143,5.7331,5.5861,5.575,5.5581,5.52,5.4828,5.4456,5.4093,5.4059,5.3687,5.2934,5.3306,5.3509,5.3509,5.389,5.427,5.4642,5.575,5.6486,5.6833,5.679,5.7036,5.7408,5.7755,5.7891,5.7891,5.7891,5.8601,5.953,5.9148,5.9733,6.0791,0.0,0.0,0.0,0.0,0.0,0.0,0.0,0.0,0.0,0.0,0.0,0.0,0.0,0.0,0.0,0.0,0.0,0.0,0.0,0.0,0.0,0.0,2.6967,2.6846,2.6674,2.6606,2.6656,2.6748,2.7385,2.7732,2.7899,2.9111,2.9702,2.9789,3.0383,3.0436,3.004,3.0499,3.0514,3.0207,3.014,3.0615,3.131,3.0726,3.0924,0.0,0.0,0.0,0.0,0.0,0.0,0.0,0.0,0.0,3.1638,3.184,3.2505,3.382,3.6879,3.9265,4.2227,4.7839,4.9887,5.1094,5.3148,5.3885,5.432,5.4905,5.5863,5.6621,5.6621,5.7103,5.7746,5.8515,5.8607,5.8887,5.9607,5.909,5.8853,5.9471,5.833,5.7518,5.7518,5.6968,5.6055,5.471,5.4609,5.4473,5.4203,5.3619,5.3239,5.3103,5.3103,5.2765,5.2131,5.2909,5.3272,5.3272,5.3441,5.3822,5.4439,5.5031,5.5462,5.5733,5.635,5.6689,5.6867,5.7586,5.7891,5.7891,5.7891,5.8355,5.8979,5.8853,5.9293,6.0013,0.0,0.0,0.0,0.0,0.0,0.0,0.0,0.0,0.0,0.0,2.7523,2.7523,0.0,0.0,0.0,0.0,0.0,0.0,0.0,0.0,0.0,2.7016,2.6788,2.6653,2.6594,2.6554,2.68,2.7376,2.8057,2.8705,2.9333,2.9533,2.9882,3.0382,3.0482,3.0497,3.0401,3.0089,2.9906,2.9849,2.9563,2.9511,2.9624,2.9635,0.0,0.0,0.0,0.0,0.0,0.0,3.167,0.0,0.0,0.0,3.174,3.2854,3.3083,3.3555,3.5974,3.8914,4.2366,4.6637,4.8194,4.9266,5.1555,5.2286,5.264,5.3339,5.4741,5.5834,5.5834,5.5944,5.6249,5.6959,5.7103,5.734,5.8094,5.7543,5.7137,5.7239,5.6486,5.6003,5.6003,5.5902,5.5505,5.4676,5.4609,5.4033,5.2672,5.2503,5.2156,5.1539,5.1505,5.1472,5.1336,5.2089,5.2469,5.2469,5.3171,5.3543,5.3653,5.3746,5.4481,5.5699,5.58,5.6215,5.6867,5.7586,5.7891,5.7891,5.7891,5.8355,5.8912,5.8287,5.8524,5.9148,0.0,0.0,0.0,0.0,0.0,0.0,0.0,0.0,0.0,0.0,0.0,2.7558,0.0,0.0,0.0,0.0,0.0,0.0,0.0,0.0,0.0,2.6874,2.6691,2.6584,2.6546,2.6856,2.7137,2.7423,2.8491,2.9372,3.0125,3.0523,3.063,3.0527,3.0919,3.0886,3.0466,2.9839,2.9659,2.9748,2.9142,2.9754,3.088,0.0,0.0,0.0,0.0,0.0,0.0,0.0,3.1686,3.2042,3.1982,0.0,0.0,0.0,3.3084,3.4105,3.7178,3.9748,4.2454,4.6206,4.7411,4.826,5.04,5.1128,5.1405,5.1724,5.2472,5.3467,5.482,5.5437,5.58,5.6139,5.6181,5.6316,5.6621,5.6384,5.6181,5.6181,5.5902,5.553,5.5108,5.5074,5.4769,5.4025,5.3551,5.3018,5.2334,5.1919,5.1344,5.0608,5.0972,5.1006,5.0574,5.1725,5.2536,5.2976,5.334,5.3509,5.3509,5.3509,5.3847,5.4524,5.5327,5.5868,5.6283,5.7417,5.7891,5.7891,5.7891,5.8094,5.8355,5.8026,5.8355,5.9056,0.0,0.0,0.0,0.0,0.0,0.0,0.0,0.0,0.0,0.0,0.0,0.0,0.0,0.0,0.0,0.0,0.0,0.0,0.0,0.0,0.0,2.675,2.677,2.6779,2.6722,2.7325,2.7735,2.7897,2.8911,2.9865,3.0787,3.1521,3.1587,3.1062,3.1449,3.1184,3.0456,2.97,2.9402,2.9431,2.9245,3.0165,3.1569,0.0,0.0,0.0,0.0,0.0,0.0,3.1121,3.1653,3.2276,3.222,3.2556,0.0,0.0,0.0,3.4696,3.7419,3.9322,4.133,4.4685,4.5765,4.6625,4.9086,4.9876,5.0183,5.0552,5.0809,5.1553,5.334,5.4338,5.4964,5.5369,5.5259,5.5259,5.5665,5.5395,5.5192,5.5403,5.5259,5.4828,5.4093,5.4033,5.3721,5.2968,5.2359,5.1953,5.1758,5.1209,5.0574,4.9838,5.0364,5.0364,4.9838,5.1285,5.2435,5.3213,5.3416,5.3509,5.3509,5.3509,5.3509,5.3577,5.4862,5.5539,5.58,5.7103,5.7721,5.7891,5.7891,5.7891,5.7891,5.7891,5.8263,5.8819,0.0,0.0,0.0,0.0,0.0,0.0,0.0,0.0,0.0,0.0,0.0,0.0,0.0,0.0,2.7646,2.7457,2.748,2.7373,2.7061,2.6882,2.6746,2.6631,2.7086,0.0,2.7349,2.7997,2.8674,2.9312,2.9373,3.013,3.1548,3.2299,3.2608,3.2575,3.1885,3.1184,3.0456,2.97,2.9024,2.8604,3.0097,3.0339,3.0011,3.1518,0.0,0.0,0.0,0.0,3.0917,3.0917,3.1537,3.2251,3.2011,3.2429,3.3116,0.0,0.0,0.0,3.5087,3.6208,3.8036,4.0964,4.2229,4.3694,4.7297,4.8263,4.8809,5.0134,5.0726,5.1041,5.115,5.1888,5.2942,5.4406,5.4059,5.4118,5.5496,5.449,5.389,5.4575,5.4025,5.3315,5.2503,5.2435,5.2122,5.137,5.1269,5.0939,5.0244,5.0176,4.9838,4.9086,4.9086,4.9112,4.9052,5.0525,5.1615,5.2367,5.3145,5.3509,5.3509,5.3509,5.3509,5.3551,5.4338,5.504,5.5767,5.6553,5.7273,5.7891,5.7891,5.7891,5.7891,5.7891,5.7924,5.806,0.0,0.0,0.0,0.0,0.0,0.0,0.0,0.0,0.0,0.0,0.0,0.0,0.0,2.7276,2.7244,2.7228,2.7609,2.7736,2.7526,2.791,2.8052,2.7841,2.8001,2.8077,2.8054,2.8712,2.9147,2.9402,2.9865,3.0621,3.1615,3.1885,3.199,3.199,3.2199,3.1896,3.1118,2.9893,2.9246,2.9157,3.0705,3.1733,3.2353,3.2456,3.3661,0.0,0.0,3.2763,3.2835,3.3322,0.0,0.0,0.0,3.3284,3.3627,3.4315,3.4358,3.4391,3.5346,3.5976,3.697,3.9434,4.1302,4.2984,4.4772,4.669,4.8139,4.8311,4.8791,4.938,5.0005,5.0921,5.1776,5.2325,5.219,5.2224,5.2757,5.2351,5.2114,5.2393,5.219,5.1911,5.1615,5.1581,5.1472,5.1235,5.0769,5.0371,5.0109,4.9661,4.9255,4.9018,4.9011,4.9221,4.9703,5.0244,5.1082,5.23,5.2604,5.3002,5.3509,5.3509,5.3509,5.3509,5.3788,5.4591,5.58,5.7002,5.7654,5.7891,5.7891,5.7891,5.7891,5.7891,5.85,5.9336,0.0,0.0,0.0,0.0,0.0,0.0,0.0,0.0,0.0,0.0,0.0,0.0,0.0,0.0,2.7473,2.7687,2.8006,2.8175,2.8055,2.8523,2.869,2.8501,2.8472,2.8467,2.8409,2.8593,2.892,2.9402,2.9677,3.04,3.1609,3.1609,3.1714,3.199,3.2227,3.1929,3.1184,3.0196,2.9638,2.9633,3.2083,3.3519,3.416,3.416,3.5379,3.6831,3.4855,3.4165,3.4325,3.5313,0.0,0.0,0.0,3.4358,3.4259,3.4756,3.4557,3.4391,3.5346,3.5644,3.6114,3.8076,3.962,4.1122,4.2844,4.4739,4.6269,4.666,4.7155,4.7752,4.8614,4.9406,5.0178,5.1011,5.1169,5.1201,5.1201,5.1201,5.1201,5.1201,5.1201,5.11,5.0837,5.0837,5.0736,5.0499,4.9999,0.0,4.9737,4.9255,4.9011,4.9011,4.9011,4.9255,4.9737,4.9973,5.0718,5.1919,5.219,5.2731,5.3509,5.3509,5.3509,5.3543,5.4016,5.4794,5.5767,5.6765,5.7442,5.7891,5.7891,5.7891,5.7891,5.7891,5.8533,5.9438,0.0,0.0,0.0,0.0,0.0,0.0,0.0,0.0,0.0,0.0,0.0,0.0,0.0,0.0,0.0,2.8844,2.8713,2.8634,2.8634,2.8596,2.8553,2.8553,2.8486,2.8475,2.8475,2.7746,2.8068,2.9435,2.8764,2.9521,3.1581,3.1581,3.1956,3.2608,3.189,3.1184,3.0489,3.0489,3.0092,2.9837,3.4253,3.5572,3.512,3.6599,3.7195,3.6996,3.5578,3.5054,3.5247,3.6731,0.0,0.0,0.0,0.0,3.4888,3.4888,3.4888,3.4888,0.0,0.0,0.0,3.6665,3.7096,3.805,4.1553,4.2414,4.3116,4.5292,4.5921,4.6303,4.7062,4.7295,4.8162,5.0495,5.102,5.1125,5.1133,5.1133,5.1133,5.1133,5.1133,5.0837,5.0143,5.0083,4.977,4.9044,4.9011,4.9011,4.9011,4.9011,4.9011,4.9011,4.9011,4.9011,4.9011,4.9737,5.0473,5.1201,5.1953,5.2739,5.3543,5.3509,5.3509,5.3644,5.5056,5.5699,5.5733,5.5767,5.6621,5.7891,5.7891,5.7891,5.7891,5.7891,5.7924,5.8161,0.0,0.0,0.0,0.0,0.0,0.0,0.0,0.0,0.0,0.0,0.0,0.0,0.0,0.0,2.8418,2.8539,2.8923,2.9178,2.9178,2.9651,2.9939,2.9939,2.9919,2.9908,2.9908,2.9705,2.9804,3.0196,3.0003,3.0234,0.0,0.0,3.0925,3.1101,3.0891,3.0688,3.0489,3.0489,3.0688,3.1283,3.4645,3.6201,3.6632,3.8142,3.9004,3.9434,3.9004,3.8546,3.8308,3.9745,3.8619,3.634,0.0,0.0,0.0,3.4888,3.4888,3.4888,3.4888,0.0,0.0,0.0,0.0,0.0,3.8487,4.0633,4.2818,4.3977,4.5091,4.6091,4.6855,4.7122,4.7456,4.8146,4.8936,4.9494,4.9604,4.9619,4.9619,4.9619,4.9619,4.9518,4.9323,4.9289,4.9221,0.0,4.9011,4.9011,4.9011,4.9011,4.9011,4.9011,4.9011,4.9011,4.9011,4.9737,5.0473,5.1201,5.1953,5.301,5.427,5.3754,5.4084,5.5099,5.4972,5.5513,5.6553,5.707,5.7518,5.7891,5.7891,5.7891,5.7891,5.7891,5.8567,5.9548,0.0,0.0,0.0,0.0,0.0,0.0,0.0,0.0,0.0,0.0,0.0,0.0,0.0,0.0,2.9306,2.9289,2.9643,2.9865,2.9865,3.0257,3.0489,3.0489,3.0108,2.9976,3.0031,2.9285,2.9252,0.0,0.0,0.0,0.0,0.0,0.0,0.0,3.0489,3.0489,3.0489,3.0489,3.0919,3.1874,3.5142,3.6897,3.7758,3.9527,4.0422,4.0819,4.0819,4.0554,4.0422,4.2204,4.0772,0.0,0.0,0.0,3.5711,3.5087,3.5346,3.5744,3.5446,0.0,0.0,3.5446,0.0,0.0,3.7904,3.9885,4.2097,4.372,4.4986,4.6021,4.675,4.6995,4.7182,4.7545,4.8128,4.8744,4.9317,4.912,4.9042,4.9424,4.9458,4.9323,4.9044,4.9289,4.9323,4.9018,4.9011,4.9011,4.9011,4.9011,4.9011,4.9011,4.9011,4.9154,4.9458,4.9872,5.0608,5.1649,5.2089,5.3112,5.4575,5.416,5.46,5.5699,5.5581,5.6021,5.6867,5.7586,5.7891,5.7891,5.7891,5.7891,5.7891,5.7891,5.8432,5.9235,0.0,0.0,0.0,0.0,0.0,0.0,0.0,0.0,0.0,0.0,0.0,0.0,0.0,0.0,0.0,0.0,3.0432,3.0426,3.0452,3.0432,3.0432,3.0458,2.9628,2.9284,2.9494,2.7828,2.7785,0.0,0.0,0.0,0.0,0.0,0.0,0.0,0.0,3.0489,3.0494,3.0588,3.1151,3.2277,3.5699,3.7593,3.8586,4.0798,4.1593,4.1527,4.1626,4.1652,4.1924,4.3893,4.3264,0.0,0.0,3.903,3.7261,3.5611,3.6174,3.7168,0.0,0.0,0.0,0.0,3.6241,0.0,3.8546,3.9574,4.0892,4.3444,4.4563,4.5292,4.6054,4.6245,4.6558,4.7323,4.7647,4.8274,4.9565,4.9207,4.9084,4.9866,4.9965,4.9737,4.9187,4.9737,4.9838,4.9187,4.9044,4.9052,4.912,4.9112,4.9078,4.9011,4.9086,4.9424,5.0075,5.0176,5.0913,5.23,5.2469,5.3315,5.471,5.471,5.5175,5.5978,5.6553,5.6867,5.6968,5.762,5.7891,5.7891,5.7891,5.7891,5.7891,5.7891,5.7958,5.8127,3.0489,0.0,0.0,0.0,0.0,0.0,0.0,0.0,0.0,0.0,0.0,3.0135,3.0262,0.0,0.0,0.0,3.0065,3.0038,3.0226,3.0065,3.0044,3.0231,2.9886,2.9772,3.0039,2.9474,2.9464,3.0039,0.0,0.0,0.0,0.0,0.0,0.0,0.0,3.0489,3.0527,3.1118,3.2514,3.4419,3.6334,3.7897,3.9368,4.2123,4.2811,4.2348,4.2943,4.3175,4.3241,4.3672,4.3547,4.2745,0.0,0.0,4.0037,3.7427,3.7705,3.8579,3.7268,0.0,0.0,0.0,0.0,0.0,3.6943,3.7659,3.8785,3.9348,4.0057,4.08,4.1529,4.2104,4.2535,4.2696,4.4203,4.6193,4.8432,4.8807,4.8868,4.9034,4.9144,4.939,4.9838,5.0015,5.0041,4.9906,4.9323,4.9255,4.9838,4.9872,4.9601,4.9018,4.9567,4.994,5.0109,5.0676,5.1446,5.23,5.356,5.4634,5.5505,5.5505,5.6215,5.7451,5.7002,5.7137,5.7688,5.7823,5.7891,5.7891,5.7891,5.7891,5.7891,5.7891,5.8287,5.8819,3.0353,0.0,0.0,0.0,0.0,0.0,0.0,0.0,0.0,3.1358,3.1303,3.1139,3.0881,3.068,3.0446,0.0,0.0,0.0,2.9995,2.9859,2.9843,2.9995,2.9787,2.9771,3.0,3.0015,3.0003,3.0006,0.0,0.0,0.0,0.0,0.0,0.0,3.0549,3.0823,3.1419,3.1533,3.3077,3.5578,3.7063,3.8719,4.062,4.3197,4.3679,4.3175,4.4309,4.4945,4.5244,4.5244,4.4507,0.0,4.2343,4.1714,4.0971,0.0,3.9229,3.9951,3.8156,0.0,0.0,3.7824,0.0,0.0,0.0,3.7963,3.8964,3.9639,4.0077,4.0587,4.1309,4.1733,4.1957,4.1957,4.3794,4.5453,4.598,4.7564,4.8825,4.9308,4.9466,4.956,4.956,4.9872,5.0109,5.0109,4.977,4.9864,5.06,5.0642,5.0304,4.9567,4.9906,5.0278,5.0642,5.1006,5.1776,5.2909,5.3687,5.4634,5.5699,5.5699,5.6486,5.7891,5.7518,5.7552,5.7891,5.7891,5.7891,5.7891,5.7891,5.7891,5.7891,5.7891,5.8127,5.8457,3.0285,0.0,0.0,0.0,0.0,0.0,0.0,0.0,3.1967,3.2173,3.2074,3.1821,3.137,3.1218,3.0971,3.0601,0.0,0.0,3.0047,3.0007,2.9901,2.976,2.9671,2.9724,2.9943,3.0226,3.031,3.0136,3.061,0.0,0.0,0.0,0.0,3.1019,3.0909,3.1424,3.237,3.2268,3.385,3.6536,3.7854,3.9583,4.1612,4.3684,4.4126,4.3758,4.5098,4.6034,4.6641,4.6509,4.5359,4.4044,4.4066,4.323,0.0,0.0,0.0,0.0,0.0,0.0,0.0,0.0,0.0,3.8878,0.0,0.0,0.0,4.0408,4.0566,4.0765,4.1354,4.1593,4.1527,4.1096,4.3223,4.439,4.2778,4.5352,4.7804,4.8835,4.9504,4.9622,4.9006,4.9409,4.9838,5.0278,4.994,5.0135,5.1167,5.1336,5.1006,5.0143,5.0379,5.0744,5.1201,5.1336,5.2122,5.3509,5.3644,5.4329,5.5505,5.5767,5.6553,5.7688,5.7823,5.7891,5.7891,5.7891,5.7891,5.7891,5.7891,5.7891,5.7891,5.7891,5.7891,5.7891,3.0384,3.0321,0.0,0.0,0.0,0.0,0.0,0.0,3.2626,3.2007,3.1913,3.1901,3.1834,3.19,3.1931,3.1893,3.198,3.1701,3.0996,3.0729,3.0267,2.9579,2.9899,3.0219,3.0416,3.0851,3.1188,3.1402,3.0826,3.0627,0.0,0.0,3.0451,3.1539,3.1974,3.2352,3.2734,3.3996,3.5816,3.7917,3.8771,4.0018,4.1562,4.3141,4.3669,4.3711,4.4454,4.5203,4.5754,0.0,4.5169,4.5119,0.0,4.3396,4.4497,4.0468,0.0,0.0,0.0,0.0,0.0,0.0,4.0613,0.0,0.0,0.0,3.8977,3.7831,0.0,3.7626,3.7685,0.0,0.0,3.6075,3.9215,4.1163,3.9103,4.1496,4.3989,4.5379,4.7562,4.8917,4.8816,4.8419,4.8969,5.093,4.9273,4.9037,5.11,5.1818,5.1522,5.0143,5.1352,5.1784,5.1201,5.1852,5.263,5.3518,5.416,5.4575,5.4778,5.6089,5.6765,5.6968,5.762,5.7891,5.7891,5.7891,5.7891,5.7891,5.7891,5.7891,5.7891,5.7891,5.7891,5.7891,2.9853,2.9951,0.0,0.0,0.0,0.0,0.0,0.0,3.3134,3.2409,3.1838,3.1706,3.2236,3.1535,3.1293,3.2037,3.2055,3.1681,3.0923,3.0772,3.0466,2.9928,2.967,2.981,3.0303,3.0525,3.0487,3.0158,3.0369,3.0294,2.9876,0.0,3.0993,3.2035,3.3112,3.4229,3.5403,3.5906,3.7259,3.9146,3.9629,4.0615,4.1928,4.3559,4.4437,4.4794,4.4661,4.5075,4.5643,0.0,4.4621,0.0,0.0,0.0,0.0,4.1584,0.0,0.0,0.0,0.0,0.0,0.0,0.0,0.0,3.8745,0.0,3.8493,0.0,0.0,0.0,0.0,0.0,0.0,0.0,3.9374,4.0633,3.8513,4.0761,4.3071,4.4227,0.0,0.0,4.7405,4.7372,4.8173,5.0405,4.8901,4.9037,5.1716,5.2122,5.2029,5.1386,5.1995,5.2156,5.1852,5.2156,5.2697,5.3509,5.3822,5.4397,5.5268,5.5877,5.6621,5.7451,5.7755,5.7891,5.7891,5.7891,5.7891,5.7891,5.7891,5.7891,5.7891,5.7891,5.7891,5.7891,2.971,0.0,0.0,3.0054,3.1218,0.0,0.0,0.0,3.3321,3.2838,3.2146,3.2019,3.2946,3.2289,3.2179,3.312,3.3362,3.2909,3.1636,3.1566,3.1346,3.0761,3.0193,3.028,3.1087,3.0992,3.0613,2.9984,3.0591,3.0525,2.9794,3.0596,3.1522,3.2558,3.3918,3.5486,3.7118,3.7394,3.8533,4.0205,4.0452,4.122,4.2393,4.3746,4.4578,4.4983,4.4448,4.4854,4.5579,4.5184,4.4141,0.0,4.4385,0.0,4.2003,0.0,0.0,0.0,4.0022,0.0,0.0,0.0,0.0,0.0,0.0,0.0,0.0,0.0,0.0,0.0,0.0,0.0,0.0,0.0,0.0,4.0308,3.7924,3.9739,4.1643,4.253,0.0,0.0,0.0,4.5794,4.6577,4.9281,4.8101,4.8634,5.1818,5.2198,5.23,5.23,5.2503,5.2536,5.23,5.2536,5.2909,5.3509,5.3509,5.4152,5.5403,5.5597,5.6384,5.762,5.7823,5.7891,5.7891,5.7891,5.7891,5.7891,5.7891,5.7891,5.7891,5.7891,5.8026,5.8195,3.0328,3.0389,3.0701,3.1424,3.2101,3.2723,3.3178,3.3058,3.3002,3.3251,3.3038,3.319,3.4148,3.5171,3.5864,3.595,3.6969,3.6501,3.388,3.3818,3.3372,3.2182,3.2004,3.2384,3.3357,3.3015,3.2597,3.2203,3.2018,3.1811,3.1534,3.1277,3.1818,3.3017,3.4253,3.5458,3.6723,3.8146,3.9691,4.1145,4.1154,4.1836,4.291,0.0,4.3406,4.3379,4.3349,0.0,0.0,4.3853,4.3837,0.0,0.0,0.0,0.0,0.0,0.0,0.0,0.0,0.0,0.0,3.9662,0.0,0.0,0.0,0.0,4.0336,0.0,0.0,0.0,0.0,0.0,0.0,0.0,0.0,0.0,0.0,3.7387,3.8626,3.9348,4.1437,0.0,0.0,4.3435,4.3691,4.7661,4.6465,4.7226,5.1024,5.1919,5.23,5.23,5.3078,5.3078,5.23,5.3069,5.3475,5.3509,5.3509,5.389,5.4676,5.5369,5.6114,5.6867,5.7586,5.7891,5.7891,5.7891,5.7891,5.7891,5.7891,5.7891,5.7891,5.7891,5.8355,5.8945,3.0116,3.0659,3.1097,3.108,3.1646,3.2209,3.2631,3.282,3.3474,3.5141,3.4906,3.5458,3.7759,3.7814,3.7802,3.8116,3.8484,3.7779,3.5538,3.5266,3.4803,3.3902,3.2987,3.2783,3.3348,3.2574,3.1884,3.1324,3.1236,3.1419,3.1861,3.1683,3.2403,3.3933,3.5351,3.6817,3.8276,3.9624,4.0681,4.1451,4.1134,4.176,4.2906,0.0,4.3067,4.3071,4.3249,4.3908,0.0,4.3624,4.3468,4.3611,4.3121,4.2552,4.2028,4.1974,4.233,0.0,0.0,0.0,4.3554,4.1781,0.0,0.0,0.0,0.0,0.0,0.0,0.0,0.0,0.0,0.0,0.0,0.0,0.0,0.0,0.0,3.7884,3.8282,3.8553,4.0625,4.2136,4.2254,0.0,4.4164,4.6165,4.6222,4.7634,5.1024,5.1438,5.2055,5.3069,5.3374,5.3382,5.3112,5.3374,5.3509,5.3509,5.3509,5.4152,5.5336,5.5597,5.6384,5.7552,5.7789,5.7891,5.7891,5.7891,5.7891,5.7891,5.7891,5.7891,5.7891,5.7891,5.8355,5.9158,3.0377,3.0772,3.1121,3.1283,3.1692,3.2152,3.2503,3.3112,3.4218,3.6248,3.6434,3.7339,3.9853,3.9865,3.9792,4.0138,4.0395,3.9472,3.6898,3.7071,3.672,3.5514,3.4592,3.4492,0.0,3.36,3.2559,3.2184,3.207,3.2202,3.2571,3.2563,3.3159,3.427,3.5458,3.6968,3.8648,4.0066,4.1184,4.1945,4.1291,4.174,4.2772,0.0,4.283,4.2931,0.0,4.3728,4.4237,4.3818,4.3646,4.3706,4.3938,4.3261,4.2466,4.2882,4.3191,4.325,4.2798,4.3778,0.0,4.3075,4.3015,0.0,4.1306,0.0,0.0,0.0,0.0,0.0,0.0,0.0,0.0,0.0,0.0,0.0,0.0,3.8593,3.8593,3.8593,3.992,4.1006,4.1354,4.1755,4.2957,4.5303,4.5341,4.6638,0.0,0.0,5.1727,5.3036,5.3281,5.3416,5.3509,5.3509,5.3509,5.3509,5.3509,5.4287,5.5699,5.5699,5.6486,5.7891,5.7891,5.7755,5.7518,5.7518,5.7349,5.7137,5.7417,5.7654,5.7924,5.8186,5.8761,5.9597,3.0932,3.0765,3.0927,3.202,3.2298,3.2451,3.2764,3.3834,3.5126,3.6597,3.7729,3.9014,4.0692,4.1564,4.2011,4.2041,4.2683,4.1644,3.819,3.9237,3.9088,3.711,3.6773,3.7353,3.8868,0.0,0.0,0.0,3.4349,3.3969,3.3618,3.3757,3.3932,3.406,3.4647,3.5914,3.7757,3.9438,4.1088,4.2522,4.1661,4.1789,4.2499,4.2622,4.2808,4.3012,4.3298,4.3838,4.4386,4.4366,4.4366,4.4516,4.5095,4.4855,4.4366,4.4366,4.4815,4.5059,4.3806,4.3937,4.4304,4.3631,0.0,0.0,0.0,0.0,4.3194,0.0,0.0,0.0,0.0,0.0,0.0,0.0,0.0,0.0,0.0,3.9315,3.9315,3.9315,3.9315,4.0158,4.2358,4.0032,4.0267,4.4935,4.3903,4.4505,4.7838,0.0,5.1309,5.2241,5.2859,5.3264,5.3467,5.3492,5.3475,5.3425,5.345,5.421,5.5526,5.5586,5.638,5.7759,5.775,5.7396,5.6781,5.6756,5.6384,5.5868,5.6587,5.734,5.8094,5.8786,5.9462,6.0283,2.9465,3.0551,3.1699,3.2447,3.2108,3.1683,3.1581,3.3206,3.537,3.7925,3.98,4.1863,4.4484,4.4823,4.4639,4.4165,4.4298,4.3615,4.175,4.134,4.0823,4.0023,3.9101,3.862,3.8741,3.6815,3.5587,3.515,3.4115,3.363,3.3682,3.3319,3.3198,3.3329,3.4311,3.5133,3.595,3.8262,4.0025,4.1312,4.1519,4.1909,4.2453,0.0,4.3838,4.4148,4.4627,4.5234,4.5702,4.5204,4.5384,4.5732,4.5394,4.5185,4.5035,4.5035,4.5503,4.5984,4.5621,4.6003,4.6371,4.5767,4.5183,4.4604,0.0,0.0,0.0,0.0,0.0,0.0,0.0,0.0,0.0,0.0,0.0,0.0,0.0,0.0,3.9315,3.9315,3.9315,3.9322,3.9375,4.0097,4.1423,4.3465,4.3659,4.5403,4.9341,0.0,0.0,5.2093,5.2698,5.3067,5.3289,5.3119,5.2903,5.259,5.3059,5.3223,5.3138,5.4033,5.5008,5.5951,5.5871,5.61,5.6558,5.6153,5.6519,5.7349,5.7552,5.8398,5.9573,5.9742,5.9597,5.9496,2.9609,3.1213,3.2547,3.2603,3.3155,3.3547,3.34,3.4245,3.5984,3.8986,4.0871,4.2676,4.4603,4.5461,4.5732,4.5354,4.5337,4.4658,4.309,4.3046,4.2454,4.1154,4.0744,4.0411,4.0188,3.8482,0.0,3.6572,3.5443,3.4542,3.3897,3.3397,3.3086,3.2931,3.38,3.449,3.5228,3.8478,4.0522,4.1613,4.2077,4.2611,0.0,4.3885,4.4573,4.5233,4.5806,4.5927,4.5802,4.5424,4.5544,4.5862,4.5773,4.5753,4.5753,4.5753,4.6221,4.6659,4.639,4.679,4.7227,4.6878,4.6476,4.5981,4.5224,4.5181,4.5108,0.0,0.0,0.0,0.0,0.0,0.0,0.0,0.0,0.0,0.0,0.0,3.9315,3.9315,3.9315,3.9143,3.8732,3.9541,4.0752,4.2299,4.2506,0.0,0.0,0.0,0.0,5.0935,5.1831,5.2534,5.3059,5.2706,5.2353,5.199,5.2715,5.282,5.2368,5.3341,5.4466,5.5673,5.5601,5.5799,5.6156,5.6171,5.6486,5.707,5.8364,5.937,6.0114,6.0114,5.9834,5.9665,3.0728,3.2325,3.3458,3.2969,3.4855,3.6539,3.6887,3.6568,3.7303,3.9993,4.1599,4.2702,4.3322,4.489,4.5906,4.5906,4.5906,4.518,4.3496,4.4338,4.3874,4.157,4.1947,4.2179,4.2092,4.0263,3.8957,0.0,3.7223,3.5794,3.3974,3.3599,3.3111,3.2555,3.3201,3.4147,3.5524,3.9168,4.1371,4.2452,4.292,4.3539,4.4209,4.4445,4.5156,4.6092,4.668,4.6317,4.5544,4.5544,4.5544,4.5663,4.6251,4.642,4.642,4.642,4.685,4.7179,4.66,4.685,4.7309,4.7309,4.7309,4.7096,4.628,4.6306,4.6192,4.509,4.5334,4.5578,0.0,0.0,0.0,3.9813,0.0,0.0,0.0,0.0,3.9839,3.9739,3.964,0.0,3.9315,3.8823,3.9388,4.1552,4.1023,0.0,0.0,0.0,0.0,4.9681,5.0943,5.2034,5.286,0.0,5.1844,5.1573,5.2319,5.2488,5.2186,5.2948,5.4097,5.5516,5.5506,5.5459,5.5442,5.6026,5.6208,5.6373,5.9182,6.0182,6.008,5.9979,6.0013,6.0216,3.204,3.3288,3.437,3.4831,3.6121,3.7816,3.9944,4.0196,4.0525,4.1609,4.3293,4.4658,4.5325,4.5703,4.5906,4.5906,4.5906,4.5761,4.5413,4.5093,4.4483,4.3525,4.3079,4.2625,4.2121,4.067,3.9363,0.0,0.0,3.5162,3.2786,3.2985,3.2339,3.1071,3.2741,3.492,3.7358,3.8303,3.9731,4.1513,4.3164,4.3901,4.4187,4.5402,4.6006,4.6245,4.6708,4.6913,4.695,4.695,4.695,4.698,4.7089,4.7119,4.7119,4.7119,4.7209,4.7268,4.7149,4.7209,4.7309,4.7309,4.7309,4.726,4.7096,4.71,4.7093,4.6842,4.6888,4.6543,4.51,0.0,0.0,0.0,0.0,0.0,0.0,0.0,0.0,4.2024,4.1401,4.058,3.9408,3.9203,3.986,4.1573,4.0373,0.0,0.0,0.0,0.0,0.0,5.1561,0.0,0.0,0.0,5.1316,5.1427,5.1408,5.1033,5.0419,5.1556,5.2026,5.1884,5.179,5.2549,5.3845,5.3564,5.529,5.8384,6.0318,6.0689,6.0047,5.9428,5.9564,6.0114,3.3877,3.4748,3.5822,3.7146,3.8705,4.0437,4.2335,4.3728,4.4077,4.2741,4.3351,4.4048,4.4367,4.5296,4.5906,4.5906,4.5906,4.5906,4.5906,4.5587,4.5122,4.4483,4.3874,4.3235,4.2586,4.1638,4.0176,3.8202,0.0,0.0,0.0,3.2672,3.2139,3.1163,3.3448,3.586,3.8251,3.9625,0.0,4.2898,4.4382,4.4977,4.5075,4.5768,4.6113,4.6258,4.6613,4.6887,4.7106,4.7255,4.7309,4.7309,4.7309,4.7309,4.7309,4.7309,4.7309,4.7309,4.7309,4.7309,4.7309,4.7309,4.7309,4.7309,4.7309,4.7309,4.7309,4.7309,4.7309,4.683,4.5353,4.3451,0.0,0.0,0.0,0.0,0.0,0.0,4.3955,0.0,4.2653,4.156,4.0488,3.9733,3.9607,4.0412,3.9814,0.0,0.0,0.0,0.0,0.0,0.0,0.0,0.0,0.0,0.0,5.0432,5.0776,5.0634,5.008,5.1042,5.1662,5.1961,5.1929,5.2492,5.3559,5.4156,5.6025,5.8634,5.9547,5.9927,5.9919,5.9169,5.9684,6.0655,3.5906,3.6498,3.7535,3.9479,4.1308,4.2934,4.4222,4.6353,4.6847,4.4153,4.3805,4.3805,4.3805,4.5064,4.5906,4.5906,4.5906,4.5906,4.5906,4.5906,4.5587,4.4919,4.4454,4.3874,4.3235,4.2741,4.1279,0.0,0.0,0.0,0.0,0.0,3.27,3.2417,3.462,0.0,0.0,0.0,4.3126,4.45,4.552,4.5906,4.5906,4.5906,4.599,4.6169,4.6414,4.6646,4.6876,4.7146,4.7255,4.7309,4.7309,4.7309,4.7309,4.7309,4.7309,4.7309,4.7309,4.7309,4.7309,4.7309,4.7309,4.7309,4.7309,4.7309,4.7309,4.7309,4.7309,4.6862,4.5443,4.4243,0.0,0.0,0.0,0.0,0.0,0.0,4.5306,0.0,4.3738,4.2628,4.1715,0.0,0.0,0.0,0.0,0.0,4.262,0.0,0.0,0.0,0.0,5.0061,5.063,0.0,4.9308,4.971,5.0376,5.0587,5.0416,5.0966,5.159,5.2337,5.2337,5.2696,5.3439,5.5335,5.6938,5.8226,5.8529,5.8959,5.9385,5.8832,5.9608,6.0843,3.7941,3.8463,3.9538,4.1482,4.2934,4.4251,4.5529,4.6893,4.7474,4.6569,4.6453,4.6453,4.6453,4.6127,4.5906,4.5906,4.5906,4.5906,4.5906,4.5906,4.5587,4.4919,4.4832,4.4541,4.3932,4.3845,4.2857,0.0,0.0,3.797,0.0,0.0,0.0,0.0,0.0,0.0,0.0,4.2335,4.3652,4.4923,4.5627,4.5906,4.5906,4.5906,4.5929,4.5974,4.6169,4.6403,4.6646,4.6876,4.7095,4.7309,4.7309,4.7309,4.7309,4.7309,4.7309,4.7309,4.7309,4.7309,4.7309,4.7309,4.7309,4.7309,4.7309,4.7309,4.7309,4.7309,4.7309,4.6787,4.5143,4.5263,4.4915,0.0,0.0,0.0,0.0,0.0,4.7732,4.5745,4.4903,4.3948,4.2518,4.0512,0.0,0.0,4.121,0.0,0.0,0.0,0.0,4.8067,0.0,4.904,4.9114,4.9335,4.9775,5.0406,5.0313,5.055,5.1116,5.1176,5.0947,5.0439,5.0439,5.1292,5.2885,5.5345,5.6811,5.7597,5.8427,5.8433,5.7932,5.8097,5.8805,5.9684,4.1076,4.1308,4.2208,4.452,4.5053,4.5692,0.0,4.8694,4.9303,4.8629,4.7886,4.7404,4.7404,4.7184,4.6893,4.6464,4.6435,4.6301,4.5906,4.5906,4.579,4.55,4.5093,4.4774,4.4552,4.4193,4.3235,0.0,0.0,0.0,0.0,0.0,0.0,0.0,0.0,4.0699,4.2324,4.3612,4.4658,4.5529,4.579,4.5906,4.5906,4.5906,4.5906,4.594,4.6135,4.628,4.6425,4.6789,4.7073,4.7309,4.7309,4.7309,4.7309,4.7309,4.7309,4.7309,4.7309,4.7309,4.7309,4.7309,4.7309,4.7309,4.7309,4.7309,4.7309,4.7309,4.7309,4.7102,4.6431,4.5716,4.5264,0.0,0.0,0.0,0.0,0.0,0.0,4.6807,0.0,4.4382,4.3,4.093,0.0,0.0,0.0,0.0,0.0,0.0,0.0,4.7289,0.0,4.8515,4.8113,4.8553,4.9117,4.9783,5.0072,5.0536,5.1206,5.1206,5.1265,5.1427,5.1828,5.2688,5.3869,5.4896,5.5807,5.6517,5.6089,5.6578,5.7442,5.6746,5.7572,5.9264,4.3816,4.4008,4.4868,4.7248,4.7462,4.7823,4.9325,5.0365,5.0801,5.0312,4.9494,4.8839,4.8677,4.8316,4.7869,4.741,4.7207,4.6841,4.6214,4.6156,4.6098,4.5906,4.5442,0.0,4.518,4.4774,4.4019,4.2905,4.1812,0.0,0.0,0.0,0.0,0.0,4.1453,4.2799,4.3641,4.4716,4.5471,4.5906,4.5906,4.5906,4.5906,4.5906,4.5906,4.5929,4.6057,4.6158,4.6269,4.6679,4.6975,4.7212,4.7287,4.7309,4.7309,4.7309,4.7309,4.7309,4.7309,4.7309,4.7309,4.7309,4.7309,4.7309,4.7309,4.7309,4.7309,4.7309,4.7309,4.7309,4.7309,4.6332,4.5754,4.645,0.0,0.0,0.0,4.7958,0.0,4.6565,4.5364,4.4277,4.3309,4.1473,0.0,0.0,0.0,0.0,0.0,0.0,0.0,0.0,0.0,0.0,0.0,4.8239,4.8917,4.9565,5.041,5.1026,5.1487,5.1696,5.2067,5.2516,5.2977,5.3686,5.4463,5.4463,5.4978,5.5677,5.4727,5.5341,5.6666,5.6009,5.6945,5.8807,4.5732,4.6348,4.7352,4.9332,5.0216,5.0842,5.1456,5.1572,5.1601,5.1572,5.1559,5.1323,5.0739,4.9494,4.8687,4.8687,4.813,4.7491,4.683,4.6789,4.6522,0.0,0.0,4.5877,4.5877,4.5877,4.5529,4.4861,0.0,0.0,4.1028,0.0,4.0205,4.2063,4.2712,4.3699,4.4919,4.5587,4.5877,4.5906,4.5906,4.5906,4.5906,4.5906,4.5906,4.5906,4.5906,4.6023,4.6247,4.6502,4.6734,4.6953,4.7233,4.7309,4.7309,4.7309,4.7309,4.7309,4.7309,4.7309,4.7309,4.7309,4.7309,4.7309,4.7309,4.7309,4.7309,4.7309,4.7309,4.7309,4.7309,4.7279,4.6727,4.5102,0.0,0.0,0.0,0.0,0.0,4.4596,4.3916,4.3579,4.3499,4.2215,0.0,0.0,0.0,0.0,0.0,0.0,0.0,4.6506,4.6468,0.0,4.7395,4.8654,4.9595,5.0207,5.1546,5.2187,5.2217,5.2857,5.3169,5.3198,5.3198,5.3575,5.4192,5.4192,5.461,5.5192,5.5204,5.5204,5.5345,5.6254,5.719,5.815,4.9042,4.9669,5.0266,5.0888,5.1166,5.1369,5.1572,5.1991,5.2294,5.2294,5.263,5.282,5.263,5.1456,5.0527,0.0,4.9478,4.881,0.0,4.7724,4.7201,4.654,4.6522,4.6319,4.5906,4.5906,4.579,4.5587,0.0,0.0,0.0,4.2451,4.3032,4.4048,4.4687,4.5209,4.5587,4.5819,4.5906,4.5906,4.5906,4.5906,4.5906,4.5906,4.5906,4.5906,4.5906,4.5951,4.6023,4.6258,4.638,4.6502,4.6909,4.7138,4.7309,4.7309,4.7309,4.7309,4.7309,4.7309,4.7309,4.7309,4.7309,4.7309,4.7309,4.7309,4.7309,4.7309,4.7309,4.7309,4.7309,4.7309,4.7132,4.6579,4.6955,0.0,0.0,0.0,4.537,4.4544,4.3305,4.2759,4.3441,4.2638,0.0,0.0,0.0,0.0,0.0,0.0,0.0,0.0,4.6609,0.0,4.7405,4.8643,4.9595,5.0207,5.1546,5.2438,5.2917,5.3563,5.3892,5.3892,5.4384,5.467,5.488,5.488,5.4999,5.5162,5.47,5.5072,5.5863,5.5712,5.6374,5.7725,5.0958,5.1527,5.1991,5.1991,5.2152,5.2314,5.2314,5.2659,5.2933,5.2933,5.3268,5.3487,5.3487,5.2791,0.0,5.1465,5.0593,4.9797,4.9122,4.8508,4.784,4.719,4.719,4.687,4.6243,4.6243,0.0,4.5906,4.5093,4.4512,4.4106,4.4512,4.4919,4.5296,4.5703,4.5906,4.5906,4.5906,4.5906,4.5906,4.5906,4.5906,4.5906,4.5906,4.5906,4.5906,4.5906,4.5906,4.594,4.6135,4.6213,4.628,4.6668,4.6887,4.7081,4.7255,4.7309,4.7309,4.7309,4.7309,4.7309,4.7309,4.7309,4.7309,4.7309,4.7309,4.7309,4.7309,4.7309,4.7309,4.7309,4.7309,4.7309,4.7309,4.7309,4.7183,4.6823,0.0,4.439,0.0,0.0,0.0,0.0,4.3653,4.3912,0.0,0.0,0.0,0.0,0.0,0.0,4.6537,4.727,0.0,4.8461,4.9231,5.0092,5.0966,5.2294,5.3294,5.3964,5.4371,5.4581,5.461,5.5012,5.5192,5.5192,5.5192,5.5192,5.5179,5.5012,5.5461,5.6222,5.6269,5.6795,5.7766,5.1704,5.2172,5.2565,0.0,5.3129,0.0,5.3485,5.358,5.3577,5.3456,5.3551,5.3603,5.3516,5.3545,5.3326,5.2714,0.0,0.0,0.0,4.9209,4.8554,4.7881,4.7852,4.755,4.6876,4.6818,4.6493,4.5906,4.5906,4.5906,4.5906,4.5906,4.5906,4.5906,4.5906,4.5906,4.5906,4.5906,4.5906,4.5906,4.5906,4.5906,4.5906,4.5906,4.5906,4.5906,4.5906,4.5906,4.594,4.6124,4.6191,4.6236,4.648,4.6558,4.6646,4.7135,4.7277,4.7287,4.7298,4.7309,4.7309,4.7309,4.7309,4.7309,4.7309,4.7309,4.7309,4.7309,4.7309,4.7309,4.7309,4.7309,4.7309,4.7309,4.7219,4.6879,4.602,0.0,4.3777,0.0,0.0,0.0,0.0,4.5089,4.5494,0.0,0.0,0.0,0.0,0.0,4.6116,4.8221,4.8338,4.8955,5.0207,5.0267,5.0966,5.2366,5.3581,5.4551,5.5192,5.5192,5.5192,5.5192,5.5192,5.5192,5.5192,5.5192,5.5222,5.5341,5.5953,5.6252,5.6492,5.7649,5.8115,5.8278,0.0,0.0,5.2377,5.3806,5.34,5.3029,5.3441,5.4326,5.4411,5.2915,5.4023,5.459,5.3603,5.3952,5.401,5.3355,5.2584,5.1859,5.1182,5.0569,4.9698,4.8554,4.8496,4.8217,4.759,4.7062,4.6493,4.5906,4.5906,4.5906,4.5906,4.5906,4.5906,4.5906,4.5906,4.5906,4.5906,4.5906,4.5906,4.5906,4.5906,4.5906,4.5906,4.5906,4.5906,4.5906,4.5906,4.5906,4.5917,4.5933,4.5956,4.6001,4.6225,4.6291,4.6391,4.6866,4.6997,4.704,4.7244,4.7309,4.7309,4.7309,4.7309,4.7309,4.7309,4.7309,4.7309,4.7309,4.7309,4.7309,4.7309,4.7309,4.7309,4.7309,4.6441,4.5809,4.5899,4.4273,0.0,0.0,4.3568,4.3686,4.5363,4.5695,4.5897,0.0,0.0,0.0,0.0,4.6417,4.7022,4.827,4.8798,4.9445,5.0207,5.0715,5.1894,5.373,5.4059,5.4551,5.5192,5.5192,5.5192,5.5192,5.5192,5.5192,5.5192,5.5192,5.5491,5.5983,5.6132,5.6778,5.7679,5.7995,5.8427,5.9011,5.2516,5.2101,5.1974,5.2995,5.263,5.2316,5.2577,5.3217,5.329,5.2234,5.2994,5.3388,5.2713,5.2952,5.3037,5.2657,5.2607,5.2452,5.2091,5.1203,5.039,4.964,4.932,4.8856,4.8217,4.7845,4.7207,4.6319,4.6051,4.5906,4.5906,4.5906,4.5906,4.5906,4.5906,4.5906,4.5906,4.5906,4.5906,4.5906,4.5906,4.5906,4.5906,4.5906,4.5906,4.5906,4.5906,4.5906,4.5906,4.5906,4.5906,4.5929,4.6023,4.6057,4.6135,4.6491,4.6745,4.6964,4.7244,4.7309,4.7309,4.7309,4.7309,4.7309,4.7309,4.7309,4.7309,4.7309,4.7309,4.7309,4.7309,4.7309,4.7309,4.7309,4.6172,4.5449,4.5839,4.4162,0.0,4.4963,4.4496,4.4695,4.6378,4.6548,4.6612,4.6799,4.6633,0.0,4.7234,4.773,4.8219,4.8749,4.9696,5.0481,5.1116,5.2073,5.3132,5.4209,5.4521,5.485,5.5192,5.5192,5.5192,5.5192,5.5192,5.5192,5.5192,5.5192,5.5611,5.6222,5.6479,5.7214,5.8145,5.8444,5.8786,5.918,5.1507,5.1441,5.1395,5.1694,5.1576,5.1485,5.1566,5.1755,5.1772,5.15,5.1701,5.1819,5.1615,5.1669,5.1696,5.1615,5.2138,5.2381,5.2193,5.0985,5.0342,5.0406,4.9795,4.9249,4.8861,4.8745,4.8135,4.6946,4.6446,4.6197,4.6197,4.6197,4.6138,4.6051,4.6051,4.5993,4.5906,4.5906,4.5906,4.5906,4.5906,4.5906,4.5906,4.5906,4.5906,4.5906,4.5906,4.5906,4.5906,4.5906,4.5906,4.5906,4.5906,4.5906,4.5951,4.6146,4.6491,4.6866,4.7149,4.7277,4.7309,4.7309,4.7369,4.7429,4.7328,4.7369,4.7429,4.7328,4.7309,4.7309,4.7309,4.7309,4.7279,4.7189,4.5933,4.5179,4.5687,0.0,4.369,4.5677,4.5556,4.5885,4.7301,4.7549,4.7608,4.7608,4.7687,4.7986,4.8577,4.9307,4.9726,4.9726,5.078,5.1726,5.2486,5.3641,5.4239,5.4359,5.491,5.5192,5.5192,5.5192,5.5192,5.5192,5.5192,5.5251,5.5341,5.5341,5.579,5.6551,5.7034,5.7649,5.8324,5.8876,5.9099,5.9099,5.1588,5.0789,5.0563,5.2077,5.1511,5.0983,5.1456,5.2486,5.2628,5.0981,5.2192,5.2814,5.1723,5.205,5.2146,5.1642,5.1693,5.1322,5.031,4.9159,4.868,4.908,4.8562,4.8658,4.9524,4.8989,4.835,4.7648,4.7532,4.7515,4.7515,4.7515,4.7201,4.6656,4.6656,4.6377,4.5906,4.5906,4.5906,4.5906,4.5906,4.5906,4.5906,4.5906,4.5906,4.5906,4.5906,4.5906,4.5906,4.5906,4.5906,4.5906,4.5906,4.5906,4.5951,4.6146,4.6258,4.6414,4.6855,4.7117,4.7309,4.7309,4.7728,4.8008,4.7429,4.7728,4.7967,4.7429,4.7309,4.7309,4.7309,4.7309,4.7119,4.654,4.4905,4.4008,4.493,0.0,4.3908,4.5677,4.7009,4.7853,4.8109,4.8648,4.8989,4.8989,4.9452,4.9788,4.9908,5.1079,5.175,5.175,5.1947,5.2636,5.388,5.4089,5.4478,5.5029,5.5162,5.5192,5.5192,5.5192,5.5192,5.5192,5.5192,5.5521,5.6042,5.6042,5.6748,5.7799,5.7919,5.8338,5.8966,5.9069,5.9099,5.9099,5.0461,5.0074,4.9949,5.0789,5.0492,5.0202,5.0432,5.0995,5.1075,5.0182,5.0824,5.119,5.0591,5.0778,5.083,5.0539,5.0268,4.9722,4.8823,4.9527,4.9526,4.8481,4.9095,4.9535,4.971,4.9047,4.8542,4.8275,4.7968,4.7805,4.7805,4.7805,4.7619,4.7346,4.7346,4.6986,4.6406,4.6777,4.6527,4.5935,4.6243,4.6185,4.5906,4.5906,4.6098,4.6348,4.6022,4.6098,4.6348,4.6022,4.5906,4.5906,4.5906,4.6127,4.64,4.6502,4.6706,4.6987,4.7325,4.78,4.819,4.8334,4.8618,4.8768,4.8468,4.8618,4.8738,4.8438,4.8379,4.8278,4.7919,4.7859,4.7489,4.648,4.5234,0.0,0.0,4.5247,4.5476,4.6996,4.8159,4.8828,4.8828,4.9404,4.9793,4.9793,5.0368,5.0907,5.1265,5.1846,5.2546,5.3252,5.3282,5.3743,5.473,5.473,5.488,5.5192,5.5192,5.5401,5.5743,5.5743,5.591,5.6239,5.6239,5.6389,5.6688,5.6688,5.7244,5.8085,5.8085,5.8517,5.9099,5.9099,5.9099,5.9099,4.954,4.959,4.959,4.959,4.969,4.9791,4.9791,4.9791,4.9841,4.9983,4.9866,4.9791,4.9791,4.9791,4.9741,4.9615,4.9229,4.8727,4.8159,5.0048,5.0186,4.797,4.9287,4.9776,4.913,4.8607,4.8281,4.8134,4.7688,4.7592,4.7832,4.7832,4.7905,4.8026,4.8026,4.7496,4.6696,4.7456,4.7073,4.601,4.6564,4.6522,4.6098,4.6098,4.6406,4.6772,4.6446,4.665,4.6946,4.6516,4.6342,4.6342,4.6342,4.665,4.7033,4.7033,4.7385,4.7829,4.8078,4.8494,4.8967,4.922,4.9516,4.9696,4.9535,4.9756,4.9935,4.9786,4.9756,4.9565,4.9086,4.8835,4.8297,4.6969,0.0,0.0,0.0,4.654,4.7029,4.8368,4.9247,4.9756,4.9756,5.044,5.0907,5.0907,5.1505,5.2115,5.2636,5.2815,5.3354,5.4389,5.4418,5.467,5.5179,5.5341,5.5431,5.5431,5.5581,5.591,5.6402,5.6402,5.6658,5.7094,5.7094,5.7184,5.7334,5.7334,5.7739,5.8324,5.8324,5.8637,5.9099,5.9099,5.9189,5.9338,4.969,4.959,4.959,4.959,5.0017,5.0352,5.0352,5.0352,5.0528,5.1113,5.0695,5.0352,5.0352,5.0352,5.0126,4.964,4.9565,4.9305,4.8768,4.9501,4.9104,4.7257,4.7819,4.7947,4.7401,4.7347,4.7033,4.6487,4.6419,4.6949,4.7982,4.7982,4.8222,4.8629,4.8629,4.7698,4.6216,4.7335,4.7152,4.6127,4.6621,4.676,4.6743,4.6743,4.6772,4.6888,4.7445,4.7689,4.7718,4.7677,4.766,4.766,4.766,4.7677,4.7747,4.7747,4.8154,4.8627,4.8804,4.8869,4.8967,4.922,5.0193,5.0888,5.0267,5.1098,5.1798,5.1187,5.1068,5.1038,5.1008,5.0488,4.965,4.8356,0.0,0.0,4.7219,4.7249,4.7728,4.9078,5.0301,5.1068,5.1068,5.2217,5.2977,5.2977,5.3593,5.4,5.4059,5.464,5.5012,5.5119,5.5132,5.5162,5.5192,5.5833,5.6132,5.6132,5.6688,5.6987,5.7047,5.7047,5.7077,5.7094,5.7094,5.744,5.8038,5.8038,5.8427,5.9039,5.9039,5.9069,5.9099,5.9099,5.9488,6.004,5.0142,5.0393,5.0661,5.0661,5.082,5.0946,5.0946,5.0946,5.1038,5.1264,5.1113,5.0946,5.0946,5.0603,5.0327,5.0101,4.9791,4.938,4.8843,4.9048,4.8911,4.829,4.7427,4.7167,4.769,4.7704,4.7582,4.7352,4.7352,4.758,4.8006,4.8326,4.8808,4.9367,4.9334,4.8957,4.8374,4.8786,4.8276,4.721,4.775,4.7758,4.7433,4.7433,4.7654,4.7961,4.7852,4.8055,4.8304,4.7939,4.7805,4.7805,4.7805,4.8055,4.8449,4.8868,4.9449,4.997,5.016,5.0192,5.0418,5.1244,5.1828,5.2162,5.2091,5.2456,5.2737,5.2498,5.2438,5.2306,5.1917,5.1265,5.041,4.9127,0.0,4.8974,4.8577,4.9595,5.0511,5.1031,5.1887,5.2438,5.2438,5.3264,5.3982,5.4413,5.467,5.4999,5.5431,5.5671,5.582,5.582,5.6179,5.6209,5.582,5.6449,5.6748,5.6748,5.6987,5.7334,5.7709,5.7709,5.7949,5.8351,5.8351,5.8471,5.8726,5.8726,5.8876,5.9129,5.9548,5.9727,5.9757,6.0192,6.0492,6.0715,5.072,5.1013,5.1289,5.1289,5.144,5.1565,5.1565,5.1565,5.1599,5.1774,5.1666,5.1565,5.1565,5.1172,5.087,5.0695,5.0167,4.969,4.933,4.8994,4.8774,4.8671,4.7317,4.684,4.7467,4.731,4.7125,4.6928,4.6928,4.7108,4.7467,4.7838,4.844,4.9239,4.9183,4.8969,4.865,4.9007,4.8446,4.7384,4.7934,4.7827,4.7348,4.7916,4.8279,4.8529,4.888,4.925,4.9569,4.9117,4.8972,4.8972,4.8972,4.9291,4.9702,5.0162,5.061,5.1054,5.142,5.1487,5.1683,5.2482,5.2899,5.3171,5.3356,5.3616,5.3827,5.3827,5.3827,5.3695,5.3246,5.2594,5.1786,5.0684,5.087,5.0918,5.0295,5.154,5.2516,5.2516,5.3097,5.3605,5.3815,5.4431,5.5102,5.576,5.5611,5.57,5.6162,5.6372,5.6492,5.6492,5.7107,5.7214,5.6808,5.7214,5.7423,5.7423,5.7633,5.7962,5.8427,5.8427,5.8667,5.9099,5.9099,5.9099,5.9099,5.9099,5.9099,5.9159,5.9831,6.01,6.019,6.0851,6.1239,6.1419,5.1414,5.1314,5.1314,5.1314,5.1749,5.2126,5.2126,5.2126,5.2285,5.2837,5.2435,5.2126,5.2126,5.2101,5.1875,5.1364,5.077,5.0402,5.0402,4.9405,4.8526,4.7933,4.7375,4.6848,4.6311,4.5773,4.5221,4.4629,4.4614,4.5196,4.6322,4.6296,4.6912,4.8001,4.8015,4.7371,4.6395,4.7508,4.7343,4.6356,4.6812,4.669,4.6414,4.8154,4.8466,4.8358,5.0758,5.1588,5.1588,5.1588,5.1588,5.1588,5.1588,5.1588,5.1588,5.1588,5.1588,5.1746,5.2423,5.2597,5.2581,5.2444,5.3118,5.3818,5.3818,5.4525,5.5209,5.5222,5.5222,5.5222,5.5222,5.467,5.4012,5.3336,5.3216,5.2977,5.2306,5.2797,5.3228,5.3216,5.3803,5.4478,5.5162,5.5803,5.6462,5.7064,5.6551,5.6222,5.6222,5.6778,5.7094,5.7094,5.7769,5.8115,5.8115,5.8115,5.8115,5.8115,5.8786,5.9099,5.9099,5.9099,5.9099,5.9099,5.9099,5.9129,5.9129,5.9129,5.9129,5.9189,5.9861,6.013,6.019,6.0864,6.1553,6.2121,5.19,5.2159,5.241,5.241,5.2561,5.2661,5.2661,5.2661,5.2711,5.2887,5.2744,5.2661,5.2661,5.2327,5.2051,5.1875,5.1348,5.0845,5.0427,4.9741,4.928,4.9088,4.8168,4.7591,4.7431,4.728,4.7104,4.6913,4.6537,4.6527,4.6876,4.6869,4.7305,4.8075,4.8022,4.808,4.8195,4.8068,4.7797,4.7522,4.7649,4.812,4.8792,4.9315,4.9924,5.0621,5.1342,5.1588,5.1588,5.1588,5.1588,5.1588,5.1588,5.1588,5.1588,5.1588,5.1933,5.2352,5.2539,5.3252,5.3854,5.3535,5.366,5.3974,5.44,5.5045,5.5636,5.5842,5.6239,5.6539,5.6539,5.603,5.5534,5.5324,5.5294,5.5234,5.5012,5.5174,5.5474,5.588,5.5329,5.5329,5.6419,5.591,5.6149,5.7679,5.762,5.7334,5.6868,5.7453,5.7799,5.7799,5.8457,5.8786,5.8786,5.8786,5.8786,5.8786,5.9009,5.9099,5.9129,5.9578,5.9548,5.9129,5.9608,5.9801,5.9801,5.9801,6.0086,6.0581,6.1224,6.1507,6.1583,6.2255,6.2614,6.2794,5.241,5.2686,5.2895,5.2895,5.2895,5.2895,5.2895,5.2895,5.2895,5.2895,5.2895,5.2895,5.2895,5.2611,5.241,5.241,5.1925,5.1373,5.0795,5.0243,4.9916,4.9916,4.9063,4.8485,4.8259,4.8033,4.7908,4.7908,4.735,4.7099,4.7089,4.6877,4.7004,4.739,4.7345,4.7543,4.7916,4.7516,4.733,4.733,4.733,4.7638,4.8188,4.8872,4.9741,5.0706,5.1395,5.1952,5.2356,5.2356,5.2356,5.2356,5.2356,5.2356,5.2356,5.2356,5.263,5.302,5.3281,5.3907,5.4485,5.4484,5.4558,5.4759,5.51,5.5581,5.6034,5.6335,5.6685,5.698,5.7081,5.6808,5.6551,5.6551,5.6551,5.6551,5.6551,5.6551,5.6688,5.7077,5.6406,5.6346,5.7393,5.6795,5.6842,5.7995,5.8367,5.8188,5.753,5.8128,5.8517,5.8517,5.8876,5.9099,5.9099,5.9099,5.9099,5.9099,5.9099,5.9249,5.9518,5.9921,5.9891,5.9518,6.0206,6.034,6.013,6.0386,6.0745,6.118,6.1852,6.2091,6.2195,6.2854,6.3108,6.3108,5.2895,5.2895,5.2895,5.2895,5.2895,5.2895,5.2895,5.2895,5.2895,5.2895,5.2895,5.2895,5.2895,5.2895,5.2895,5.2895,5.241,5.19,5.1414,5.082,5.0452,5.0402,4.9941,4.943,4.8894,4.8335,4.8043,4.8043,4.75,4.7224,4.7174,4.6687,4.6411,4.6361,4.6411,4.6436,4.6436,4.6386,4.6361,4.6361,4.6311,4.6084,4.5984,4.7566,4.8722,4.9692,5.1235,5.2559,5.3574,5.3516,5.3545,5.3603,5.3603,5.3632,5.3661,5.3661,5.3661,5.3807,5.4416,5.4619,5.4793,5.5345,5.5723,5.5926,5.5823,5.6083,5.6423,5.673,5.6855,5.6948,5.7221,5.7287,5.7287,5.7287,5.7287,5.7287,5.7287,5.7214,5.7214,5.7274,5.7154,5.7393,5.8115,5.8175,5.8145,5.8085,5.8726,5.8816,5.8205,5.8756,5.9099,5.9099,5.9159,5.9189,5.9189,5.9249,5.9249,5.9189,5.9189,5.9548,6.019,6.025,6.025,6.022,6.0894,6.0835,6.034,6.0954,6.121,6.1329,6.1942,6.2181,6.2241,6.2854,6.3108,6.3108,5.2895,5.2895,5.2895,5.2895,5.2895,5.2895,5.2895,5.2895,5.2895,5.2895,5.2895,5.2895,5.2895,5.2895,5.2895,5.2895,5.241,5.2051,5.1925,5.1398,5.0896,5.0427,5.0277,4.9992,4.9455,4.9289,4.9238,4.9238,4.8702,4.8184,4.7716,4.7616,4.734,4.6948,4.7365,4.7541,4.7516,4.7099,4.6923,4.6898,4.6461,4.7052,4.8192,4.8588,5.0334,5.2533,5.2393,5.3174,5.4213,5.3691,5.3836,5.4271,5.4271,5.4619,5.4996,5.4996,5.4996,5.5026,5.5171,5.5577,5.6012,5.6157,5.659,5.6788,5.5987,5.6257,5.6828,5.7385,5.7892,5.8343,5.8626,5.868,5.868,5.868,5.868,5.868,5.868,5.8218,5.8068,5.859,5.7723,5.7573,5.8756,5.8876,5.8667,5.8145,5.8726,5.9039,5.8876,5.9026,5.9099,5.9099,5.9608,5.9891,5.9891,6.0402,6.0416,5.9891,5.9891,6.0236,6.088,6.1433,6.1373,6.091,6.1583,6.1792,6.1687,6.1822,6.2181,6.2674,6.2824,6.2884,6.2884,6.3048,6.3108,6.3108,5.2895,5.2895,5.2895,5.2895,5.2895,5.2895,5.2895,5.2895,5.2895,5.2895,5.2895,5.2895,5.2895,5.2895,5.2895,5.2895,5.2636,5.2485,5.2485,5.1975,5.1548,5.1205,5.0971,5.0695,5.0435,5.041,5.0142,4.959,4.9053,4.8626,4.8309,4.8033,4.7741,4.749,4.7767,4.7908,4.7867,4.7591,4.749,4.7465,4.7164,4.7628,4.841,4.841,4.9801,5.1767,5.2045,5.333,5.488,5.4532,5.4648,5.4938,5.4938,5.5155,5.5403,5.5403,5.5403,5.5461,5.578,5.6128,5.6477,5.6781,5.7071,5.7157,5.6641,5.6799,5.7186,5.7655,5.8016,5.8349,5.8623,5.88,5.8896,5.8896,5.9018,5.9099,5.9099,5.8786,5.8697,5.9069,5.8471,5.8321,5.9039,5.9099,5.9099,5.9069,5.9368,5.9578,5.9578,5.9578,5.9578,5.9578,5.9921,6.025,6.0565,6.091,6.106,6.1058,6.0715,6.0924,6.1583,6.1942,6.1912,6.1613,6.2285,6.2405,6.2121,6.2465,6.2794,6.3108,6.3108,6.3108,6.3108,6.3108,6.3108,6.3108,5.2895,5.2895,5.2895,5.2895,5.2895,5.2895,5.2895,5.2895,5.2895,5.2895,5.2895,5.2895,5.2895,5.2895,5.2895,5.2895,5.2895,5.2895,5.2895,5.2485,5.2201,5.2101,5.1674,5.1389,5.1289,5.1289,5.0837,4.9907,4.9455,4.9145,4.8944,4.851,4.8234,4.8058,4.8159,4.8184,4.8184,4.8083,4.8058,4.8033,4.7942,4.7958,4.8058,4.8058,4.8891,5.0243,5.1426,5.3358,5.5403,5.5403,5.5461,5.5577,5.5577,5.5635,5.5722,5.5722,5.5722,5.5852,5.639,5.6535,5.6651,5.7187,5.7303,5.7303,5.7303,5.7303,5.7388,5.7739,5.7795,5.7906,5.8238,5.8513,5.8751,5.8924,5.9129,5.9279,5.9279,5.9279,5.9219,5.9129,5.9099,5.9099,5.9099,5.9099,5.9368,6.004,5.998,6.004,6.025,6.016,6.016,6.028,6.037,6.0715,6.1269,6.1389,6.1732,6.2241,6.1702,6.1732,6.2271,6.2271,6.2271,6.2315,6.2854,6.2794,6.2301,6.2854,6.3108,6.3108,6.3108,6.3108,6.3108,6.3108,6.3108,6.3108,5.2895,5.2895,5.2895,5.2895,5.2895,5.2895,5.2895,5.2895,5.2895,5.2895,5.2895,5.2895,5.2895,5.2895,5.2895,5.2895,5.2895,5.2895,5.2895,5.282,5.2586,5.2126,5.2026,5.1774,5.1314,5.1289,5.1214,5.1063,5.0987,5.046,4.949,4.9875,4.9565,4.8718,4.9179,4.9364,4.9339,4.8878,4.8693,4.8626,4.8109,4.8209,4.8693,4.8693,4.9765,5.1359,5.2134,5.3679,5.5403,5.5403,5.578,5.6244,5.6244,5.6622,5.7042,5.7042,5.7042,5.7071,5.7158,5.7187,5.7216,5.7274,5.7303,5.7303,5.7303,5.7303,5.7388,5.7739,5.7795,5.7961,5.8513,5.868,5.8968,5.9795,5.9953,5.9951,5.9951,5.9951,5.9741,5.9189,5.9099,5.9099,5.9099,5.9099,5.9368,6.004,5.9548,5.9757,6.091,6.0429,6.037,6.094,6.1523,6.1882,6.1972,6.2555,6.2884,6.2944,6.2854,6.2884,6.2944,6.2944,6.2944,6.2974,6.3063,6.3048,6.2974,6.3063,6.3108,6.3108,6.3108,6.3108,6.3108,6.3108,6.3108,6.3108,5.2895,5.2895,5.2895,5.2895,5.2895,5.2895,5.2895,5.2895,5.2895,5.2895,5.2895,5.2895,5.2895,5.2895,5.2895,5.2895,5.2895,5.2895,5.2895,5.2895,5.2795,5.2561,5.2561,5.2435,5.2201,5.2184,5.2184,5.2184,5.1574,5.087,5.0051,5.0277,4.9992,4.9254,4.949,4.959,4.9565,4.9355,4.9254,4.9229,4.8962,4.9028,4.9254,4.9254,5.0174,5.173,5.3487,5.5138,5.6461,5.6461,5.6665,5.6883,5.6883,5.71,5.7303,5.7303,5.7303,5.739,5.7768,5.7855,5.7942,5.8319,5.8435,5.8435,5.8435,5.8435,5.8246,5.7647,5.782,5.8167,5.8435,5.8925,5.9404,5.9796,6.0151,6.0242,5.9884,6.0305,6.0565,6.0252,6.0222,6.0222,6.0222,6.0222,6.0505,6.1178,6.0924,6.1044,6.1642,6.1373,6.1343,6.1642,6.1942,6.2285,6.2644,6.2944,6.3108,6.3108,6.3108,6.3108,6.3108,6.3108,6.3108,6.3108,6.3108,6.3108,6.3108,6.3108,6.3108,6.3108,6.3108,6.3108,6.3108,6.3108,6.3108,6.3108]},{"header":{"parameterUnit":"m.s-1","parameterCategory":1,"la1":30.6,"la2":28.766,"lo1":-90.7593,"lo2":-88.6598,"dy":0.0162,"dx":0.0183,"nx":116,"ny":114,"refTime":"2023-03-12T06:00:00:Z","depth":0,"parameterNumber":3,"parameterNumberName":"V-component_of_WINDS"},"data":[0.0,0.0,0.0,0.0,0.0,0.0,0.0,0.0,0.0,0.0,0.0,0.0,0.0,0.0,0.0,0.0,0.0,0.0,0.0,0.0,0.0,0.0,0.0,0.0,0.0,0.0,0.0,0.0,0.0,0.0,0.0,0.0,0.0,0.0,0.0,0.0,0.0,0.0,0.0,0.0,0.0,0.0,0.0,0.0,0.0,0.0,0.0,0.0,0.0,0.0,0.0,0.0,0.0,0.0,0.0,0.0,0.0,0.0,0.0,0.0,0.0,0.0,0.0,0.0,0.0,0.0,0.0,0.0,0.0,0.0,0.0,0.0,0.0,0.0,0.0,0.0,0.0,0.0,0.0,0.0,0.0,0.0,0.0,0.0,0.0,0.0,0.0,0.0,0.0,0.0,0.0,0.0,0.0,0.0,0.0,0.0,0.0,0.0,0.0,0.0,0.0,0.0,0.0,0.0,0.0,0.0,0.0,0.0,0.0,0.0,0.0,0.0,0.0,0.0,0.0,0.0,0.0,0.0,0.0,0.0,0.0,0.0,0.0,0.0,0.0,0.0,0.0,0.0,0.0,0.0,0.0,0.0,0.0,0.0,0.0,0.0,0.0,0.0,0.0,0.0,0.0,0.0,0.0,0.0,0.0,0.0,0.0,0.0,0.0,0.0,0.0,0.0,0.0,0.0,0.0,0.0,0.0,0.0,0.0,0.0,0.0,0.0,0.0,0.0,0.0,0.0,0.0,0.0,0.0,0.0,0.0,0.0,0.0,0.0,0.0,0.0,0.0,0.0,0.0,0.0,0.0,0.0,0.0,0.0,0.0,0.0,0.0,0.0,0.0,0.0,0.0,0.0,0.0,0.0,0.0,0.0,0.0,0.0,0.0,0.0,0.0,0.0,0.0,0.0,0.0,0.0,0.0,0.0,0.0,0.0,0.0,0.0,0.0,0.0,0.0,0.0,0.0,0.0,0.0,0.0,0.0,0.0,0.0,0.0,0.0,0.0,0.0,0.0,0.0,0.0,0.0,0.0,0.0,0.0,0.0,0.0,0.0,0.0,0.0,0.0,0.0,0.0,0.0,0.0,0.0,0.0,0.0,0.0,0.0,0.0,0.0,0.0,0.0,0.0,0.0,0.0,0.0,0.0,0.0,0.0,0.0,0.0,0.0,0.0,0.0,0.0,0.0,0.0,0.0,0.0,0.0,0.0,0.0,0.0,0.0,0.0,0.0,0.0,0.0,0.0,0.0,0.0,0.0,0.0,0.0,0.0,0.0,0.0,0.0,0.0,0.0,0.0,0.0,0.0,0.0,0.0,0.0,0.0,0.0,0.0,0.0,0.0,0.0,0.0,0.0,0.0,0.0,0.0,0.0,0.0,0.0,0.0,0.0,0.0,0.0,0.0,0.0,0.0,0.0,0.0,0.0,0.0,0.0,0.0,0.0,0.0,0.0,0.0,0.0,0.0,0.0,0.0,0.0,0.0,0.0,0.0,0.0,0.0,0.0,0.0,0.0,0.0,0.0,0.0,0.0,0.0,0.0,0.0,0.0,0.0,0.0,0.0,0.0,0.0,0.0,0.0,0.0,0.0,0.0,0.0,0.0,0.0,0.0,0.0,0.0,0.0,0.0,0.0,0.0,0.0,0.0,0.0,0.0,0.0,0.0,0.0,0.0,0.0,0.0,0.0,0.0,0.0,0.0,0.0,0.0,0.0,0.0,0.0,0.0,0.0,0.0,0.0,0.0,0.0,0.0,0.0,0.0,0.0,0.0,0.0,0.0,0.0,0.0,0.0,0.0,0.0,0.0,0.0,0.0,0.0,0.0,0.0,0.0,0.0,0.0,0.0,0.0,0.0,0.0,0.0,0.0,0.0,0.0,0.0,0.0,0.0,0.0,0.0,0.0,0.0,0.0,0.0,0.0,0.0,0.0,0.0,0.0,0.0,0.0,0.0,0.0,0.0,0.0,0.0,0.0,0.0,0.0,0.0,0.0,0.0,0.0,0.0,0.0,0.0,0.0,0.0,0.0,0.0,0.0,0.0,0.0,0.0,0.0,0.0,0.0,0.0,0.0,0.0,0.0,0.0,0.0,0.0,0.0,0.0,0.0,0.0,0.0,0.0,0.0,0.0,0.0,0.0,0.0,0.0,0.0,0.0,0.0,0.0,0.0,0.0,0.0,0.0,0.0,0.0,0.0,0.0,0.0,0.0,0.0,0.0,0.0,0.0,0.0,0.0,0.0,0.0,0.0,0.0,0.0,0.0,0.0,0.0,0.0,0.0,0.0,0.0,0.0,0.0,0.0,0.0,0.0,0.0,0.0,0.0,0.0,0.0,0.0,0.0,0.0,0.0,0.0,0.0,0.0,0.0,0.0,0.0,0.0,0.0,0.0,0.0,0.0,0.0,0.0,0.0,0.0,0.0,0.0,0.0,0.0,0.0,0.0,0.0,0.0,0.0,0.0,0.0,0.0,0.0,0.0,0.0,0.0,0.0,0.0,0.0,0.0,0.0,0.0,0.0,0.0,0.0,0.0,0.0,0.0,0.0,0.0,0.0,0.0,0.0,0.0,0.0,0.0,0.0,0.0,0.0,0.0,0.0,0.0,0.0,0.0,0.0,0.0,0.0,0.0,0.0,0.0,0.0,0.0,0.0,0.0,0.0,0.0,0.0,0.0,0.0,0.0,0.0,0.0,0.0,0.0,0.0,0.0,0.0,0.0,0.0,0.0,0.0,0.0,0.0,0.0,0.0,0.0,0.0,0.0,0.0,0.0,0.0,0.0,0.0,0.0,0.0,0.0,0.0,0.0,0.0,0.0,0.0,0.0,0.0,0.0,0.0,0.0,0.0,0.0,0.0,0.0,0.0,0.0,0.0,0.0,0.0,0.0,0.0,0.0,0.0,0.0,0.0,0.0,0.0,0.0,0.0,0.0,0.0,0.0,0.0,0.0,0.0,0.0,0.0,0.0,0.0,0.0,0.0,0.0,0.0,0.0,0.0,0.0,0.0,0.0,0.0,0.0,0.0,0.0,0.0,0.0,0.0,0.0,0.0,0.0,0.0,0.0,0.0,0.0,0.0,0.0,0.0,0.0,0.0,0.0,0.0,0.0,0.0,0.0,0.0,0.0,0.0,0.0,0.0,0.0,0.0,0.0,0.0,0.0,0.0,0.0,0.0,0.0,0.0,0.0,0.0,0.0,0.0,0.0,0.0,0.0,0.0,0.0,0.0,0.0,0.0,0.0,0.0,0.0,0.0,0.0,0.0,0.0,0.0,0.0,0.0,0.0,0.0,0.0,0.0,0.0,0.0,0.0,0.0,0.0,0.0,0.0,0.0,0.0,0.0,0.0,0.0,0.0,0.0,0.0,0.0,0.0,0.0,0.0,0.0,0.0,0.0,0.0,0.0,0.0,0.0,0.0,0.0,0.0,0.0,0.0,0.0,0.0,0.0,0.0,0.0,0.0,0.0,0.0,0.0,0.0,0.0,0.0,0.0,0.0,0.0,0.0,0.0,0.0,0.0,0.0,0.0,0.0,0.0,0.0,0.0,0.0,0.0,0.0,0.0,0.0,0.0,0.0,0.0,0.0,0.0,0.0,0.0,0.0,0.0,0.0,0.0,0.0,0.0,0.0,0.0,0.0,0.0,0.0,0.0,0.0,0.0,0.0,0.0,0.0,0.0,0.0,0.0,0.0,0.0,0.0,0.0,0.0,0.0,0.0,0.0,0.0,0.0,0.0,0.0,0.0,0.0,0.0,0.0,0.0,0.0,0.0,0.0,0.0,0.0,0.0,0.0,0.0,0.0,0.0,0.0,0.0,0.0,0.0,0.0,0.0,0.0,0.0,0.0,0.0,0.0,0.0,0.0,0.0,0.0,0.0,0.0,0.0,0.0,0.0,0.0,0.0,0.0,0.0,0.0,0.0,0.0,0.0,0.0,0.0,0.0,0.0,0.0,0.0,0.0,0.0,0.0,0.0,0.0,0.0,0.0,0.0,0.0,0.0,0.0,0.0,0.0,0.0,0.0,0.0,0.0,0.0,0.0,0.0,0.0,0.0,0.0,0.0,0.0,0.0,0.0,0.0,0.0,0.0,0.0,0.0,0.0,0.0,0.0,0.0,0.0,0.0,0.0,0.0,0.0,0.0,0.0,0.0,0.0,0.0,0.0,0.0,0.0,0.0,0.0,0.0,0.0,0.0,0.0,0.0,0.0,0.0,0.0,0.0,0.0,0.0,0.0,0.0,0.0,0.0,0.0,0.0,0.0,0.0,0.0,0.0,0.0,0.0,0.0,0.0,0.0,0.0,0.0,0.0,0.0,0.0,0.0,0.0,0.0,0.0,0.0,0.0,0.0,0.0,0.0,0.0,0.0,0.0,0.0,0.0,0.0,0.0,0.0,0.0,0.0,0.0,0.0,0.0,0.0,0.0,0.0,0.0,0.0,0.0,0.0,0.0,0.0,0.0,0.0,0.0,0.0,0.0,0.0,0.0,0.0,0.0,0.0,0.0,0.0,0.0,0.0,0.0,0.0,0.0,0.0,0.0,0.0,0.0,0.0,0.0,0.0,0.0,0.0,0.0,0.0,0.0,0.0,0.0,0.0,0.0,0.0,0.0,0.0,0.0,0.0,0.0,0.0,0.0,0.0,0.0,0.0,0.0,0.0,0.0,0.0,0.0,0.0,0.0,0.0,0.0,0.0,0.0,0.0,0.0,0.0,0.0,0.0,0.0,0.0,0.0,0.0,0.0,0.0,0.0,0.0,0.0,0.0,0.0,0.0,0.0,0.0,0.0,0.0,0.0,0.0,0.0,0.0,0.0,0.0,0.0,0.0,0.0,0.0,0.0,0.0,0.0,0.0,0.0,0.0,0.0,0.0,0.0,0.0,0.0,0.0,0.0,0.0,0.0,0.0,0.0,0.0,0.0,0.0,0.0,0.0,0.0,0.0,0.0,0.0,0.0,0.0,0.0,0.0,0.0,0.0,0.0,0.0,0.0,0.0,0.0,0.0,0.0,0.0,0.0,0.0,0.0,0.0,0.0,0.0,0.0,0.0,0.0,0.0,0.0,0.0,0.0,0.0,0.0,0.0,0.0,0.0,0.0,0.0,0.0,0.0,0.0,0.0,0.0,0.0,0.0,0.0,0.0,0.0,0.0,0.0,0.0,0.0,0.0,0.0,0.0,0.0,0.0,0.0,0.0,0.0,0.0,0.0,0.0,0.0,0.0,0.0,0.0,0.0,0.0,0.0,0.0,0.0,0.0,0.0,0.0,0.0,0.0,0.0,0.0,0.0,0.0,0.0,0.0,0.0,0.0,0.0,0.0,0.0,0.0,0.0,0.0,0.0,0.0,0.0,0.0,0.0,0.0,0.0,0.0,0.0,0.0,0.0,0.0,0.0,0.0,0.0,0.0,0.0,0.0,0.0,0.0,0.0,0.0,0.0,0.0,0.0,0.0,0.0,0.0,0.0,0.0,0.0,0.0,0.0,0.0,0.0,0.0,0.0,0.0,0.0,0.0,0.0,0.0,0.0,0.0,0.0,0.0,0.0,0.0,0.0,0.0,0.0,0.0,0.0,0.0,0.0,0.0,0.0,0.0,0.0,0.0,0.0,0.0,0.0,0.0,0.0,0.0,0.0,0.0,0.0,0.0,0.0,0.0,0.0,0.0,0.0,0.0,0.0,0.0,0.0,0.0,0.0,0.0,0.0,0.0,0.0,0.0,0.0,0.0,0.0,0.0,0.0,0.0,0.0,0.0,0.0,0.0,0.0,0.0,0.0,0.0,0.0,0.0,0.0,0.0,0.0,0.0,0.0,0.0,0.0,0.0,0.0,0.0,0.0,0.0,0.0,0.0,0.0,0.0,0.0,0.0,0.0,0.0,0.0,0.0,0.0,0.0,0.0,0.0,0.0,0.0,0.0,0.0,0.0,0.0,0.0,0.0,0.0,0.0,0.0,0.0,0.0,0.0,0.0,0.0,0.0,0.0,0.0,0.0,0.0,0.0,0.0,0.0,0.0,0.0,0.0,0.0,0.0,0.0,0.0,0.0,0.0,0.0,0.0,0.0,0.0,0.0,0.0,0.0,0.0,0.0,0.0,0.0,0.0,0.0,0.0,1.2549,0.0,0.0,0.0,0.0,0.0,0.0,0.0,0.0,0.0,0.0,0.0,0.0,0.0,0.0,0.0,0.0,0.0,0.0,0.0,0.0,0.0,0.0,0.0,0.0,0.0,0.0,0.0,0.0,0.0,0.0,0.0,0.0,0.0,0.0,0.0,0.0,0.0,0.0,0.0,0.0,0.0,0.0,0.0,0.0,0.0,0.0,0.0,0.0,0.0,0.0,0.0,0.0,0.0,0.0,0.0,0.0,0.0,0.0,0.0,0.0,0.0,0.0,0.0,0.0,0.0,0.0,0.0,0.0,0.0,0.0,0.0,0.0,0.0,0.0,0.0,0.0,0.0,0.0,0.0,0.0,0.0,0.0,0.0,0.0,0.0,0.0,0.0,0.0,0.0,0.0,0.0,0.0,0.0,0.0,0.0,0.0,0.0,0.0,0.0,0.0,0.0,0.0,0.0,0.0,0.0,0.0,0.0,0.0,0.0,0.0,0.0,0.0,0.0,0.0,0.0,0.0,1.3318,0.0,0.0,0.0,0.0,0.0,0.0,0.0,0.0,0.0,0.0,0.0,0.0,0.0,0.0,0.0,0.0,0.0,0.0,0.0,0.0,0.0,0.0,0.0,0.0,0.0,0.0,0.0,0.0,0.0,0.0,0.0,0.0,0.0,0.0,0.0,0.0,0.0,0.0,0.0,0.0,0.0,0.0,0.0,0.0,0.0,0.0,0.0,0.0,0.0,0.0,0.0,0.0,0.0,0.0,0.0,0.0,0.0,0.0,0.0,0.0,0.0,0.0,0.0,0.0,0.0,0.0,0.0,0.0,0.0,0.0,0.0,0.0,0.0,0.0,0.0,0.0,0.0,0.0,0.0,0.0,0.0,0.0,0.0,0.0,0.0,0.0,0.0,0.0,0.0,0.0,0.0,0.0,0.0,0.0,0.0,0.0,0.0,0.0,0.0,0.0,0.0,0.0,0.0,0.0,0.0,0.0,0.0,0.0,1.7719,1.8033,1.8473,1.8557,1.8072,1.7056,1.6121,1.4979,1.3794,1.3699,0.0,0.0,0.0,0.0,0.0,0.0,0.0,0.0,0.0,0.0,0.0,0.0,0.0,0.0,0.0,0.0,0.0,0.0,0.0,0.0,0.0,0.0,0.0,0.0,0.0,0.0,0.0,0.0,0.0,0.0,0.0,0.0,0.0,0.0,0.0,0.0,0.0,0.0,1.8863,1.9398,1.9694,1.9717,1.8315,0.0,0.0,0.0,0.0,0.0,0.0,0.0,0.0,0.0,0.0,0.0,0.0,0.0,0.0,0.0,0.0,0.0,0.0,0.0,0.0,0.0,0.0,0.0,0.0,0.0,0.0,0.0,0.0,0.0,0.0,0.0,0.0,0.0,0.0,0.0,0.0,0.0,0.0,0.0,0.0,0.0,0.0,0.0,1.271,1.2786,0.0,0.0,0.0,0.0,0.0,0.0,0.0,0.0,0.0,0.0,0.0,0.0,0.0,1.6141,1.6921,1.729,1.8243,1.9797,2.0594,2.1032,2.1114,2.1589,2.1719,2.1544,2.1394,0.0,1.4938,1.4475,0.0,0.0,0.0,0.0,0.0,0.0,0.0,0.0,0.0,0.0,0.0,0.0,0.0,0.0,0.0,0.0,0.0,0.0,0.0,0.0,0.0,0.0,0.0,0.0,0.0,0.0,0.0,0.0,0.0,0.0,0.0,0.0,0.0,0.0,0.0,0.0,1.9901,2.0855,2.1941,2.2184,2.2386,2.2506,2.1773,2.0532,1.8987,1.8546,0.0,0.0,0.0,0.0,0.0,0.0,0.0,0.0,0.0,0.0,0.0,0.0,0.0,0.0,0.0,0.0,0.0,0.0,0.0,0.0,0.0,0.0,0.0,0.0,0.0,0.0,0.0,0.0,0.0,0.0,0.0,0.0,0.0,0.0,0.0,0.0,0.0,0.0,0.0,1.2273,1.2779,1.2612,1.2883,1.2881,0.0,0.0,0.0,0.0,0.0,0.0,0.0,0.0,0.0,1.7314,1.8502,1.9395,1.9986,2.0302,2.1422,2.3288,2.347,2.3987,2.4751,2.4757,2.4386,2.3745,2.3745,2.2239,1.9635,1.816,1.7075,1.626,0.0,0.0,0.0,0.0,1.3894,1.3834,0.0,0.0,0.0,0.0,0.0,0.0,0.0,0.0,0.0,0.0,0.0,0.0,0.0,0.0,0.0,1.6873,0.0,0.0,0.0,0.0,0.0,0.0,0.0,0.0,0.0,0.0,0.0,0.0,2.1937,2.3033,2.4355,2.4446,2.4557,2.4661,2.4538,2.3128,2.0766,2.0228,1.9326,0.0,0.0,0.0,0.0,0.0,0.0,0.0,0.0,0.0,0.0,0.0,0.0,0.0,0.0,0.0,0.0,0.0,0.0,0.0,0.0,0.0,0.0,0.0,0.0,0.0,0.0,0.0,0.0,0.0,0.0,0.0,0.0,0.0,0.0,0.0,0.0,0.0,0.0,1.2621,1.3063,1.2822,1.3336,1.3536,0.0,0.0,0.0,0.0,0.0,0.0,1.7428,1.8236,1.9224,2.0495,2.1571,2.2425,2.3038,2.3362,2.4588,2.6705,2.6511,2.6947,2.7967,2.7657,2.7037,2.6176,2.6176,2.5637,2.4537,2.179,2.0147,1.9234,1.779,1.718,1.7018,1.6095,1.5782,1.5804,0.0,0.0,0.0,0.0,0.0,0.0,0.0,0.0,0.0,0.0,0.0,0.0,0.0,0.0,1.8137,1.854,1.8943,1.886,0.0,0.0,0.0,0.0,0.0,0.0,0.0,0.0,0.0,2.1653,2.3272,2.4318,2.4783,2.5168,2.5535,2.5897,2.5499,2.4592,2.3237,2.2067,2.1109,2.0212,0.0,0.0,0.0,0.0,0.0,0.0,0.0,0.0,0.0,0.0,0.0,0.0,0.0,0.0,0.0,0.0,0.0,0.0,0.0,0.0,0.0,0.0,0.0,0.0,0.0,0.0,0.0,0.0,0.0,0.0,0.0,0.0,0.0,0.0,0.0,0.0,0.0,0.0,0.0,1.4122,1.4358,0.0,0.0,0.0,0.0,1.803,1.8489,1.9093,1.9977,2.142,2.2159,2.1993,2.3396,2.4696,2.5867,2.6289,2.747,2.9407,2.9776,2.998,3.0053,3.0019,3.0004,2.9942,2.9942,2.9468,2.8372,2.4133,2.2001,2.1382,2.08,2.0406,2.0046,1.8989,1.9196,1.9676,0.0,0.0,0.0,0.0,0.0,0.0,0.0,0.0,0.0,0.0,0.0,0.0,0.0,1.8375,1.9519,2.0181,2.0393,2.0008,1.8934,0.0,0.0,0.0,0.0,0.0,0.0,0.0,2.2185,2.4079,2.4929,2.5824,2.6729,2.6889,2.7022,2.7151,2.7018,2.6563,2.5748,2.3724,2.2247,2.1167,2.0068,1.8943,0.0,0.0,0.0,0.0,0.0,0.0,0.0,0.0,0.0,0.0,0.0,0.0,0.0,0.0,0.0,0.0,0.0,0.0,0.0,0.0,0.0,0.0,0.0,0.0,0.0,0.0,0.0,0.0,0.0,0.0,0.0,0.0,0.0,0.0,0.0,0.0,0.0,1.6744,1.7219,0.0,1.8385,1.8742,1.9402,2.0573,2.067,2.1376,2.301,2.3785,2.4787,2.6109,2.6918,2.7783,2.8717,2.8876,2.956,3.0751,3.0369,3.0607,3.1341,3.0827,3.0442,3.0204,3.0204,2.9889,2.9257,2.7434,2.5996,2.4815,2.3455,2.2725,2.2355,2.1454,2.1103,2.0955,0.0,0.0,0.0,0.0,0.0,0.0,0.0,0.0,0.0,0.0,0.0,1.6964,1.8192,1.9621,2.0903,2.1819,2.1654,2.0932,1.9594,0.0,0.0,0.0,0.0,0.0,0.0,2.1775,2.3559,2.559,2.6154,2.6875,2.7793,2.7793,2.7867,2.7995,2.7848,2.772,2.7485,2.5551,2.3962,2.2655,2.1544,2.0463,1.9401,0.0,0.0,0.0,0.0,0.0,0.0,0.0,0.0,0.0,0.0,0.0,0.0,0.0,0.0,0.0,0.0,0.0,0.0,0.0,0.0,0.0,0.0,0.0,0.0,0.0,0.0,0.0,0.0,0.0,0.0,0.0,0.0,0.0,0.0,1.5931,1.6889,1.8898,1.9661,2.0321,2.1104,2.1662,2.2462,2.3609,2.3828,2.461,2.627,2.6526,2.7337,2.896,2.9265,2.9742,3.0387,3.0534,3.0937,3.1595,3.1194,3.1433,3.2184,3.1506,3.1066,3.0809,3.0662,3.0384,2.9981,2.9724,2.8941,2.7817,2.6477,2.5774,2.5359,2.4223,2.3714,2.3557,0.0,0.0,0.0,0.0,0.0,0.0,0.0,0.0,0.0,0.0,1.5918,1.7697,1.9684,2.1002,2.2229,2.3419,2.2742,2.1599,2.0013,1.9126,0.0,0.0,0.0,0.0,2.1163,2.3197,2.485,2.6081,2.6875,2.7463,2.7867,2.7867,2.8073,2.844,2.805,2.8091,2.8407,2.7614,2.638,2.4807,2.3095,2.2369,2.2057,0.0,0.0,0.0,0.0,0.0,0.0,0.0,0.0,0.0,0.0,0.0,0.0,0.0,0.0,0.0,0.0,0.0,0.0,0.0,0.0,0.0,0.0,0.0,0.0,0.0,0.0,0.0,0.0,0.0,0.0,0.0,0.0,0.0,1.7305,1.7861,1.8938,2.0618,2.1595,2.2457,2.3233,2.4248,2.5533,2.7173,2.8018,2.8807,2.9574,2.9629,2.9816,3.0204,3.0241,3.0442,3.0843,3.1249,3.1636,3.204,3.2423,3.2623,3.2623,3.2203,3.2019,3.1983,3.1595,3.1192,3.0825,3.0806,3.0586,3.0204,2.9779,2.9454,2.9012,2.7318,2.7091,2.7568,0.0,0.0,0.0,0.0,0.0,0.0,0.0,0.0,0.0,0.0,1.6221,1.831,1.9739,2.1504,2.2973,2.3926,2.2428,2.1115,2.039,0.0,0.0,0.0,0.0,0.0,2.2808,2.4586,2.6233,2.7742,2.8256,2.8862,2.9525,2.9525,2.9614,2.9709,2.9595,2.9599,2.9672,2.9155,2.8693,2.8087,2.5866,2.4079,2.262,0.0,0.0,0.0,0.0,0.0,0.0,0.0,0.0,0.0,0.0,0.0,0.0,0.0,0.0,0.0,0.0,0.0,0.0,0.0,0.0,0.0,0.0,0.0,0.0,0.0,0.0,0.0,0.0,0.0,0.0,0.0,1.8989,1.9746,2.0289,2.0792,2.2179,2.5043,2.5367,2.5999,2.7647,2.8093,2.8555,2.9309,2.958,2.98,3.002,3.0311,3.0531,3.0626,3.1194,3.1561,3.1671,3.2074,3.2461,3.2864,3.2698,3.2753,3.3011,3.2625,3.2276,3.1985,3.1891,3.1614,3.121,3.0917,3.0917,3.1008,3.0311,2.9847,2.95,2.9015,2.8462,2.7943,0.0,0.0,0.0,0.0,0.0,0.0,0.0,0.0,0.0,0.0,1.6313,1.8375,1.9739,2.1394,2.2595,2.3119,2.1896,2.0639,1.9566,0.0,0.0,0.0,0.0,2.2863,2.4506,2.6164,2.7555,2.866,2.9394,2.9999,3.0461,3.0626,3.0699,3.0699,3.0534,3.0442,3.0424,3.0017,2.9852,2.9724,2.8311,2.6738,2.5062,2.3828,2.2857,2.2087,2.1141,2.0903,2.0794,1.9424,0.0,0.0,0.0,0.0,0.0,0.0,0.0,0.0,0.0,0.0,0.0,0.0,0.0,0.0,0.0,0.0,0.0,0.0,0.0,0.0,0.0,0.0,0.0,0.0,2.1498,2.3083,2.4508,2.4257,2.4987,2.7849,2.8145,2.862,2.9974,3.0091,3.0348,3.0919,3.0791,3.0772,3.0956,3.1176,3.1304,3.1304,3.1928,3.2258,3.2258,3.2661,3.2974,3.3213,3.3121,3.323,3.3433,3.3029,3.2718,0.0,3.2315,3.2019,3.1616,3.1396,3.1339,0.0,0.0,0.0,0.0,0.0,2.9034,2.8342,0.0,0.0,0.0,0.0,0.0,0.0,0.0,0.0,0.0,0.0,0.0,1.81,1.9665,2.0911,2.1661,2.1753,2.1233,2.0126,0.0,0.0,0.0,2.1808,2.3108,2.4561,2.6228,2.7761,2.8788,2.9265,3.0348,3.0917,3.1008,3.1357,3.154,3.1526,3.1157,3.1008,3.099,3.0571,3.0424,3.0461,3.0314,2.9544,2.8223,2.5981,2.5297,2.5333,2.3743,2.276,2.2012,2.0865,0.0,0.0,0.0,0.0,0.0,0.0,0.0,0.0,0.0,0.0,0.0,0.0,0.0,0.0,0.0,0.0,0.0,0.0,0.0,0.0,0.0,0.0,0.0,0.0,2.4372,2.6965,2.904,2.7958,2.7683,2.9632,3.0201,3.0552,3.0956,3.1008,3.1286,3.2019,3.1742,3.1687,3.2056,0.0,0.0,0.0,0.0,3.2753,3.2661,3.3103,3.3306,3.3286,3.3634,3.3799,3.3781,3.3433,3.3268,3.3249,3.29,3.2514,3.2131,3.2093,3.1799,3.1357,3.1008,3.089,3.0841,2.989,2.9282,2.8906,0.0,0.0,0.0,0.0,0.0,0.0,0.0,0.0,0.0,1.4381,1.6248,1.799,1.9292,2.0492,2.1482,2.213,2.0639,1.9347,0.0,0.0,2.0976,2.3059,2.4666,2.6288,2.7907,2.8895,2.9871,3.0951,3.1173,3.1614,3.2239,3.2331,3.2368,3.2368,3.2276,3.2239,3.2238,3.1818,3.1836,3.2056,3.1082,2.9962,2.877,2.7646,2.6875,2.6238,2.5265,2.504,2.5003,2.3791,2.3584,2.359,2.1996,2.0816,0.0,0.0,0.0,0.0,0.0,0.0,0.0,0.0,0.0,0.0,0.0,0.0,0.0,0.0,0.0,0.0,0.0,0.0,0.0,2.4459,2.6832,2.9105,3.1141,3.1125,3.1059,3.1474,3.1616,3.1818,3.2203,3.2239,3.2313,3.2459,3.2404,3.2386,3.2478,3.2791,3.2809,3.2496,3.3505,3.3743,3.3084,3.3799,3.4018,3.3689,0.0,0.0,3.3799,3.3708,3.3689,3.3671,3.3598,3.3341,3.2938,3.2625,3.2054,3.1394,3.1302,3.1288,3.1281,3.1061,3.0763,3.0414,0.0,0.0,0.0,0.0,0.0,0.0,0.0,0.0,0.0,0.0,1.5735,1.6982,1.799,1.8815,1.9384,1.9576,1.8678,0.0,0.0,2.0738,2.2497,2.4946,2.644,2.7852,2.9269,3.0091,3.0898,3.1689,3.2311,3.2808,3.3211,3.3598,3.3799,3.3781,3.3596,3.3395,3.3175,3.2773,3.2606,3.2551,3.1928,3.1212,3.0369,2.917,2.8454,2.7995,2.7192,2.6641,2.6215,2.5609,2.5131,2.4641,2.3822,2.2575,2.1289,0.0,0.0,0.0,0.0,0.0,0.0,0.0,0.0,0.0,0.0,0.0,0.0,0.0,0.0,1.9437,2.0351,0.0,2.5148,2.6697,2.8949,3.1066,3.2663,3.2718,3.2533,3.2331,3.2294,3.2459,3.2846,3.2716,3.2771,3.3175,3.2826,3.2698,3.2883,3.3084,3.3121,3.2918,3.3688,3.3909,3.3506,3.3891,3.411,3.411,3.3891,3.3908,3.4074,3.3891,3.3799,3.3799,3.3799,3.3451,3.2846,3.2256,3.1761,3.1394,3.1394,3.1394,3.1377,3.12,3.1039,3.0843,0.0,0.0,0.0,0.0,0.0,0.0,0.0,0.0,0.0,0.0,1.5203,1.5981,1.6698,1.7147,1.7257,0.0,0.0,0.0,0.0,2.1819,2.3828,2.6696,2.7999,2.921,3.0406,3.1139,3.1744,3.2223,3.3213,3.3763,3.3945,3.4888,3.5167,3.4881,3.4869,3.4464,3.3781,3.3543,3.3248,3.2936,3.2863,3.2643,3.2166,3.0476,2.9739,2.9485,2.8696,2.7471,2.6274,2.6421,2.5669,2.4709,2.4874,2.3892,2.2535,2.1901,2.0577,0.0,0.0,0.0,0.0,0.0,0.0,0.0,0.0,1.9267,1.9833,2.1665,2.2039,2.2425,2.3709,2.5798,2.7687,2.8778,3.0785,3.2626,3.3763,3.3579,3.3176,3.2771,3.279,3.2973,3.3286,3.3084,3.323,3.3872,3.3395,3.3194,3.3525,3.3488,3.3433,3.3433,3.3744,3.3873,3.3799,3.3873,3.4055,3.4275,3.3946,3.3964,3.4275,3.3963,3.3799,3.3799,3.3708,3.3285,3.2533,3.1816,3.1467,3.1394,3.1394,3.1394,3.1361,3.1087,3.1009,3.096,0.0,0.0,0.0,0.0,0.0,0.0,0.0,0.0,0.0,0.0,0.0,0.0,0.0,0.0,0.0,0.0,0.0,0.0,2.0961,2.2497,2.464,2.7536,2.8821,3.0033,3.1228,3.1708,3.2296,3.3066,3.3213,3.3634,3.4348,3.5822,3.5775,3.4511,3.5857,3.5453,3.3818,3.4147,3.4238,3.4165,3.3799,3.3634,3.3378,3.1414,3.0219,2.9485,2.8696,2.6935,2.51,2.5824,2.5273,2.4391,2.5113,2.4721,2.3688,2.214,2.0802,1.9498,1.7951,1.7825,1.8276,1.8912,1.9646,2.0394,0.0,2.1625,2.2146,2.3113,2.3244,2.3761,2.5571,2.7129,2.8867,3.0984,3.2295,3.3359,3.422,3.4,3.3579,3.3176,3.3451,3.3671,3.3726,3.4018,3.4238,3.433,3.4587,3.4734,3.4807,3.4459,3.4275,3.4275,3.4312,3.4165,3.3799,3.4147,3.4183,3.3872,3.3818,3.3818,3.3872,3.3818,3.3799,3.3781,3.3433,3.3011,3.257,3.2129,3.1708,3.1394,3.1394,3.1394,3.1394,3.1361,3.1345,3.1329,0.0,0.0,0.0,0.0,0.0,0.0,0.0,0.0,0.0,0.0,0.0,0.0,0.0,0.0,0.0,0.0,0.0,0.0,2.1324,2.3205,2.5527,2.8366,2.9651,3.0861,3.2072,3.2479,3.2974,3.3543,3.3781,3.4056,3.4421,3.5315,3.5374,3.4824,3.6611,3.6337,3.4586,3.5898,3.5643,3.4385,3.422,3.3743,3.2955,3.1653,2.991,2.8124,2.7559,2.6256,0.0,0.0,2.4624,2.4349,2.5144,2.466,2.3621,2.267,2.138,2.0147,1.9671,2.0009,2.0574,2.0922,2.1966,2.3054,2.3657,2.4107,2.477,2.607,2.6521,2.7032,2.8298,2.9576,3.091,3.233,3.3333,3.4092,3.4679,3.4001,3.3396,3.3214,3.2938,3.2955,3.3414,3.4037,3.4403,3.4403,3.4771,3.4991,3.4991,3.4844,3.4752,3.4752,3.4752,3.4551,3.4147,3.433,3.433,3.4147,3.3909,3.3909,3.4129,3.3909,3.3799,3.3763,3.3121,3.2753,3.2551,3.1909,3.1559,3.1394,3.1394,3.1394,3.1394,3.1394,3.1394,3.1394,0.0,0.0,0.0,0.0,0.0,0.0,0.0,0.0,0.0,0.0,0.0,0.0,0.0,0.0,0.0,0.0,0.0,0.0,0.0,2.3132,2.5491,2.8219,2.9706,3.1027,3.2239,3.2771,3.3231,3.3634,3.4055,3.4487,3.4983,3.5706,3.6051,3.6088,3.7506,3.7134,3.5486,3.6498,3.6027,3.455,3.4312,3.3578,3.2441,3.1102,2.903,2.6802,2.6293,2.4972,0.0,0.0,2.3124,2.3149,2.3957,2.3657,2.2895,2.2382,2.1182,2.0152,2.09,2.1624,2.2307,2.2979,2.4281,2.555,2.6176,2.6627,2.7325,2.8769,2.921,2.9577,3.0369,3.1249,3.2131,3.3048,3.3689,3.4239,3.4771,3.3799,3.2993,3.2883,3.2258,3.2074,3.2644,3.3743,3.4458,3.4568,3.5046,3.5339,3.5339,3.5229,3.5174,3.5174,3.4954,3.4697,3.4403,3.4293,3.4221,3.4238,3.3928,3.3946,3.4202,3.3928,3.3799,3.3763,3.3065,3.2698,3.2551,3.1852,3.1504,3.1394,3.1394,3.1394,3.1394,3.1394,3.1394,3.1394,0.0,0.0,0.0,0.0,0.0,0.0,0.0,0.0,0.0,0.0,0.0,0.0,0.0,0.0,0.0,0.0,0.0,0.0,0.0,2.1833,2.406,2.6554,2.8583,3.0198,3.1412,3.2203,3.2826,3.3231,3.3616,3.4713,3.6478,3.799,3.8656,3.8588,3.8707,3.7907,3.6376,3.5054,3.4696,3.4899,3.4129,3.334,3.2294,2.9544,2.7467,2.5934,2.5131,0.0,0.0,0.0,2.0353,2.016,2.0987,2.1471,2.1606,2.0811,1.9699,1.9097,2.0679,2.1394,2.2291,2.4705,2.6206,2.7435,2.8627,2.9195,2.9709,3.0568,3.0439,3.0406,3.121,3.1394,3.1816,3.3011,3.3214,3.3506,3.4312,3.3376,3.2478,3.2093,3.1669,3.1428,3.1449,3.323,3.4551,3.4936,3.5705,3.6145,3.6145,3.5797,3.5577,3.5577,3.4844,3.4403,3.4403,3.4001,3.3818,3.3818,3.3799,3.3799,3.3818,3.3799,3.3799,3.3781,3.3359,3.2956,3.257,3.2148,3.1744,3.1394,3.1394,3.1394,3.1394,3.1394,3.1394,3.1394,0.0,0.0,0.0,0.0,0.0,0.0,0.0,0.0,0.0,0.0,0.0,0.0,0.0,0.0,0.0,0.0,1.679,1.7669,0.0,2.05,2.2417,2.4906,2.693,2.8454,2.9394,3.0733,3.1469,3.1616,3.2001,3.2522,3.3129,3.3655,3.4022,3.431,3.5623,3.5502,3.4371,3.5184,3.5031,3.4092,3.2754,3.204,3.1435,2.8073,2.5779,2.4103,0.0,0.0,0.0,0.0,1.9163,1.9557,1.9814,1.9997,1.9997,1.9456,1.9767,2.0586,2.1939,2.3803,2.5735,2.7384,2.8895,3.0164,3.0827,3.11,3.1121,3.0861,2.9607,2.8619,2.8887,2.8956,2.9501,3.1269,3.2698,3.3798,3.433,3.4055,3.3358,3.2131,3.1636,3.1304,3.1027,3.2348,3.3486,3.4147,3.4954,3.5522,3.5779,3.5925,3.587,3.5614,3.5339,3.4954,3.4403,3.4275,3.4202,3.4202,3.4202,3.4073,3.3799,3.3799,3.3799,3.3781,3.3378,3.3121,3.2938,3.2276,3.1928,3.1763,3.1504,3.1394,3.1394,3.1394,3.1394,3.1394,0.0,0.0,0.0,0.0,0.0,0.0,0.0,0.0,0.0,0.0,0.0,0.0,0.0,0.0,0.0,0.0,0.0,1.6863,1.777,0.0,2.0704,2.2568,2.4592,2.5973,2.6632,2.7967,2.8718,2.8832,2.9561,3.0226,3.0831,3.1147,3.1704,3.2455,3.3211,3.3518,3.3483,3.3526,3.3312,3.2721,3.0543,2.9434,2.87,2.5467,2.3308,0.0,0.0,0.0,0.0,1.7935,1.8201,1.8852,1.8705,1.8852,1.9127,1.9301,2.0382,2.1911,2.3743,2.5881,2.7981,2.947,3.0736,3.1724,3.2129,3.2111,3.1781,3.0972,2.9389,2.7979,2.7344,2.7022,2.73,2.8671,3.0309,3.1791,3.2884,3.3074,3.2881,3.2294,3.1744,3.1359,3.1231,3.1928,3.2716,3.3524,3.4606,3.5339,3.5577,3.598,3.6036,3.5614,3.5595,3.5284,3.4606,3.4606,3.4606,3.4606,3.4477,3.4275,3.4018,3.3872,3.3799,3.3798,3.3524,3.3249,3.2955,3.2441,3.2038,3.1763,3.1504,3.1394,3.1394,3.1394,3.1394,3.1394,0.0,0.0,0.0,0.0,0.0,0.0,0.0,0.0,0.0,0.0,0.0,0.0,0.0,0.0,0.0,0.0,0.0,0.0,1.6213,0.0,0.0,1.9739,2.1687,2.2931,2.3346,2.4225,2.4837,2.5152,2.6402,2.7861,2.9501,3.0379,3.1497,3.2741,3.1408,3.1881,3.3408,3.0227,2.9705,3.0761,2.7683,2.5756,2.4458,2.1951,0.0,0.0,0.0,0.0,1.69,1.6918,1.7477,1.81,1.777,1.8192,1.9053,2.0298,2.1544,2.315,2.5968,2.7687,2.9104,3.1068,3.1838,3.2221,3.257,3.2294,3.1726,3.0864,2.9654,2.821,2.6507,2.5643,2.5294,2.56,2.6604,2.8155,3.0472,3.0944,3.1467,3.2551,3.2017,3.1687,3.2038,3.2093,3.2406,3.3159,0.0,3.554,3.5577,3.5944,3.598,3.5614,3.5577,3.5394,3.4991,3.5009,3.5009,3.5009,3.4606,3.4422,3.4385,3.3982,3.3799,3.3799,3.3799,3.3376,3.2661,3.2606,3.2164,3.1449,3.1428,3.1394,3.1394,3.1394,3.1394,3.1394,0.0,0.0,0.0,0.0,0.0,0.0,0.0,0.0,0.0,0.0,0.0,0.0,0.0,0.0,0.0,0.0,0.0,0.0,1.5404,0.0,0.0,0.0,1.9739,2.0856,0.0,0.0,0.0,2.3071,2.3996,2.4668,2.5118,2.595,2.6687,2.7305,2.7285,2.7734,2.8428,2.7574,2.7275,2.7172,0.0,2.4158,2.3541,0.0,0.0,0.0,0.0,1.7238,1.6945,1.7247,1.8082,1.9081,1.9576,2.0089,2.0785,2.2284,2.4048,2.5986,2.8234,3.0369,3.2241,3.3358,3.3707,3.3743,3.3541,3.2478,3.1155,2.9742,2.7032,2.4571,2.3461,2.3641,2.4461,2.5956,2.8757,3.1364,3.3188,3.3986,3.4275,3.3982,3.3762,3.345,3.2938,3.3158,3.3433,3.3634,3.4294,3.4826,3.5156,3.554,3.5705,3.5614,3.5321,3.5101,3.4991,3.5302,3.5302,3.4991,3.4899,3.4679,3.4385,3.3982,3.3799,3.3799,3.3799,3.3671,3.345,3.2845,3.2478,3.2221,3.1632,3.1394,3.1394,3.1394,3.1394,3.1394,0.0,0.0,0.0,0.0,0.0,0.0,0.0,0.0,0.0,0.0,0.0,0.0,0.0,0.0,0.0,0.0,0.0,0.0,0.0,1.5698,0.0,0.0,0.0,0.0,0.0,0.0,0.0,0.0,0.0,0.0,2.1886,2.2722,2.3331,2.3717,2.4006,2.4615,2.5402,2.4555,0.0,0.0,0.0,0.0,0.0,0.0,0.0,0.0,1.7477,1.755,1.8064,1.8834,1.9649,2.0518,2.1508,2.2222,2.3107,2.5062,2.6738,2.8385,3.0586,3.2441,3.3873,3.4496,3.4386,3.389,3.2955,3.1488,2.9753,2.7824,2.5168,2.2837,2.1632,2.2114,2.3143,2.451,2.761,3.0583,3.2707,3.3898,3.4587,3.4642,3.4661,3.4477,3.402,3.4185,3.4331,3.4331,3.4697,3.5027,3.5266,3.565,3.5779,3.5614,3.5559,3.554,3.554,3.5742,3.565,3.5247,3.5083,3.4789,3.4385,3.3982,3.3799,3.3799,0.0,3.3708,3.3488,3.2863,3.2496,3.2276,3.165,3.1394,3.1394,3.1394,3.1394,3.1394,0.0,0.0,0.0,0.0,0.0,0.0,0.0,0.0,0.0,0.0,0.0,0.0,0.0,0.0,0.0,0.0,0.0,0.0,0.0,0.0,0.0,0.0,0.0,0.0,1.69,1.7237,1.7409,1.7409,1.8523,0.0,0.0,0.0,0.0,0.0,0.0,0.0,0.0,0.0,0.0,0.0,0.0,0.0,0.0,0.0,0.0,0.0,1.6955,1.7954,1.9421,2.073,2.1599,2.232,2.3529,2.4543,2.5742,2.8109,2.932,3.0439,3.2791,3.3982,3.466,3.5064,3.4477,3.3376,3.1761,2.9935,2.7938,2.5613,2.3725,2.2037,2.054,2.1085,2.2067,2.2894,2.5512,2.8436,3.1292,3.2705,3.3873,3.5009,3.5174,3.5174,3.5174,3.5174,3.5174,3.5174,3.5485,3.565,3.5614,3.5925,3.5962,3.5614,3.598,3.6201,3.6201,3.6201,3.5999,3.5595,3.5174,3.4789,3.4385,3.3982,3.3799,3.3799,3.3799,0.0,3.3249,3.2845,3.2441,3.2038,3.1632,3.1485,3.1467,3.1412,3.143,3.1467,0.0,0.0,0.0,0.0,0.0,0.0,0.0,0.0,0.0,0.0,1.4026,1.3625,0.0,0.0,0.0,0.0,0.0,0.0,0.0,0.0,0.0,0.0,0.0,0.0,1.69,1.6969,1.7004,1.7004,1.7549,1.8016,0.0,0.0,0.0,0.0,0.0,0.0,0.0,0.0,0.0,0.0,0.0,0.0,0.0,0.0,0.0,0.0,1.7275,1.8009,1.9099,2.0965,2.2783,2.4464,2.5674,2.6848,2.8168,3.0274,3.1194,3.2038,3.4129,3.5027,3.5485,3.5889,3.4899,3.3378,3.1781,2.9068,2.6327,2.426,2.2269,2.0622,1.9657,2.0976,2.2882,2.4996,2.7485,3.0388,3.3861,3.4535,3.5009,3.5889,3.598,3.598,3.598,3.598,3.598,3.598,3.6072,3.5944,3.5614,3.5669,3.5669,3.5595,3.598,3.6201,3.6201,3.6201,3.5999,3.5595,3.5174,3.4789,3.4385,3.3982,3.3799,3.3799,3.3799,0.0,3.3653,3.3268,3.2863,3.2459,3.2056,3.1891,3.1854,3.1522,3.1614,3.1854,0.0,0.0,0.0,0.0,0.0,0.0,0.0,0.0,1.2487,1.3937,1.3662,1.3426,1.3675,1.3638,0.0,0.0,0.0,0.0,0.0,0.0,0.0,0.0,0.0,0.0,1.69,1.7107,1.7107,1.69,0.0,1.76,1.779,1.8369,1.8863,1.9303,1.9697,1.9898,1.9913,0.0,0.0,1.8657,1.8238,1.773,0.0,0.0,0.0,0.0,1.7823,1.8543,1.9529,2.0921,2.2987,2.5212,2.6738,2.8201,2.9727,3.1744,3.2608,3.3323,3.5137,3.576,3.5907,3.5889,3.4532,3.2533,3.0075,2.7125,2.4273,2.2074,2.0297,1.9037,1.8686,2.0299,2.2189,2.3776,2.6466,2.9467,3.268,3.3671,3.4532,3.5742,3.6072,3.6201,3.6201,3.6201,3.6201,3.6201,3.6201,3.6127,3.5907,3.5907,3.5907,3.5907,3.609,3.609,3.5889,3.5889,3.5687,3.5266,3.4881,3.4605,3.4385,3.3982,3.3799,3.3799,3.3799,0.0,3.3763,3.3378,3.3084,3.2864,3.2478,3.2313,3.2258,3.1854,3.1836,3.1946,0.0,0.0,0.0,0.0,0.0,0.0,0.0,1.2099,1.2386,1.3407,1.3187,1.3084,1.3569,1.3396,1.3364,0.0,0.0,0.0,0.0,0.0,0.0,0.0,0.0,0.0,0.0,0.0,0.0,1.69,1.722,0.0,0.0,0.0,0.0,0.0,1.9027,1.9224,1.9274,1.8861,1.8659,0.0,0.0,1.7467,0.0,0.0,0.0,0.0,0.0,1.8805,1.9658,2.0642,2.2448,2.4597,2.627,2.8238,3.026,3.2026,3.3074,3.4047,3.5722,3.6239,3.622,3.5834,3.4089,3.1653,2.8509,2.5402,2.2547,2.0346,1.8783,1.7834,1.7961,1.9491,2.1041,2.2007,2.4702,2.7738,3.0715,3.2258,3.3671,3.5284,3.5889,3.6201,3.6201,3.6201,3.6201,3.6201,3.6201,3.6201,3.6201,3.6201,3.6201,3.6201,3.6201,3.5999,3.5614,3.5687,3.5449,3.4881,3.4642,3.444,3.4257,3.3928,3.3799,3.3799,3.3799,0.0,0.0,3.3451,3.3286,3.3176,3.2863,3.2735,3.268,3.2184,3.2111,3.2203,0.0,0.0,0.0,0.0,0.0,0.0,0.0,1.133,1.1763,1.2602,1.2669,1.2654,1.2702,1.2905,1.307,0.0,0.0,0.0,0.0,0.0,0.0,0.0,0.0,0.0,0.0,0.0,0.0,1.69,1.6943,0.0,0.0,0.0,0.0,0.0,0.0,1.8956,1.9274,1.8861,0.0,0.0,0.0,0.0,0.0,0.0,0.0,0.0,0.0,1.803,1.8506,2.0047,2.1069,2.1961,2.3214,2.6064,2.9105,3.0112,3.1745,3.3674,3.5583,3.6417,3.6663,3.6254,3.4078,3.1304,2.8454,2.4999,2.1935,2.0259,1.8588,1.7555,1.7937,1.8795,1.9964,2.1513,2.3582,2.6256,2.98,3.1671,3.3248,3.4863,3.5724,3.6201,3.6201,3.6201,3.6201,3.6201,3.6201,3.6201,3.6201,3.6201,3.6201,3.6201,3.6201,3.5999,3.5614,3.5962,3.5577,3.4458,3.4789,3.4569,3.3854,3.3818,3.3799,3.3799,3.3799,0.0,0.0,3.3763,3.3524,3.3213,3.3158,3.3141,3.3048,3.2278,3.2461,3.2993,0.0,0.0,0.0,0.0,0.0,0.0,1.1033,1.1464,1.1956,1.2467,1.2541,1.2448,1.2205,1.2342,1.2535,0.0,0.0,0.0,0.0,0.0,0.0,0.0,0.0,0.0,0.0,0.0,1.6661,1.69,1.69,0.0,0.0,0.0,0.0,0.0,0.0,1.8629,1.9091,1.8693,0.0,0.0,0.0,0.0,0.0,0.0,0.0,0.0,0.0,0.0,1.861,1.9608,2.0311,2.0688,2.0395,2.2194,2.5029,2.8214,3.0467,3.2488,3.5048,3.6425,3.6957,3.6064,3.3539,3.0535,2.7726,2.4018,2.0788,1.9447,1.8124,1.7312,1.7587,1.826,1.9064,2.0035,2.1523,2.3522,2.6215,2.7962,2.9929,3.2533,3.3762,3.4862,3.6072,3.6201,3.6201,3.6201,3.6201,3.6201,3.6201,3.6201,3.6201,3.6201,3.5981,3.576,3.5595,3.5284,3.5009,3.4752,3.4441,3.4239,3.4147,3.3909,3.3799,3.3799,3.3799,0.0,0.0,3.3799,3.3708,3.3561,3.3561,3.3561,3.3488,3.2938,3.2938,3.3121,0.0,0.0,0.0,0.0,0.0,1.0575,1.0767,1.1323,1.1845,1.2188,1.2383,1.2348,1.1979,1.2003,1.2096,1.2246,0.0,0.0,0.0,0.0,0.0,0.0,0.0,0.0,0.0,0.0,1.6331,1.6716,1.6716,1.6781,0.0,0.0,1.7394,1.7522,0.0,0.0,0.0,0.0,0.0,0.0,0.0,0.0,0.0,0.0,0.0,0.0,0.0,0.0,0.0,0.0,0.0,1.9404,1.8507,1.915,2.1056,2.5232,2.8317,3.0944,3.3598,3.565,3.6773,3.5804,3.3023,2.9803,2.7096,2.3277,1.9991,1.8919,1.7941,1.73,1.7451,1.8066,1.8651,1.8972,2.0193,2.1786,2.3724,2.5504,2.7577,3.0201,3.1579,3.3103,3.5119,3.5834,3.6201,3.6201,3.6201,3.6201,3.6201,3.6201,3.6201,3.6201,3.5925,3.5669,3.5431,3.4972,3.4716,3.4642,3.4184,3.4056,3.422,3.3928,3.3799,3.3799,3.3799,0.0,0.0,3.3799,3.3799,3.3799,3.3799,3.3799,3.3744,3.3359,3.3286,3.3323,0.0,0.0,0.0,0.0,0.0,0.0,0.0,1.0683,1.123,1.1575,1.2125,1.2371,1.2044,1.1948,1.1855,1.171,0.0,0.0,0.0,0.0,0.0,0.0,0.0,0.0,0.0,0.0,1.59,1.6305,1.6305,1.6515,1.69,1.69,1.7128,1.7504,0.0,0.0,0.0,0.0,0.0,0.0,0.0,0.0,0.0,0.0,0.0,0.0,0.0,0.0,0.0,0.0,0.0,0.0,0.0,1.7544,1.7826,2.08,2.4975,2.906,3.1012,3.3772,3.6008,3.5585,3.2628,2.9194,2.6762,2.3045,1.983,1.8878,1.8114,1.7625,1.7667,1.835,1.8835,1.8638,2.0004,2.1654,2.3291,2.5294,2.7063,2.8293,2.9489,3.1013,3.3048,3.5027,3.6201,3.6201,3.6201,0.0,3.6201,3.6201,3.6201,3.6201,3.6201,3.5815,3.5009,3.5394,3.4991,3.3818,3.422,3.4202,3.3799,3.3799,3.3799,3.3799,0.0,0.0,0.0,3.3799,3.3799,3.3799,3.3799,3.3799,3.3744,3.3359,3.3451,3.3726,0.0,0.0,0.0,0.0,0.0,0.0,0.0,1.082,1.1212,1.1561,1.1563,1.1488,1.1328,1.1256,1.1239,1.128,0.0,0.0,0.0,0.0,0.0,0.0,0.0,0.0,0.0,0.0,1.5617,1.6305,1.6305,1.6515,1.69,1.69,1.6963,1.71,1.7302,1.7683,0.0,0.0,0.0,0.0,0.0,0.0,0.0,0.0,0.0,0.0,0.0,0.0,0.0,0.0,0.0,0.0,0.0,0.0,0.0,1.7712,2.1062,2.5013,2.7363,2.937,3.0615,2.9931,2.7813,2.5483,2.3909,2.1215,1.8911,1.8328,1.8145,1.8031,1.7931,1.8445,1.9148,1.9909,2.0517,2.1316,2.251,2.4886,2.7099,2.8634,3.2056,3.4656,3.5571,3.6256,3.6627,3.6627,3.6627,3.6627,3.6627,3.6349,3.6201,3.6201,3.5925,3.5669,3.5412,3.4991,3.4605,3.422,3.4056,3.3909,3.3799,3.3799,3.3799,0.0,0.0,0.0,0.0,3.3799,3.3799,3.3799,3.3799,3.3799,3.3781,3.3653,3.3689,3.3781,0.0,0.0,0.0,0.0,0.0,0.0,0.0,1.0968,1.1224,1.1555,1.1313,1.113,1.1177,1.1024,1.0999,1.1236,0.0,0.0,0.0,0.0,0.0,0.0,0.0,0.0,0.0,1.4865,1.5268,1.6075,1.6075,1.635,1.69,1.69,1.69,1.6917,1.7194,1.7515,0.0,0.0,0.0,0.0,0.0,0.0,1.7486,0.0,0.0,0.0,0.0,0.0,0.0,0.0,0.0,0.0,0.0,0.0,0.0,0.0,1.8496,2.1266,2.4005,2.612,2.7455,2.6967,2.5263,2.345,2.238,2.0245,1.8445,1.8258,1.8375,1.8416,1.8156,1.8733,1.9421,1.9976,2.0411,2.1116,2.2322,2.4684,2.7108,2.9364,3.3115,3.5621,3.5871,3.6584,3.7034,3.7034,3.7034,3.7034,3.7034,3.6644,3.6441,3.6441,3.5889,3.5449,3.5137,3.466,3.433,3.4183,3.3909,3.3799,3.3799,3.3799,3.3799,0.0,0.0,0.0,0.0,3.3799,3.3799,3.3799,3.3799,3.3799,3.3799,3.3799,3.3799,3.3799,0.0,0.0,0.0,0.0,0.0,0.0,0.0,0.0,1.1173,1.1526,1.1254,1.1123,1.1412,1.1102,1.1034,1.1404,0.0,0.0,0.0,0.0,0.0,0.0,0.0,0.0,0.0,1.4491,1.4883,1.5659,1.5696,1.6091,1.6863,1.6881,1.6881,1.688,1.7314,1.7504,0.0,0.0,0.0,0.0,0.0,0.0,0.0,0.0,0.0,0.0,0.0,0.0,0.0,0.0,0.0,0.0,0.0,0.0,0.0,0.0,0.0,0.0,0.0,2.37,2.5804,2.5804,2.4254,2.2536,2.1789,1.9883,0.0,1.8514,1.8674,1.8711,1.8456,1.9178,1.9678,1.9239,2.0002,2.1168,2.2662,2.4877,2.7481,3.0666,3.3155,3.4604,3.4526,3.628,3.744,3.744,3.744,3.744,3.744,3.7023,3.6796,3.6758,3.5996,3.5228,3.4492,3.4456,3.4237,3.3851,3.3817,3.3799,3.3799,3.3799,3.3799,0.0,0.0,0.0,0.0,3.3799,3.3799,3.3799,3.3763,3.3763,3.3799,3.3763,3.378,3.3799,0.0,0.0,0.0,0.0,0.0,0.0,0.0,0.0,0.0,0.0,1.0697,1.0454,1.0775,1.067,1.0666,0.0,0.0,0.0,0.0,0.0,0.0,0.0,0.0,0.0,0.0,1.4491,1.4729,1.5239,1.5541,1.5955,1.6451,1.6753,1.6735,1.6468,1.7183,1.7469,0.0,0.0,0.0,0.0,0.0,0.0,0.0,0.0,0.0,0.0,1.6149,1.654,0.0,0.0,0.0,0.0,0.0,0.0,0.0,0.0,1.6728,0.0,1.828,0.0,1.9965,1.9965,1.9584,1.9154,0.0,1.8477,1.8077,1.8128,1.8408,1.8803,1.9287,1.9643,2.0121,2.087,2.1534,2.2363,2.3551,2.7594,3.1375,3.3995,3.5722,3.6429,3.5772,3.7018,3.7862,3.7862,3.7862,3.7862,3.7862,3.7187,3.6645,3.6358,3.5805,3.5418,3.5247,3.4984,3.4657,3.4249,3.3955,3.3799,3.3799,3.3799,3.3799,0.0,0.0,0.0,3.3799,3.3799,3.3799,3.3763,3.3469,3.3524,3.3763,3.3451,3.3543,3.3799,0.0,0.0,0.0,0.0,0.0,0.0,0.0,0.0,0.0,0.0,0.0,0.0,0.0,0.0,0.0,0.0,0.0,0.0,0.0,0.0,0.0,0.0,0.0,0.0,1.422,1.4231,1.4425,1.4821,1.5229,1.5735,1.6305,1.6626,1.6623,1.6412,1.6815,0.0,0.0,0.0,0.0,0.0,1.6406,0.0,0.0,0.0,0.0,0.0,1.6,1.6327,0.0,1.6601,1.6609,1.6616,0.0,0.0,0.0,0.0,1.6858,1.727,1.762,1.7857,1.7991,1.7991,1.7991,1.7991,1.7991,1.7991,1.8042,1.8244,1.8442,1.8778,1.9356,1.9772,2.0293,2.1094,2.2075,2.3434,2.5496,2.8667,3.1864,3.4733,3.5911,3.668,3.7198,3.7857,3.8283,3.8283,3.8283,3.8168,3.7975,3.737,3.6858,3.6433,3.5976,3.5572,3.5226,3.5035,3.4785,3.4388,3.3995,3.3696,3.3524,3.3323,3.3248,0.0,0.0,0.0,3.3266,3.3451,3.3524,3.3524,3.3488,3.3616,3.3763,3.3561,3.3616,3.3799,0.0,0.0,0.0,0.0,0.0,0.0,0.0,0.0,0.0,0.0,0.0,0.0,0.0,0.0,0.0,0.0,0.0,0.0,0.0,0.0,0.0,0.0,0.0,1.3419,1.3885,1.3897,1.4099,1.4491,1.5038,1.5614,1.6263,1.6632,1.6707,1.6591,1.647,1.6297,0.0,0.0,0.0,0.0,1.5765,0.0,0.0,0.0,0.0,0.0,0.0,0.0,0.0,1.6661,1.6503,1.6287,1.6624,0.0,0.0,0.0,0.0,0.0,1.7823,1.8113,1.8267,1.8045,1.8052,1.807,1.8008,1.7991,1.8104,1.8442,1.8555,1.8758,1.9297,1.9954,2.0594,2.1018,2.2576,2.4908,2.8207,2.9708,3.1577,3.4551,3.5488,3.6521,3.8143,3.8493,3.8592,3.8592,3.8534,3.832,3.7931,3.7461,3.7049,3.6714,3.6191,3.5612,3.4981,3.4986,3.4815,3.4466,3.401,3.3621,3.3279,3.2806,3.2588,3.2588,0.0,0.0,3.2716,3.3066,3.3213,3.3214,3.3579,3.3708,3.3708,3.3708,3.3744,3.3799,0.0,0.0,0.0,0.0,0.0,0.0,0.0,0.0,0.0,0.0,0.0,0.0,0.0,0.0,0.0,0.0,0.0,0.0,0.0,0.0,0.0,0.0,1.2914,1.3139,1.3878,1.3897,1.4099,1.4491,1.559,1.6102,1.6069,1.7121,1.7405,1.6988,1.6642,1.6195,1.5699,0.0,0.0,0.0,1.528,0.0,0.0,0.0,0.0,0.0,0.0,0.0,0.0,1.6071,1.5931,1.5881,1.5946,0.0,0.0,0.0,0.0,0.0,1.7469,1.86,1.9413,1.8284,1.8261,1.8425,1.807,1.7991,1.8018,1.8087,1.8364,1.8928,2.0015,2.0948,2.1743,2.2317,2.4807,2.7957,3.168,3.3552,3.4824,3.5686,3.7185,3.7811,3.7049,3.7985,3.8592,3.8592,3.8223,3.797,3.7894,3.7205,3.6756,3.6714,3.5898,3.5438,3.532,3.5382,3.5178,3.4729,3.4098,3.3757,3.367,3.2941,3.2588,3.2588,0.0,3.2773,3.3121,3.3159,3.3213,3.3213,3.3268,3.3304,3.3304,3.3304,3.3506,3.3799,0.0,0.0,0.0,0.0,0.0,0.0,0.0,0.0,0.0,0.0,0.0,0.0,0.0,0.0,0.0,0.0,0.0,0.0,0.0,0.0,0.0,1.2638,1.2614,1.2927,1.367,1.3829,1.4149,1.4662,1.5639,1.6255,1.6489,1.687,1.6873,1.653,1.5961,1.5552,1.5278,1.5307,0.0,0.0,0.0,0.0,0.0,0.0,0.0,0.0,0.0,0.0,0.0,0.0,1.5511,1.5224,1.5655,0.0,0.0,0.0,0.0,0.0,1.7082,1.8022,1.89,1.8784,1.9384,1.9961,1.9772,1.9736,1.9592,1.912,1.9361,1.9783,2.0304,2.1558,2.3362,2.5996,2.8012,3.0019,3.2253,3.3199,3.4176,3.5527,3.6367,3.7088,3.7654,3.8259,3.8592,3.8592,3.8164,3.7814,3.758,3.7029,3.6482,3.6013,3.5622,3.5156,3.4704,3.4948,3.4882,3.4472,3.4156,3.3792,3.335,3.2557,3.2208,3.2208,0.0,3.2072,3.2239,3.2461,3.267,3.2873,3.3334,3.3638,3.3826,3.405,3.4117,3.4111,0.0,0.0,0.0,0.0,0.0,0.0,0.0,0.0,0.0,0.0,0.0,0.0,0.0,0.0,0.0,0.0,0.0,0.0,0.0,0.0,1.2035,1.2557,1.2654,1.2996,1.3644,1.3962,1.4436,1.5136,1.5939,1.6602,1.7071,1.6659,1.6344,1.6085,1.5525,1.5173,1.4989,1.5067,1.5135,0.0,0.0,0.0,0.0,0.0,0.0,0.0,0.0,0.0,0.0,0.0,0.0,0.0,0.0,0.0,0.0,1.5951,1.6268,1.6432,1.6713,1.7544,1.8502,1.9211,1.9997,2.0749,2.1361,2.1339,2.1135,2.0858,2.112,2.1394,2.1338,2.2898,2.5402,2.9136,3.0815,3.2027,3.3098,3.343,3.4176,3.5954,3.615,3.6795,3.8436,3.8495,3.8436,3.8436,3.793,3.7463,3.7185,3.6677,3.6091,3.541,3.5195,3.4782,3.4114,3.4411,3.442,3.4175,3.4093,3.3743,3.3106,3.2354,3.2006,3.199,3.175,3.169,3.1801,3.2118,3.2394,3.2698,3.3462,3.3968,3.4336,3.4753,3.4732,3.4508,0.0,0.0,0.0,0.0,0.0,0.0,0.0,0.0,0.0,0.0,0.0,0.0,0.0,0.0,0.0,0.0,0.0,0.0,0.0,0.0,1.2476,1.3368,1.3292,1.3537,1.4136,1.4526,1.5174,1.6097,1.6977,1.7489,1.7626,1.6983,1.6461,1.6097,1.6098,1.5699,1.5026,1.5273,1.5301,1.5214,0.0,0.0,0.0,0.0,0.0,0.0,0.0,0.0,0.0,0.0,0.0,0.0,0.0,0.0,1.4801,1.5592,1.607,1.6327,1.6415,1.7838,1.9326,1.9385,1.9098,1.9417,2.1851,2.1782,2.1649,2.3207,2.3832,2.4127,2.4119,2.5896,2.7974,2.9863,3.2242,3.4466,3.6147,3.7012,3.7715,3.8299,3.8358,3.8416,3.8591,3.8203,3.7951,3.7951,3.7244,3.6775,3.6736,3.5954,3.5449,3.5391,3.4606,3.4173,3.4114,3.4134,3.4137,3.4105,3.3782,3.3601,3.353,3.2723,3.2358,3.2358,3.2342,3.2534,3.2892,3.2911,3.2946,3.3019,3.344,3.3889,3.4336,3.4753,3.4887,3.487,0.0,0.0,0.0,0.0,0.0,0.0,0.0,0.0,0.0,0.0,0.0,0.0,0.0,0.0,0.0,0.0,0.0,0.0,0.0,0.0,1.2096,1.2488,1.3174,1.3751,1.4195,1.4918,1.5518,1.5953,1.665,1.6893,1.6702,1.6441,1.6082,1.5676,1.577,1.5659,1.5398,1.5573,1.5481,1.5232,1.5549,0.0,0.0,0.0,0.0,0.0,0.0,0.0,0.0,0.0,1.4216,1.4027,1.4624,1.4714,1.4749,1.5549,1.5882,1.5993,1.602,1.7507,1.9036,1.9036,1.9405,2.0464,2.3087,2.3659,2.3874,2.4787,2.5729,2.6297,2.6021,2.7568,2.9442,3.1147,3.3594,3.5605,3.6577,3.7635,3.8281,3.8184,3.8436,3.8495,3.8203,3.8009,3.7795,3.7559,3.6738,3.6269,3.6269,3.543,3.486,3.4587,3.4271,3.3961,3.3672,3.3656,3.3656,3.3672,3.3833,3.3749,3.3465,3.2941,3.2724,3.2708,3.2485,3.25,3.2633,3.2633,3.2745,3.3027,3.3928,3.4567,3.5047,3.5435,3.5453,3.5264,0.0,0.0,0.0,0.0,0.0,0.0,0.0,0.0,0.0,0.0,0.0,0.0,0.0,0.0,0.0,0.0,0.0,0.0,0.0,1.1732,1.1916,1.2262,1.3071,1.3781,1.438,1.5143,1.5716,1.6089,1.6375,1.6375,1.6093,1.6093,1.5928,1.563,1.5768,1.5848,1.5881,1.5758,1.5624,1.5506,1.5653,1.5583,0.0,0.0,0.0,0.0,0.0,0.0,0.0,0.0,1.4094,1.3949,1.4435,1.4696,1.4919,1.5594,1.5876,1.592,1.5832,1.697,1.83,1.8695,1.9579,2.1177,2.432,2.518,2.5692,2.7062,2.7807,2.812,2.7805,2.8992,3.0497,3.1964,3.4336,3.6155,3.6619,3.7557,3.8066,3.7736,3.7988,3.8047,3.7736,3.7598,3.7344,3.6934,3.623,3.5762,3.5589,3.4902,3.4313,3.3903,3.3883,3.3652,3.3207,3.3344,3.3402,3.3386,3.373,3.3711,3.3386,3.3149,3.3074,3.3038,3.282,3.2724,3.2724,3.2724,3.2851,3.3147,3.4138,3.4766,3.5234,3.5647,3.5765,3.566,0.0,0.0,0.0,0.0,0.0,0.0,0.0,0.0,0.0,0.0,0.0,0.0,0.0,0.0,0.0,0.0,0.0,0.0,1.1675,1.1705,1.2112,1.3054,1.3092,1.3636,1.4773,1.5188,1.5825,1.6687,1.6285,1.6085,1.6085,1.6093,1.6093,1.6101,1.6257,1.6387,1.6468,1.5799,1.5739,1.6053,1.566,1.5618,0.0,0.0,0.0,0.0,0.0,0.0,0.0,0.0,1.4052,1.4596,1.4601,1.4889,1.5284,1.5673,1.6035,1.6219,1.5894,1.6366,1.7238,1.8488,1.9442,2.1174,2.5427,2.6049,2.6712,3.0179,3.0224,2.9618,2.9618,3.0327,3.1206,3.2061,3.4336,3.6155,3.6619,3.7049,3.7305,3.7285,3.7305,3.7285,3.7285,3.6931,3.6502,3.6018,3.5605,3.5176,3.4726,3.4313,3.3883,3.3422,3.3386,3.3207,3.2793,3.3187,3.3402,3.3402,3.3386,3.3402,3.3402,3.3402,3.3402,3.3402,3.3402,3.3402,3.3402,3.3402,3.3402,3.3441,3.3922,3.4352,3.4766,3.5231,3.5647,3.5999,0.0,0.0,0.0,0.0,0.0,0.0,0.0,0.0,0.0,0.0,0.0,0.0,0.0,0.0,0.0,0.0,0.0,0.0,0.0,1.1895,1.2294,1.2535,1.327,1.3925,1.45,1.5102,1.5684,1.6285,1.5828,1.5605,1.5613,1.6038,1.6183,1.6132,1.7017,1.7237,1.6899,1.6568,1.6274,1.6019,1.575,1.5624,1.5601,0.0,0.0,0.0,0.0,0.0,0.0,0.0,0.0,0.0,1.4866,1.5104,1.5284,1.5673,1.5876,1.592,1.5832,1.7674,1.9599,1.9357,2.1666,2.4499,2.639,2.6712,2.7515,3.067,3.0898,3.0522,3.0522,3.146,3.232,3.2574,3.4515,3.6057,3.6191,3.6836,3.7205,3.6912,3.7127,3.7051,3.6465,3.6289,3.5898,3.5156,3.4723,3.4411,3.4274,3.3848,3.3402,3.2988,3.2988,3.2773,3.2394,3.2496,3.2554,3.2554,3.2832,3.3144,3.3402,3.3402,3.3402,3.3402,3.3402,3.3402,3.3402,3.3402,3.3402,3.3441,3.3922,3.4352,3.4766,3.5231,3.5647,3.5999,0.0,0.0,0.0,0.0,0.0,0.0,0.0,0.0,0.0,0.0,1.0578,0.0,0.0,0.0,0.0,0.0,0.0,0.0,0.0,0.0,1.2394,1.2491,1.3362,1.4082,1.4542,1.5116,1.5547,1.5816,1.5547,1.5432,1.5524,1.6168,1.6459,1.6506,1.7402,1.7516,1.6993,1.6726,1.6377,1.5993,1.5815,1.5778,1.5834,0.0,0.0,0.0,0.0,0.0,0.0,0.0,0.0,0.0,1.5262,1.5493,1.563,1.6017,1.6343,1.6643,1.6917,1.8709,2.0621,2.1125,2.3385,2.5989,2.786,2.8672,2.9663,3.18,3.1816,3.146,3.1636,3.2164,3.273,3.3238,3.4531,3.5608,3.5959,3.6309,3.6504,3.6426,3.6328,3.6133,3.5784,3.5589,3.512,3.4258,3.3965,3.375,3.359,3.3164,3.2812,3.2574,3.2554,3.2359,3.1929,3.212,3.2198,3.2198,3.2452,3.2773,3.3184,3.3324,3.3402,3.3402,3.3402,3.3402,3.3402,3.3402,3.3402,3.3422,3.3711,3.418,3.4726,3.5019,3.5491,3.5999,0.0,0.0,0.0,0.0,0.0,0.0,0.0,0.0,0.0,0.0,1.1031,1.1162,0.0,0.0,0.0,0.0,0.0,0.0,0.0,0.0,1.2529,1.2937,1.3595,1.4241,1.4851,1.5208,1.5396,1.5396,1.5396,1.5529,1.5783,1.6448,1.6865,1.7102,1.7601,1.7546,1.7044,1.6587,1.6311,1.6138,1.5926,1.6047,1.6324,1.6298,0.0,0.0,0.0,0.0,0.0,0.0,0.0,0.0,1.578,1.5963,1.6193,1.6526,1.7211,1.7987,1.8637,1.9558,2.0918,2.3365,2.4811,2.6454,2.9598,3.1265,3.2359,3.3129,3.2769,3.2418,3.2793,3.2593,3.2746,3.3919,3.4469,3.5019,3.5784,3.5605,3.5527,3.5842,3.5195,3.4844,3.5234,3.4883,3.4277,3.3422,3.3344,3.3168,3.2769,3.2413,3.2179,3.214,3.214,3.191,3.145,3.187,3.2081,3.2081,3.212,3.232,3.2695,3.3129,3.3363,3.3402,3.3363,3.3363,3.3402,3.3402,3.3402,3.3402,3.3402,3.3929,3.4687,3.4648,3.5215,3.594,0.0,0.0,0.0,0.0,0.0,0.0,0.0,0.0,0.0,0.0,0.0,0.0,0.0,0.0,0.0,0.0,0.0,0.0,0.0,0.0,1.3212,1.4017,1.4699,1.5111,1.5266,1.5364,1.5396,1.5396,1.5396,1.5659,1.6198,1.6852,1.7363,1.7737,1.847,1.8657,1.8347,1.7505,1.724,1.7263,1.6499,1.6329,1.6524,1.6364,1.6454,0.0,0.0,0.0,0.0,0.0,0.0,0.0,1.6104,1.6227,1.6334,1.6723,1.7479,1.8286,1.8758,2.0802,2.3102,2.4242,2.6772,2.9359,3.0888,3.143,3.1797,3.2339,3.2812,3.3168,3.3246,3.3496,3.3782,3.4055,3.4743,3.5176,3.5019,3.5215,3.531,3.5019,3.4805,3.4626,3.4391,3.4274,3.3864,3.2988,3.293,3.2734,3.2339,3.2257,3.2027,3.166,3.1645,3.1445,3.1035,3.1128,3.1187,0.0,3.1504,3.1699,3.1801,3.2578,3.309,3.3383,3.3066,3.3109,3.3402,3.3402,3.3402,3.3402,3.3402,3.3929,3.4668,3.4352,3.4782,3.5527,0.0,0.0,0.0,0.0,0.0,0.0,0.0,0.0,0.0,0.0,0.0,0.0,0.0,0.0,0.0,0.0,0.0,0.0,0.0,0.0,0.0,1.4634,1.5022,1.5276,1.5396,1.5495,1.5546,1.5546,1.5831,1.6138,1.6452,1.7229,1.7732,1.8023,1.866,1.8704,1.8261,1.8034,1.7665,1.7219,1.6745,1.6626,1.6715,1.6417,1.6543,1.6846,0.0,0.0,0.0,0.0,0.0,0.0,0.0,0.0,1.678,1.6988,1.7939,1.9104,1.9961,2.2064,2.4535,2.6625,2.8582,3.0345,3.1637,3.1697,3.167,3.2282,3.2784,3.3109,3.3109,3.3476,3.3844,3.4059,3.4469,3.4762,3.4707,3.4726,3.4762,3.4707,3.4336,3.4004,3.3789,3.359,3.3121,3.2231,3.2187,3.209,3.189,3.1675,3.146,3.123,3.1211,3.0996,3.0581,3.0796,3.0913,3.0913,3.1113,3.1313,3.1528,3.2187,3.2633,3.2812,3.2808,3.293,3.3144,3.3324,3.3402,3.3402,3.3402,3.3812,3.4391,3.4192,3.4508,3.5098,0.0,0.0,0.0,0.0,0.0,0.0,0.0,0.0,0.0,0.0,0.0,0.0,0.0,0.0,0.0,0.0,0.0,0.0,0.0,0.0,0.0,0.0,1.5083,1.5218,1.5439,1.5633,1.578,1.5854,1.6465,1.6797,1.6898,1.7611,1.8068,1.83,1.8676,1.8514,1.7961,1.8258,1.7851,1.6971,1.6771,1.672,1.6747,1.6348,1.6475,0.0,0.0,0.0,0.0,0.0,0.0,0.0,0.0,0.0,1.729,1.7491,1.8543,1.9934,2.1279,2.3158,2.5514,2.8763,2.9753,3.0322,3.1836,3.1741,3.154,3.2241,3.2538,3.2711,3.2711,3.2969,3.334,3.3805,3.388,3.402,3.4414,3.4137,3.4,3.4336,3.3656,3.3187,3.3187,3.2891,3.2363,3.1567,3.1508,3.143,3.1274,3.0957,3.0757,3.0678,3.0678,3.0483,3.0098,3.0547,3.0776,3.0776,3.0874,3.1074,3.1411,3.1792,3.2061,3.2218,3.2554,3.275,3.2832,3.3226,3.3402,3.3402,3.3402,3.3691,3.4095,3.4,3.4254,3.4648,0.0,0.0,0.0,0.0,0.0,0.0,0.0,0.0,0.0,0.0,1.334,1.334,0.0,0.0,0.0,0.0,0.0,0.0,0.0,0.0,0.0,1.4995,1.5398,1.5631,1.5655,1.5798,1.6073,1.6479,1.7088,1.7601,1.7997,1.812,1.8447,1.8974,1.9036,1.9011,1.887,1.8258,1.7881,1.767,1.6683,1.6295,1.6252,1.5903,0.0,0.0,0.0,0.0,0.0,0.0,1.7151,0.0,0.0,0.0,1.7673,1.8718,1.9415,2.015,2.1509,2.3744,2.6185,2.8109,2.9083,2.9877,3.0997,3.0991,3.0853,3.136,3.1904,3.2276,3.2276,3.232,3.2496,3.2906,3.2969,3.3105,3.3519,3.3223,3.2988,3.3047,3.2633,3.2374,3.2374,3.2316,3.2066,3.1548,3.1508,3.1177,3.041,3.0312,3.0131,2.9794,2.9774,2.9755,2.9676,3.0092,3.0293,3.0293,3.0718,3.0932,3.0976,3.105,3.1494,3.2198,3.2257,3.2476,3.2832,3.3226,3.3402,3.3402,3.3402,3.3691,3.4055,3.3652,3.3789,3.4192,0.0,0.0,0.0,0.0,0.0,0.0,0.0,0.0,0.0,0.0,0.0,1.3357,0.0,0.0,0.0,0.0,0.0,0.0,0.0,0.0,0.0,1.5089,1.5488,1.5747,1.5813,1.6207,1.6497,1.6702,1.7577,1.8231,1.8722,1.8969,1.9093,1.911,1.9367,1.9347,1.9061,1.8442,1.8064,1.7841,1.7102,1.7135,1.7527,0.0,0.0,0.0,0.0,0.0,0.0,0.0,1.7848,1.7933,1.8118,0.0,0.0,0.0,1.972,2.0976,2.2839,2.4477,2.6191,2.8367,2.9018,2.9501,3.0942,3.0873,3.0564,3.0791,3.0908,3.1142,3.169,3.2027,3.2257,3.2452,3.2457,3.2535,3.2711,3.2574,3.2457,3.2457,3.2316,3.2101,3.1816,3.1797,3.1621,3.1191,3.0918,3.0591,3.0215,2.9995,2.9662,2.9219,2.9447,2.9467,2.9199,2.9863,3.0332,3.0586,3.0815,3.0913,3.0913,3.0913,3.1108,3.1499,3.1983,3.2296,3.2515,3.3129,3.3402,3.3402,3.3402,3.3519,3.3691,3.348,3.3691,3.4118,0.0,0.0,0.0,0.0,0.0,0.0,0.0,0.0,0.0,0.0,0.0,0.0,0.0,0.0,0.0,0.0,0.0,0.0,0.0,0.0,0.0,1.5308,1.574,1.6031,1.6126,1.6714,1.709,1.72,1.8011,1.8696,1.9285,1.9732,1.9774,1.9433,1.9699,1.9533,1.9077,1.8592,1.8183,1.7837,1.7692,1.798,1.8445,0.0,0.0,0.0,0.0,0.0,0.0,1.8127,1.8378,1.8705,1.8802,1.9309,0.0,0.0,0.0,2.1654,2.334,2.4348,2.5483,2.7855,2.8338,2.8729,3.0616,3.0601,3.0246,3.0544,3.0266,3.0235,3.0971,3.1431,3.1753,3.1988,3.1944,3.1944,3.2179,3.2022,3.1905,3.2007,3.1944,3.1675,3.123,3.1177,3.1016,3.06,3.0249,3.0014,2.9883,2.9584,2.9199,2.8756,2.9096,2.9096,2.8756,2.9609,3.0273,3.0723,3.084,3.0913,3.0913,3.0913,3.0913,3.0952,3.1695,3.2085,3.2257,3.2969,3.3304,3.3402,3.3402,3.3402,3.3402,3.3402,3.3617,3.3981,0.0,0.0,0.0,0.0,0.0,0.0,0.0,0.0,0.0,0.0,0.0,0.0,0.0,0.0,1.3624,1.3914,1.3955,1.4249,1.4913,1.5074,1.5315,1.5668,1.6355,0.0,1.6749,1.7336,1.7874,1.8327,1.8377,1.8862,1.9761,2.0182,2.0351,2.033,1.996,1.9533,1.9077,1.8592,1.8125,1.7765,1.832,1.8297,1.801,1.8531,0.0,0.0,0.0,0.0,1.8474,1.8474,1.8577,1.8749,1.908,1.9521,2.0046,0.0,0.0,0.0,2.1912,2.2625,2.3753,2.5628,2.6404,2.7303,2.9572,2.9793,2.98,3.0703,3.0404,3.0028,3.0073,3.0204,3.0566,3.1391,3.1211,3.1265,3.2081,3.148,3.1113,3.1489,3.1191,3.0781,3.0312,3.0273,3.0112,2.9696,2.9637,2.9428,2.899,2.8951,2.8756,2.834,2.834,2.8373,2.832,2.9207,2.9819,3.0234,3.0684,3.0913,3.0913,3.0913,3.0913,3.0918,3.1352,3.1777,3.2237,3.2672,3.3066,3.3402,3.3402,3.3402,3.3402,3.3402,3.3422,3.35,0.0,0.0,0.0,0.0,0.0,0.0,0.0,0.0,0.0,0.0,0.0,0.0,0.0,1.435,1.441,1.444,1.4806,1.5226,1.5682,1.6033,1.6411,1.6842,1.7106,1.728,1.7392,1.7887,1.8224,1.8406,1.8696,1.9181,1.9803,1.996,2.0014,2.0014,2.012,1.9943,1.9492,1.8725,1.8286,1.8208,1.9047,1.9613,1.9947,1.9853,2.0653,0.0,0.0,2.0175,2.0207,2.0533,0.0,0.0,0.0,2.0521,2.0784,2.1378,2.1456,2.1477,2.2087,2.248,2.3101,2.4611,2.5824,2.6892,2.8011,2.9069,2.9771,2.9641,2.968,2.9762,2.9861,2.9846,2.9931,3.0229,3.0151,3.017,3.0497,3.0263,3.0126,3.0268,3.0151,3.0009,2.9819,2.9799,2.9755,2.9618,2.933,2.9082,2.8912,2.8672,2.8437,2.8301,2.8314,2.8418,2.8678,2.899,2.9492,3.0195,3.0371,3.062,3.0913,3.0913,3.0913,3.0913,3.1055,3.1538,3.2257,3.291,3.3265,3.3402,3.3402,3.3402,3.3402,3.3402,3.3754,3.4258,0.0,0.0,0.0,0.0,0.0,0.0,0.0,0.0,0.0,0.0,0.0,0.0,0.0,0.0,1.5219,1.5396,1.5865,1.6277,1.6484,1.6843,1.7175,1.7487,1.7533,1.7616,1.7709,1.7856,1.8071,1.8406,1.8555,1.9019,1.9812,1.9812,1.9865,2.0014,2.015,1.9963,1.9533,1.8903,1.8543,1.8551,2.0084,2.0957,2.1332,2.1332,2.2108,2.3028,2.1767,2.1323,2.1436,2.2066,0.0,0.0,0.0,2.1456,2.1394,2.1705,2.1581,2.1477,2.2087,2.2273,2.2553,2.3763,2.4757,2.5743,2.6821,2.799,2.8859,2.8821,2.8985,2.9209,2.9445,2.9339,2.9337,2.9693,2.9654,2.9598,2.9598,2.9598,2.9598,2.9598,2.9598,2.954,2.9369,2.9369,2.9311,2.9174,2.8867,0.0,2.8697,2.8437,2.8314,2.8314,2.8314,2.8437,2.8697,2.8834,2.9263,2.9995,3.0151,3.0464,3.0913,3.0913,3.0913,3.0932,3.1206,3.1655,3.2237,3.2773,3.3164,3.3402,3.3402,3.3402,3.3402,3.3402,3.3773,3.4316,0.0,0.0,0.0,0.0,0.0,0.0,0.0,0.0,0.0,0.0,0.0,0.0,0.0,0.0,0.0,1.6758,1.7135,1.7343,1.7343,1.7481,1.7551,1.7551,1.766,1.775,1.775,1.7296,1.7518,1.8426,1.7952,1.8436,1.9782,1.9782,1.9993,2.0351,1.9951,1.9533,1.9098,1.9098,1.8849,1.8667,2.1404,2.2241,2.1932,2.2883,2.3256,2.3132,2.2232,2.1891,2.2025,2.2966,0.0,0.0,0.0,0.0,2.1788,2.1788,2.1788,2.1788,0.0,0.0,0.0,2.2925,2.3194,2.3805,2.6012,2.6551,2.6975,2.8284,2.8382,2.8357,2.8839,2.8682,2.8832,2.98,2.9754,2.9573,2.9559,2.9559,2.9559,2.9559,2.9559,2.9369,2.8932,2.8879,2.8717,2.8334,2.8314,2.8314,2.8314,2.8314,2.8314,2.8314,2.8314,2.8314,2.8314,2.8697,2.9141,2.9598,3.0014,3.0449,3.0932,3.0913,3.0913,3.0991,3.1827,3.2198,3.2218,3.2237,3.2711,3.3402,3.3402,3.3402,3.3402,3.3402,3.3422,3.3558,0.0,0.0,0.0,0.0,0.0,0.0,0.0,0.0,0.0,0.0,0.0,0.0,0.0,0.0,1.7096,1.7424,1.7844,1.81,1.81,1.8449,1.8651,1.8651,1.8684,1.87,1.87,1.8584,1.8646,1.8903,1.877,1.8916,0.0,0.0,1.9359,1.9446,1.9338,1.9222,1.9098,1.9098,1.9222,1.9596,2.1662,2.2635,2.2904,2.3805,2.4343,2.4611,2.4343,2.4042,2.3908,2.4851,2.4147,2.2708,0.0,0.0,0.0,2.1788,2.1788,2.1788,2.1788,0.0,0.0,0.0,0.0,0.0,2.4064,2.5421,2.6788,2.7513,2.809,2.8627,2.9101,2.8965,2.8868,2.9162,2.906,2.8882,2.8693,2.8666,2.8666,2.8666,2.8666,2.8607,2.8476,2.8457,2.8418,0.0,2.8314,2.8314,2.8314,2.8314,2.8314,2.8314,2.8314,2.8314,2.8314,2.8697,2.9141,2.9598,3.0014,3.0605,3.1313,3.1035,3.1245,3.1831,3.1738,3.2051,3.2672,3.2949,3.3187,3.3402,3.3402,3.3402,3.3402,3.3402,3.3793,3.4359,0.0,0.0,0.0,0.0,0.0,0.0,0.0,0.0,0.0,0.0,0.0,0.0,0.0,0.0,1.819,1.8291,1.8535,1.8696,1.8696,1.8953,1.9098,1.9098,1.9043,1.8959,1.8799,1.8735,1.8714,0.0,0.0,0.0,0.0,0.0,0.0,0.0,1.9098,1.9098,1.9098,1.9098,1.9367,1.9978,2.1972,2.307,2.3608,2.4684,2.5243,2.5491,2.5491,2.5326,2.5243,2.6372,2.5493,0.0,0.0,0.0,2.2315,2.1912,2.2087,2.2335,2.2149,0.0,0.0,2.2149,0.0,0.0,2.367,2.4923,2.6321,2.7336,2.811,2.874,2.9195,2.917,2.9091,2.9171,2.9115,2.9,2.8797,2.8592,2.8493,2.8535,2.8555,2.8476,2.8334,2.8457,2.8476,2.8301,2.8314,2.8314,2.8314,2.8314,2.8314,2.8314,2.8314,2.8379,2.8555,2.8775,2.9219,2.9838,3.0092,3.0664,3.1489,3.1269,3.1523,3.2198,3.209,3.2344,3.2832,3.3226,3.3402,3.3402,3.3402,3.3402,3.3402,3.3402,3.3714,3.4199,0.0,0.0,0.0,0.0,0.0,0.0,0.0,0.0,0.0,0.0,0.0,0.0,0.0,0.0,0.0,0.0,1.9189,1.9198,1.9156,1.9189,1.9189,1.9148,1.9069,1.8881,1.8553,1.8397,1.8391,0.0,0.0,0.0,0.0,0.0,0.0,0.0,0.0,1.9098,1.909,1.916,1.9513,2.0218,2.2334,2.3505,2.4126,2.5525,2.6022,2.598,2.6043,2.6075,2.6229,2.7427,2.7034,0.0,0.0,2.4374,2.3298,2.2252,2.2604,2.3225,0.0,0.0,0.0,0.0,2.2646,0.0,2.4042,2.4683,2.5521,2.7114,2.7829,2.8284,2.876,2.8897,2.8987,2.916,2.9305,2.9402,2.9378,2.8985,2.8732,2.8863,2.8848,2.8697,2.8398,2.8697,2.8756,2.8398,2.8334,2.832,2.8359,2.8373,2.8353,2.8314,2.834,2.8535,2.8893,2.8951,2.9394,3.0195,3.0293,3.0781,3.1567,3.1567,3.1855,3.2339,3.2672,3.2832,3.2891,3.3246,3.3402,3.3402,3.3402,3.3402,3.3402,3.3402,3.3441,3.3539,1.9098,0.0,0.0,0.0,0.0,0.0,0.0,0.0,0.0,0.0,0.0,1.8853,1.8944,0.0,0.0,0.0,1.9758,1.9799,1.9512,1.9758,1.9791,1.9504,1.9746,1.9706,1.9368,1.959,1.9606,1.9368,0.0,0.0,0.0,0.0,0.0,0.0,0.0,1.9098,1.911,1.9492,2.0354,2.1507,2.2718,2.3681,2.457,2.6353,2.68,2.651,2.6883,2.7028,2.7069,2.7339,2.7244,2.6759,0.0,0.0,2.5048,2.3401,2.3546,2.4063,2.3287,0.0,0.0,0.0,0.0,0.0,2.307,2.3546,2.425,2.4602,2.5015,2.5448,2.5903,2.631,2.6579,2.6615,2.7521,2.8463,2.9065,2.8893,2.8714,2.8739,2.8552,2.8516,2.8756,2.884,2.8873,2.8795,2.8476,2.8437,2.8756,2.8775,2.8619,2.8301,2.86,2.8814,2.8912,2.9258,2.9721,3.0195,3.0903,3.1543,3.2066,3.2066,3.2476,3.3148,3.291,3.2988,3.3285,3.3363,3.3402,3.3402,3.3402,3.3402,3.3402,3.3402,3.3652,3.3981,1.9314,0.0,0.0,0.0,0.0,0.0,0.0,0.0,0.0,1.9989,2.0219,2.0186,1.9792,2.0031,2.0033,0.0,0.0,0.0,1.9865,1.9998,2.0023,1.9865,2.0175,2.0199,1.9857,2.0604,2.0621,1.9849,0.0,0.0,0.0,0.0,0.0,0.0,1.9368,1.9448,2.004,1.986,2.0706,2.2232,2.3173,2.4209,2.5367,2.6993,2.7327,2.7028,2.7721,2.8102,2.8288,2.8288,2.7845,0.0,2.6443,2.605,2.5617,0.0,2.4498,2.4964,2.3857,0.0,0.0,2.365,0.0,0.0,0.0,2.3722,2.4332,2.4799,2.5058,2.5346,2.5813,2.6093,2.625,2.625,2.7365,2.8247,2.8211,2.8615,2.894,2.9045,2.8775,2.8613,2.8613,2.8775,2.8912,2.8912,2.8717,2.8789,2.9232,2.9238,2.9043,2.86,2.8795,2.901,2.9238,2.9467,2.9931,3.0547,3.0996,3.1543,3.2198,3.2198,3.2633,3.3402,3.3187,3.3207,3.3402,3.3402,3.3402,3.3402,3.3402,3.3402,3.3402,3.3402,3.3539,3.375,1.9492,0.0,0.0,0.0,0.0,0.0,0.0,0.0,2.0488,2.1031,2.1394,2.135,2.0689,2.1057,2.1075,2.0435,0.0,0.0,2.0626,2.0684,2.0562,2.0215,2.062,2.0681,2.0363,2.1461,2.1545,2.0495,2.0841,0.0,0.0,0.0,0.0,2.0653,2.0109,2.0249,2.0871,2.0669,2.1604,2.3276,2.4115,2.5035,2.6065,2.7613,2.801,2.786,2.8956,2.945,2.9588,2.9505,2.8619,2.7555,2.7519,2.7013,0.0,0.0,0.0,0.0,0.0,0.0,0.0,0.0,0.0,2.4323,0.0,0.0,0.0,2.5265,2.538,2.5504,2.5888,2.6022,2.598,2.5711,2.7025,2.7738,2.6779,2.7741,2.867,2.9,2.8942,2.8739,2.84,2.8562,2.8756,2.901,2.8814,2.8945,2.9579,2.9676,2.9467,2.8932,2.9068,2.9297,2.9598,2.9676,3.0112,3.0913,3.0991,3.1367,3.2066,3.2237,3.2672,3.3285,3.3363,3.3402,3.3402,3.3402,3.3402,3.3402,3.3402,3.3402,3.3402,3.3402,3.3402,3.3402,1.9264,1.9363,0.0,0.0,0.0,0.0,0.0,0.0,2.1903,2.1564,2.1564,2.1581,2.1472,2.2545,2.3239,2.3158,2.4222,2.4201,2.2598,2.2764,2.2205,2.0616,2.1314,2.1605,2.126,2.2133,2.24,2.1962,2.1559,2.1161,0.0,0.0,1.9953,1.9996,2.1822,2.1822,2.0591,2.2595,2.43,2.5726,2.6275,2.6237,2.6145,2.8453,2.9282,2.9501,3.138,3.1468,3.0662,0.0,2.935,2.8193,0.0,2.7117,2.7788,2.5242,0.0,0.0,0.0,0.0,0.0,0.0,2.5378,0.0,0.0,0.0,2.4311,2.3639,0.0,2.3525,2.3577,0.0,0.0,2.2542,2.4519,2.5752,2.4479,2.5585,2.6825,2.7622,2.8314,2.8707,2.8648,2.8166,2.8308,2.9442,2.8484,2.8347,2.954,2.9936,2.9746,2.8932,2.9648,2.9916,2.9598,2.9955,3.0405,3.0898,3.1269,3.1489,3.1606,3.2383,3.2773,3.2891,3.3246,3.3402,3.3402,3.3402,3.3402,3.3402,3.3402,3.3402,3.3402,3.3402,3.3402,3.3402,2.0077,1.993,0.0,0.0,0.0,0.0,0.0,0.0,2.2892,2.243,2.2293,2.2278,2.2337,2.2519,2.2854,2.3491,2.4251,2.4227,2.3157,2.3228,2.2724,2.1409,2.1433,2.1572,2.169,2.2051,2.2036,2.1624,2.1463,2.1298,2.1077,0.0,2.1041,2.194,2.3401,2.419,2.4488,2.4721,2.5787,2.7315,2.7236,2.7524,2.8231,3.0412,3.1405,3.1712,3.23,3.2393,3.2202,0.0,3.0524,0.0,0.0,0.0,0.0,2.7053,0.0,0.0,0.0,0.0,0.0,0.0,0.0,0.0,2.4461,0.0,2.4053,0.0,0.0,0.0,0.0,0.0,0.0,0.0,2.4634,2.5421,2.4095,2.5362,2.6604,2.7036,0.0,0.0,2.7889,2.7557,2.7812,2.9101,2.8269,2.8347,2.9877,3.0112,3.0039,2.9668,3.0019,3.0131,2.9955,3.0131,3.0444,3.0913,3.1074,3.1406,3.1929,3.2281,3.2711,3.3148,3.3324,3.3402,3.3402,3.3402,3.3402,3.3402,3.3402,3.3402,3.3402,3.3402,3.3402,3.3402,2.1511,0.0,0.0,2.0959,2.1543,0.0,0.0,0.0,2.3782,2.3315,2.3275,2.3317,2.3433,2.3675,2.4152,2.4915,2.5949,2.5958,2.4606,2.4441,2.3958,2.2918,2.224,2.2253,2.3003,2.2802,2.2395,2.1798,2.1959,2.1849,2.1461,2.1411,2.1995,2.317,2.4558,2.5856,2.6999,2.675,2.7708,2.9395,2.9054,2.9725,3.1101,3.2426,3.3401,3.4032,3.3703,3.3685,3.3823,3.3568,3.1886,0.0,3.2082,0.0,2.7768,0.0,0.0,0.0,2.5728,0.0,0.0,0.0,0.0,0.0,0.0,0.0,0.0,0.0,0.0,0.0,0.0,0.0,0.0,0.0,0.0,2.5203,2.3712,2.4862,2.5942,2.6142,0.0,0.0,0.0,2.6774,2.7061,2.847,2.7859,2.8185,2.9936,3.0137,3.0195,3.0195,3.0312,3.0332,3.0195,3.0332,3.0547,3.0913,3.0913,3.1284,3.2007,3.214,3.2574,3.3246,3.3363,3.3402,3.3402,3.3402,3.3402,3.3402,3.3402,3.3402,3.3402,3.3402,3.348,3.3578,2.3615,2.2435,2.1534,2.2067,2.253,2.314,2.3981,2.4476,2.4616,2.4213,2.4503,2.4756,2.4839,2.7186,2.8768,2.8724,3.1176,3.1244,2.7804,2.7385,2.6694,2.5428,2.4254,2.4334,2.5828,2.5119,2.4245,2.333,2.3517,2.3138,2.2183,2.2477,2.2526,2.2441,2.5159,2.6223,2.621,2.8501,3.0663,3.2546,3.2534,3.3371,3.4593,0.0,3.4973,3.6298,3.6273,0.0,0.0,3.4474,3.341,0.0,0.0,0.0,0.0,0.0,0.0,0.0,0.0,0.0,0.0,2.5131,0.0,0.0,0.0,0.0,2.5159,0.0,0.0,0.0,0.0,0.0,0.0,0.0,0.0,0.0,0.0,2.3391,2.4136,2.4528,2.5533,0.0,0.0,2.5777,2.5881,2.7604,2.7097,2.7576,2.9514,2.9995,3.0195,3.0195,3.0644,3.0644,3.0195,3.0659,3.0893,3.0913,3.0913,3.1113,3.1548,3.1988,3.2418,3.2832,3.3226,3.3402,3.3402,3.3402,3.3402,3.3402,3.3402,3.3402,3.3402,3.3402,3.3691,3.4075,2.3821,2.3698,2.338,2.2946,2.3297,2.3915,2.4785,2.4858,2.5354,2.6904,2.689,2.7517,2.9584,3.0519,3.1214,3.1753,3.2651,3.2213,2.9903,2.9071,2.8341,2.7591,2.5541,2.4972,2.6157,2.4924,2.3959,2.3338,2.3391,2.3342,2.3202,2.3444,2.3718,2.4135,2.6563,2.8378,2.962,3.0302,3.1873,3.3848,3.331,3.3779,3.4783,0.0,3.4895,3.5446,3.615,3.6518,0.0,3.5881,3.477,3.3768,3.4454,3.2966,3.1135,3.2117,3.1971,0.0,0.0,0.0,3.2357,2.8448,0.0,0.0,0.0,0.0,0.0,0.0,0.0,0.0,0.0,0.0,0.0,0.0,0.0,0.0,0.0,2.3701,2.395,2.4105,2.5063,2.5663,2.5467,0.0,2.6308,2.699,2.7125,2.7884,2.9514,2.9735,3.0073,3.0659,3.0835,3.082,3.0664,3.0835,3.0913,3.0913,3.0913,3.1284,3.1968,3.214,3.2574,3.3207,3.3344,3.3402,3.3402,3.3402,3.3402,3.3402,3.3402,3.3402,3.3402,3.3402,3.3691,3.4176,2.493,2.5002,2.4755,2.4168,2.4277,2.4769,2.5652,2.6015,2.6884,2.8914,2.9307,3.0237,3.2471,3.3193,3.3705,3.4263,3.4864,3.4199,3.1741,3.1297,3.0743,2.9932,2.7919,2.7482,0.0,2.6846,2.5581,2.5173,2.4874,2.4639,2.4475,2.4552,2.4733,2.507,2.6811,2.8948,3.1227,3.1391,3.2998,3.5333,3.4227,3.3989,3.4328,0.0,3.4877,3.4939,0.0,3.6733,3.716,3.6808,3.6039,3.5471,3.6604,3.509,3.3141,3.4378,3.4241,3.3469,3.2581,3.3935,0.0,3.1027,3.1109,0.0,2.7616,0.0,0.0,0.0,0.0,0.0,0.0,0.0,0.0,0.0,0.0,0.0,0.0,2.4115,2.4115,2.4115,2.4718,2.519,2.5295,2.5462,2.5891,2.6685,2.6774,2.742,0.0,0.0,3.0015,3.0639,3.0917,3.0995,3.0913,3.0913,3.0913,3.0913,3.0913,3.1362,3.2198,3.2198,3.2633,3.3402,3.3402,3.3324,3.3187,3.3187,3.309,3.2988,3.3129,3.3265,3.3422,3.3594,3.3926,3.443,2.6756,2.6291,2.5736,2.5756,2.5533,2.5654,2.6576,2.786,2.9117,3.0219,3.1729,3.2992,3.3787,3.5421,3.6399,3.6305,3.7825,3.723,3.3529,3.4052,3.3867,3.2509,3.1286,3.1569,3.3583,0.0,0.0,0.0,2.7784,2.6884,2.6001,2.5757,2.5526,2.5289,2.6005,2.8012,3.09,3.1741,3.3983,3.6882,3.5366,3.4238,3.3541,3.4823,3.5151,3.5025,3.6091,3.6845,3.7286,3.7248,3.7248,3.7374,3.7839,3.7638,3.7248,3.7248,3.7625,3.7517,3.5099,3.4871,3.4848,3.2841,0.0,0.0,0.0,0.0,2.9565,0.0,0.0,0.0,0.0,0.0,0.0,0.0,0.0,0.0,0.0,2.4507,2.4507,2.4507,2.4507,2.4927,2.5973,2.4833,2.4751,2.6617,2.6136,2.6346,2.7689,0.0,3.0035,3.0218,3.0943,3.1179,3.0908,3.0942,3.0971,3.0981,3.0937,3.1417,3.2341,3.2315,3.2736,3.3473,3.3489,3.3242,3.2824,3.2789,3.2574,3.2296,3.2691,3.3105,3.3519,3.3961,3.4352,3.4805,2.5883,2.6778,2.7601,2.805,2.7002,2.6292,2.6839,2.8064,2.986,3.2463,3.4237,3.6211,3.8734,3.9591,3.9798,3.9332,3.9711,3.9185,3.7345,3.6394,3.5859,3.5761,3.3673,3.2912,3.3789,3.1478,3.0027,2.9576,2.8499,2.7738,2.7305,2.6697,2.6348,2.6245,2.6447,2.7931,3.0384,3.1331,3.3307,3.5833,3.5893,3.5557,3.5151,0.0,3.6723,3.6474,3.7302,3.7977,3.8391,3.7952,3.8102,3.8416,3.809,3.7914,3.7789,3.7789,3.8203,3.8542,3.7879,3.8091,3.8013,3.5958,3.5182,3.44,0.0,0.0,0.0,0.0,0.0,0.0,0.0,0.0,0.0,0.0,0.0,0.0,0.0,0.0,2.4507,2.4507,2.4507,2.4497,2.4485,2.5025,2.5555,2.5955,2.6314,2.7129,2.8523,0.0,0.0,3.0551,3.1293,3.1513,3.1214,3.1426,3.1787,3.2227,3.1527,3.2316,3.4364,3.4051,3.4186,3.4666,3.4722,3.4126,3.3129,3.2583,3.2652,3.309,3.3207,3.3695,3.4394,3.4492,3.443,3.4372,2.6369,2.7798,2.9002,2.9115,2.914,2.9226,2.9453,2.9851,3.1246,3.434,3.6041,3.7715,3.9722,4.0754,4.1155,4.0815,4.0776,4.0188,3.8777,3.8357,3.7788,3.7015,3.5889,3.5381,3.5634,3.3729,0.0,3.1879,3.0557,2.9388,2.8395,2.7653,2.7108,2.6742,2.7097,2.8353,3.0388,3.2899,3.4475,3.5423,3.6799,3.6959,0.0,3.7814,3.8153,3.8039,3.8692,3.873,3.8454,3.8115,3.8216,3.8504,3.8429,3.8391,3.8391,3.8391,3.8806,3.9195,3.8969,3.9283,3.9431,3.8258,3.7761,3.7069,3.5194,3.461,3.432,0.0,0.0,0.0,0.0,0.0,0.0,0.0,0.0,0.0,0.0,0.0,2.4507,2.4507,2.4507,2.4415,2.4188,2.4588,2.508,2.562,2.573,0.0,0.0,0.0,0.0,3.0284,3.122,3.1644,3.1527,3.1357,3.1866,3.3042,3.2621,3.363,3.5803,3.5831,3.5688,3.5404,3.5443,3.4467,3.2811,3.2553,3.2633,3.2949,3.3675,3.4277,3.4707,3.4707,3.4567,3.4469,2.7637,2.9074,3.0093,2.9702,3.1401,3.2918,3.3231,3.271,3.3294,3.597,3.7456,3.8449,3.8986,4.0397,4.1311,4.1311,4.1311,4.0658,3.9143,3.99,3.9482,3.7429,3.7769,3.7978,3.79,3.6253,3.5077,0.0,3.2914,3.1166,2.921,2.8506,2.7752,2.7016,2.7766,2.9068,3.1,3.4959,3.6182,3.5641,3.791,3.833,3.7737,3.8956,3.9449,3.9562,3.9956,3.9297,3.8216,3.8216,3.8216,3.8316,3.8831,3.8994,3.8994,3.8994,3.9333,3.9609,3.9145,3.9333,3.9697,3.9697,3.9697,3.9343,3.7939,3.7289,3.6743,3.5806,3.4924,3.4346,0.0,0.0,0.0,2.5547,0.0,0.0,0.0,0.0,2.4849,2.4787,2.4725,0.0,2.4507,2.3966,2.4167,2.5494,2.4862,0.0,0.0,0.0,0.0,2.9944,3.1103,3.1789,3.186,0.0,3.2024,3.3833,3.4119,3.5279,3.7224,3.7702,3.7288,3.6225,3.624,3.4865,3.2638,3.2878,3.28,3.267,3.4212,3.4746,3.4687,3.4629,3.4648,3.4766,2.8865,2.9989,3.0947,3.1311,3.2506,3.4068,3.5966,3.6153,3.6429,3.7444,3.896,4.0188,4.0789,4.1129,4.1311,4.1311,4.1311,4.1181,4.0867,4.058,4.0031,3.9169,3.8789,3.8359,3.7926,3.6619,3.5443,0.0,0.0,3.1469,2.9262,2.88,2.8174,2.7429,2.7887,2.9726,3.2582,3.4168,3.5559,3.6848,3.8694,3.9334,3.9308,4.0234,4.0613,4.0578,4.0224,3.9803,3.9396,3.9396,3.9396,3.9421,3.9534,3.9559,3.9559,3.9559,3.9635,3.9685,3.9584,3.9635,3.9697,3.9697,3.9697,3.9634,3.9343,3.9216,3.9102,3.8915,3.8738,3.8112,3.6481,0.0,0.0,0.0,0.0,0.0,0.0,0.0,0.0,2.6291,2.5886,2.5357,2.458,2.4393,2.4666,2.546,2.4877,0.0,0.0,0.0,0.0,0.0,3.1888,0.0,0.0,0.0,3.443,3.5655,3.5955,3.7419,3.9837,3.9649,3.916,3.8436,3.8498,3.7117,3.478,3.4206,3.4027,3.4262,3.4978,3.5039,3.4668,3.4333,3.4411,3.4707,3.0503,3.1287,3.2254,3.341,3.4831,3.641,3.8097,3.9352,3.9665,3.8463,3.9012,3.9639,3.9927,4.0763,4.1311,4.1311,4.1311,4.1311,4.1311,4.1024,4.0606,4.0031,3.9482,3.8907,3.8344,3.747,3.6175,3.4397,0.0,0.0,0.0,2.9097,2.8638,2.8029,2.9398,3.1328,3.3638,3.5444,0.0,3.8288,3.9852,4.0475,4.0541,4.0939,4.1022,4.0858,4.0453,4.0134,3.9878,3.9762,3.9697,3.9697,3.9697,3.9697,3.9697,3.9697,3.9697,3.9697,3.9697,3.9697,3.9697,3.9697,3.9697,3.9697,3.9697,3.9697,3.9697,3.9697,3.9697,3.8991,3.6665,3.3719,0.0,0.0,0.0,0.0,0.0,0.0,2.8494,0.0,2.6685,2.6001,2.5284,2.4798,2.4629,2.4962,2.4593,0.0,0.0,0.0,0.0,0.0,0.0,0.0,0.0,0.0,0.0,3.7509,3.7766,3.9117,4.1375,4.1495,4.091,3.9826,3.9869,3.8599,3.6553,3.6507,3.6731,3.7152,3.739,3.6926,3.6114,3.5618,3.5288,3.5019,3.2277,3.2845,3.3796,3.5547,3.7194,3.8658,3.9796,4.1691,4.2135,3.9756,3.9442,3.9442,3.9442,4.0554,4.1311,4.1311,4.1311,4.1311,4.1311,4.1311,4.1024,4.0423,4.0005,3.9482,3.8907,3.8463,3.7168,0.0,0.0,0.0,0.0,0.0,2.9475,2.9205,3.1137,0.0,0.0,0.0,3.8619,3.9544,4.0807,4.1311,4.1311,4.1311,4.116,4.0959,4.0681,4.0415,4.0147,3.989,3.9762,3.9697,3.9697,3.9697,3.9697,3.9697,3.9697,3.9697,3.9697,3.9697,3.9697,3.9697,3.9697,3.9697,3.9697,3.9697,3.9697,3.9697,3.9697,3.8953,3.6492,3.48,0.0,0.0,0.0,0.0,0.0,0.0,3.0488,0.0,2.7747,2.6799,2.656,0.0,0.0,0.0,0.0,0.0,2.6664,0.0,0.0,0.0,0.0,3.3846,3.4191,0.0,3.6925,3.8969,3.9513,4.0691,4.2375,4.2813,4.2245,4.0936,4.0936,3.9958,3.836,3.8791,3.9292,3.9831,3.9804,3.9093,3.8083,3.757,3.6774,3.5861,3.4162,3.4633,3.56,3.7351,3.8658,3.9822,4.0972,4.22,4.2722,4.1977,4.1872,4.1872,4.1872,4.1533,4.1311,4.1311,4.1311,4.1311,4.1311,4.1311,4.1024,4.0423,4.0345,4.0083,3.9535,3.9456,3.8568,0.0,0.0,3.4188,0.0,0.0,0.0,0.0,0.0,0.0,0.0,3.8097,3.9261,4.036,4.1038,4.1311,4.1311,4.1311,4.1286,4.1236,4.0959,4.0694,4.0415,4.0147,3.9891,3.9697,3.9697,3.9697,3.9697,3.9697,3.9697,3.9697,3.9697,3.9697,3.9697,3.9697,3.9697,3.9697,3.9697,3.9697,3.9697,3.9697,3.9697,3.9042,3.6924,3.6715,3.6088,0.0,0.0,0.0,0.0,0.0,3.2825,3.28,2.9826,2.7998,2.8544,2.6121,0.0,0.0,2.5751,0.0,0.0,0.0,0.0,3.0036,0.0,3.3195,3.3225,3.6693,3.8823,3.9537,4.1153,4.2276,4.2939,4.2989,4.2655,4.2043,4.2043,4.1559,4.0741,4.0257,4.0359,4.0871,4.0982,4.0702,4.0189,3.9813,3.883,3.7612,3.6985,3.7194,3.8004,4.0108,4.0566,4.1141,0.0,4.382,4.4369,4.3834,4.3141,4.2683,4.2683,4.2461,4.22,4.1859,4.1833,4.169,4.1311,4.1311,4.1207,4.0946,4.058,4.0292,4.0071,3.977,3.8907,0.0,0.0,0.0,0.0,0.0,0.0,0.0,0.0,3.6645,3.8109,3.9247,4.0188,4.0972,4.1207,4.1311,4.1311,4.1311,4.1311,4.1274,4.0997,4.0833,4.0669,4.0249,3.9916,3.9697,3.9697,3.9697,3.9697,3.9697,3.9697,3.9697,3.9697,3.9697,3.9697,3.9697,3.9697,3.9697,3.9697,3.9697,3.9697,3.9697,3.9697,3.9458,3.8616,3.7581,3.6961,0.0,0.0,0.0,0.0,0.0,0.0,3.3464,0.0,3.0112,2.9778,2.7123,0.0,0.0,0.0,0.0,0.0,0.0,0.0,2.9585,0.0,3.5369,3.4121,3.7912,4.0086,4.0629,4.1691,4.2475,4.3014,4.3014,4.3065,4.3176,4.3489,4.3554,4.3404,4.318,4.3283,4.3514,4.2917,4.2466,4.2022,4.1252,4.05,3.9763,3.943,3.9625,4.0421,4.2565,4.2735,4.3036,4.4461,4.5349,4.5741,4.535,4.4565,4.3951,4.378,4.348,4.3101,4.2735,4.2552,4.2199,4.1611,4.1559,4.1507,4.1311,4.0893,0.0,4.0658,4.0292,3.9613,3.8632,3.7627,0.0,0.0,0.0,0.0,0.0,3.7325,3.8516,3.9273,4.024,4.0919,4.1311,4.1311,4.1311,4.1311,4.1311,4.1311,4.1286,4.1085,4.0972,4.0846,4.0377,4.0032,3.9813,3.9723,3.9697,3.9697,3.9697,3.9697,3.9697,3.9697,3.9697,3.9697,3.9697,3.9697,3.9697,3.9697,3.9697,3.9697,3.9697,3.9697,3.9697,3.9697,3.8491,3.778,3.8654,0.0,0.0,0.0,3.7595,0.0,3.4065,3.219,3.1021,3.0767,2.7859,0.0,0.0,0.0,0.0,0.0,0.0,0.0,0.0,0.0,0.0,0.0,3.8998,4.1001,4.1567,4.2322,4.2864,4.3226,4.3402,4.3689,4.4066,4.4428,4.4799,4.5146,4.5146,4.532,4.5515,4.4764,4.4317,4.4024,4.3342,4.2693,4.2068,4.1155,4.1755,4.2683,4.4395,4.5165,4.5754,4.6356,4.6461,4.6487,4.6461,4.6475,4.6212,4.5635,4.4565,4.3886,4.3886,4.3337,4.2762,4.2212,4.2199,4.1912,0.0,0.0,4.1285,4.1285,4.1285,4.0972,4.0371,0.0,0.0,3.6922,0.0,3.6201,3.7874,3.8437,3.9326,4.0423,4.1024,4.1285,4.1311,4.1311,4.1311,4.1311,4.1311,4.1311,4.1311,4.1311,4.1122,4.0871,4.058,4.0313,4.0057,3.9787,3.9697,3.9697,3.9697,3.9697,3.9697,3.9697,3.9697,3.9697,3.9697,3.9697,3.9697,3.9697,3.9697,3.9697,3.9697,3.9697,3.9697,3.9697,3.9672,3.8992,3.6973,0.0,0.0,0.0,0.0,0.0,3.5235,3.1797,3.0109,3.164,2.8224,0.0,0.0,0.0,0.0,0.0,0.0,0.0,3.408,3.5757,0.0,3.7363,3.9973,4.1592,4.2199,4.3277,4.379,4.3815,4.4328,4.4564,4.4589,4.4589,4.493,4.5472,4.5472,4.5824,4.6286,4.6271,4.6271,4.6286,4.6475,4.5695,4.4595,4.4133,4.4722,4.5284,4.582,4.6095,4.6278,4.6461,4.6813,4.706,4.706,4.7388,4.7585,4.7388,4.6356,4.552,0.0,4.4525,4.3924,0.0,4.2971,4.25,4.1951,4.1912,4.1729,4.1311,4.1311,4.1207,4.1024,0.0,0.0,0.0,3.8202,3.8725,3.9639,4.0214,4.0684,4.1024,4.1233,4.1311,4.1311,4.1311,4.1311,4.1311,4.1311,4.1311,4.1311,4.1311,4.1261,4.1122,4.0858,4.0719,4.058,4.0109,3.9839,3.9697,3.9697,3.9697,3.9697,3.9697,3.9697,3.9697,3.9697,3.9697,3.9697,3.9697,3.9697,3.9697,3.9697,3.9697,3.9697,3.9697,3.9697,3.9483,3.8804,3.9269,0.0,0.0,0.0,3.6332,3.5175,3.2689,3.1658,3.3221,3.1031,0.0,0.0,0.0,0.0,0.0,0.0,0.0,0.0,3.6971,0.0,3.7413,3.9987,4.1592,4.2199,4.3277,4.3976,4.4378,4.4945,4.5221,4.5221,4.5608,4.5874,4.605,4.605,4.615,4.6261,4.5899,4.6185,4.6823,4.6516,4.6575,4.6588,4.5858,4.6395,4.6813,4.6813,4.6984,4.7155,4.7155,4.7414,4.7635,4.7635,4.7963,4.8187,4.8187,4.7559,0.0,4.6288,4.5505,4.4813,4.4278,4.3676,4.3075,4.2513,4.2513,4.2225,4.1638,4.1638,0.0,4.1311,4.058,4.0057,3.9691,4.0057,4.0423,4.0763,4.1129,4.1311,4.1311,4.1311,4.1311,4.1311,4.1311,4.1311,4.1311,4.1311,4.1311,4.1311,4.1311,4.1311,4.1274,4.0997,4.0909,4.0833,4.0389,4.0134,3.9967,3.9762,3.9697,3.9697,3.9697,3.9697,3.9697,3.9697,3.9697,3.9697,3.9697,3.9697,3.9697,3.9697,3.9697,3.9697,3.9697,3.9697,3.9697,3.9697,3.9697,3.9482,3.8877,0.0,3.5806,0.0,0.0,0.0,0.0,3.3007,3.2791,0.0,0.0,0.0,0.0,0.0,0.0,3.6114,3.8642,0.0,3.9221,4.0809,4.2032,4.2813,4.3905,4.4719,4.5257,4.5623,4.5799,4.5824,4.6135,4.6286,4.6286,4.6286,4.6286,4.6301,4.6135,4.6512,4.7124,4.7189,4.7657,4.8017,4.6606,4.7079,4.746,0.0,4.7943,0.0,4.8423,4.8376,4.832,4.8396,4.835,4.8291,4.8213,4.8239,4.8015,4.7411,0.0,0.0,0.0,4.4357,4.3742,4.3088,4.3062,4.2814,4.2277,4.2225,4.1886,4.1311,4.1311,4.1311,4.1311,4.1311,4.1311,4.1311,4.1311,4.1311,4.1311,4.1311,4.1311,4.1311,4.1311,4.1311,4.1311,4.1311,4.1311,4.1311,4.1311,4.1311,4.1274,4.1009,4.0934,4.0883,4.0605,4.0516,4.0415,3.9903,3.9736,3.9723,3.971,3.9697,3.9697,3.9697,3.9697,3.9697,3.9697,3.9697,3.9697,3.9697,3.9697,3.9697,3.9697,3.9697,3.9697,3.9697,3.9622,3.9054,3.7517,0.0,3.5135,0.0,0.0,0.0,0.0,3.4345,3.4909,0.0,0.0,0.0,0.0,0.0,3.6335,4.0373,4.0538,4.1078,4.2199,4.2249,4.2813,4.394,4.4985,4.5773,4.6286,4.6286,4.6286,4.6286,4.6286,4.6286,4.6286,4.6286,4.6311,4.6411,4.6898,4.7149,4.735,4.84,4.8818,4.8928,0.0,0.0,4.9164,4.8767,4.9498,5.035,5.088,5.0108,4.9668,5.0187,4.9802,4.918,4.8291,4.8605,4.8657,4.8041,4.7321,4.6668,4.6135,4.5532,4.4748,4.3742,4.369,4.3415,4.2827,4.2421,4.1886,4.1311,4.1311,4.1311,4.1311,4.1311,4.1311,4.1311,4.1311,4.1311,4.1311,4.1311,4.1311,4.1311,4.1311,4.1311,4.1311,4.1311,4.1311,4.1311,4.1311,4.1311,4.1299,4.1223,4.1198,4.1147,4.0896,4.082,4.0707,4.016,4.0006,3.9955,3.9774,3.9697,3.9697,3.9697,3.9697,3.9697,3.9697,3.9697,3.9697,3.9697,3.9697,3.9697,3.9697,3.9697,3.9697,3.9697,3.8969,3.8141,3.7418,3.6012,0.0,0.0,3.4077,3.4497,3.6591,3.6551,3.6549,0.0,0.0,0.0,0.0,3.715,3.8205,4.0436,4.0901,4.1466,4.2199,4.2626,4.3592,4.511,4.5386,4.5773,4.6286,4.6286,4.6286,4.6286,4.6286,4.6286,4.6286,4.6286,4.6537,4.6923,4.7048,4.7616,4.8426,4.8718,4.9053,4.9269,5.0604,5.1199,5.155,5.1233,5.1719,5.2259,5.2605,5.2069,5.1771,5.212,5.185,5.1388,5.0794,5.0996,5.1077,5.0739,4.863,4.7176,4.6877,4.6053,4.5322,4.4696,4.4408,4.399,4.3415,4.3127,4.2552,4.1729,4.1442,4.1311,4.1311,4.1311,4.1311,4.1311,4.1311,4.1311,4.1311,4.1311,4.1311,4.1311,4.1311,4.1311,4.1311,4.1311,4.1311,4.1311,4.1311,4.1311,4.1311,4.1311,4.1311,4.1286,4.1122,4.1085,4.0997,4.0593,4.03,4.0045,3.9774,3.9697,3.9697,3.9697,3.9697,3.9697,3.9697,3.9697,3.9697,3.9697,3.9697,3.9697,3.9697,3.9697,3.9697,3.9697,3.8743,3.7842,3.7369,3.5901,0.0,3.5966,3.5612,3.6113,3.8189,3.8414,3.8274,3.8045,3.8249,0.0,3.8377,3.9128,3.9948,4.0837,4.1654,4.2359,4.2939,4.3743,4.4608,4.5512,4.5748,4.6024,4.6286,4.6286,4.6286,4.6286,4.6286,4.6286,4.6286,4.6286,4.6637,4.7124,4.7365,4.8008,4.8843,4.9095,4.9355,4.9493,5.3599,5.3824,5.3923,5.3853,5.3965,5.4106,5.4191,5.4064,5.3994,5.4092,5.4008,5.3895,5.3712,5.3768,5.3796,5.3712,5.0377,4.8183,4.7984,4.6873,4.613,4.5886,4.528,4.4662,4.4043,4.3938,4.3389,4.2317,4.1821,4.1573,4.1573,4.1573,4.152,4.1442,4.1442,4.139,4.1311,4.1311,4.1311,4.1311,4.1311,4.1311,4.1311,4.1311,4.1311,4.1311,4.1311,4.1311,4.1311,4.1311,4.1311,4.1311,4.1311,4.1311,4.1261,4.0984,4.0593,4.016,3.9826,3.9736,3.9697,3.9697,3.9747,3.9798,3.9735,3.9747,3.9798,3.9735,3.9697,3.9697,3.9697,3.9697,3.9672,3.9597,3.8542,3.7617,3.7245,0.0,3.5677,3.7133,3.7221,3.7867,3.9646,3.9898,3.9948,3.9948,4.0036,4.0288,4.0738,4.1327,4.1679,4.1679,4.261,4.3427,4.4041,4.5035,4.5537,4.5638,4.6075,4.6286,4.6286,4.6286,4.6286,4.6286,4.6286,4.6336,4.6411,4.6411,4.6788,4.74,4.7857,4.84,4.8994,4.943,4.959,4.959,5.3684,5.4494,5.4969,5.446,5.5209,5.6067,5.6587,5.5794,5.5337,5.5911,5.5481,5.478,5.3825,5.4106,5.4176,5.374,5.3093,5.2254,5.1167,4.9888,4.8547,4.7189,4.6488,4.5648,4.4591,4.4134,4.3559,4.2879,4.2775,4.2736,4.2736,4.2736,4.25,4.2055,4.2055,4.1781,4.1311,4.1311,4.1311,4.1311,4.1311,4.1311,4.1311,4.1311,4.1311,4.1311,4.1311,4.1311,4.1311,4.1311,4.1311,4.1311,4.1311,4.1311,4.1261,4.0984,4.0858,4.0681,4.0173,3.9865,3.9697,3.9697,4.0049,4.0261,3.9798,4.0049,4.0249,3.9798,3.9697,3.9697,3.9697,3.9697,3.9559,3.9095,3.7701,3.6642,3.6628,0.0,3.6457,3.7196,3.8837,4.0021,4.0324,4.0775,4.1038,4.1038,4.1518,4.1847,4.1947,4.2861,4.3399,4.3399,4.3589,4.4166,4.5236,4.5412,4.5738,4.6175,4.6261,4.6286,4.6286,4.6286,4.6286,4.6286,4.6286,4.6562,4.6973,4.6973,4.7591,4.8526,4.8626,4.8978,4.9506,4.9565,4.959,4.959,5.6537,5.7036,5.7302,5.703,5.7449,5.791,5.8175,5.7735,5.7508,5.7823,5.7573,5.7196,5.6683,5.683,5.6888,5.6624,5.629,5.5678,5.4701,5.1709,4.958,4.8746,4.6947,4.5565,4.4734,4.4186,4.3755,4.3467,4.3167,4.2997,4.2997,4.2997,4.2853,4.2631,4.2631,4.233,4.1807,4.2095,4.1847,4.1338,4.1638,4.1585,4.1311,4.1311,4.1507,4.1755,4.1416,4.1507,4.1755,4.1416,4.1311,4.1311,4.1311,4.1533,4.1756,4.1642,4.1413,4.1093,4.0644,4.069,4.0773,4.0602,4.075,4.0876,4.0625,4.075,4.0851,4.06,4.0549,4.0487,4.0186,4.0136,3.9848,3.9044,3.7977,0.0,0.0,3.7778,3.8053,3.8913,4.0142,4.0926,4.0926,4.1455,4.1781,4.1781,4.2311,4.2763,4.3065,4.3528,4.4091,4.4708,4.4733,4.5095,4.5924,4.5924,4.605,4.6286,4.6286,4.6461,4.6722,4.6722,4.6888,4.7164,4.7164,4.729,4.7541,4.7541,4.8033,4.8793,4.8793,4.9129,4.959,4.959,4.959,4.959,5.9039,5.9099,5.9099,5.9099,5.9219,5.9338,5.9338,5.9338,5.9398,5.9534,5.9428,5.9338,5.9338,5.9338,5.9279,5.9129,5.8637,5.8038,5.7393,5.3582,5.107,5.0495,4.7987,4.634,4.5715,4.5302,4.5022,4.4836,4.4397,4.4042,4.3782,4.3782,4.3585,4.3219,4.3219,4.3048,4.2766,4.2917,4.2642,4.2069,4.2157,4.1912,4.1507,4.1507,4.1807,4.216,4.1821,4.2004,4.2317,4.186,4.1703,4.1703,4.1703,4.2004,4.2395,4.2395,4.2177,4.1852,4.1267,4.1441,4.1729,4.1369,4.1503,4.1654,4.1542,4.1704,4.1854,4.1729,4.1704,4.1567,4.1165,4.0978,4.0526,3.9434,0.0,0.0,0.0,3.9095,3.9484,4.0563,4.1277,4.1704,4.1704,4.2347,4.2763,4.2763,4.3266,4.3754,4.4166,4.4317,4.4769,4.5663,4.5688,4.5874,4.6301,4.6411,4.6486,4.6486,4.6612,4.6888,4.7274,4.7274,4.7516,4.7908,4.7908,4.7983,4.8109,4.8109,4.8476,4.8994,4.8994,4.9229,4.959,4.959,4.9665,4.9791,5.9219,5.9099,5.9099,5.9099,5.9608,6.004,6.004,6.004,6.025,6.088,6.0416,6.004,6.004,6.004,5.9771,5.9159,5.9069,5.8726,5.8055,5.6136,5.4238,5.2484,5.0639,4.938,4.8712,4.8656,4.8307,4.7694,4.7651,4.7129,4.6134,4.6134,4.5313,4.3834,4.3834,4.4043,4.4363,4.3398,4.3539,4.423,4.279,4.2172,4.2134,4.2134,4.216,4.2264,4.2696,4.2892,4.2918,4.2905,4.2866,4.2866,4.2866,4.2905,4.2945,4.2945,4.331,4.3426,4.2099,4.1784,4.1729,4.1369,4.2094,4.2724,4.2249,4.29,4.3463,4.2975,4.2875,4.285,4.2824,4.2411,4.1708,4.0576,0.0,0.0,3.9622,3.9647,4.0049,4.1113,4.2208,4.2875,4.2875,4.3815,4.4428,4.4428,4.497,4.5336,4.5386,4.5849,4.6135,4.625,4.6235,4.6261,4.6286,4.6798,4.7048,4.7048,4.7541,4.7792,4.7842,4.7842,4.7867,4.7908,4.7908,4.8225,4.8727,4.8727,4.9053,4.954,4.954,4.9565,4.959,4.959,4.9916,5.0352,5.9757,6.0057,6.0342,6.0342,6.0565,6.0715,6.0715,6.0715,6.0791,6.106,6.088,6.0715,6.0715,6.034,6.001,5.9741,5.9338,5.8816,5.8145,5.746,5.5406,5.1643,5.1166,5.0553,4.9628,4.9615,4.9515,4.9249,4.9249,4.9029,4.8612,4.7516,4.6852,4.6491,4.5033,4.4518,4.4692,4.4242,4.3874,4.3592,4.3349,4.3049,4.2709,4.2709,4.2931,4.3232,4.3062,4.3245,4.3493,4.3141,4.2997,4.2997,4.2997,4.3245,4.3624,4.3977,4.4499,4.4796,4.4111,4.3896,4.3876,4.3694,4.3973,4.4183,4.3782,4.4016,4.4227,4.4027,4.3976,4.389,4.3564,4.3065,4.2322,4.1177,0.0,4.1117,4.0738,4.1592,4.2384,4.2797,4.3539,4.3976,4.3976,4.4694,4.5296,4.5633,4.5874,4.615,4.6486,4.6687,4.6813,4.6813,4.7114,4.7139,4.6813,4.734,4.7591,4.7591,4.7792,4.8109,4.8451,4.8451,4.8652,4.8962,4.8962,4.9063,4.9305,4.9305,4.943,4.9615,4.9967,5.0117,5.0142,5.0535,5.0787,5.0946,6.0446,6.0761,6.109,6.109,6.1269,6.1419,6.1419,6.1419,6.1493,6.1702,6.1539,6.1419,6.1419,6.0984,6.0625,6.0416,5.9787,5.9219,5.8756,5.8324,5.6511,5.2941,5.2956,5.2596,5.166,5.1433,5.1231,5.0989,5.0989,5.0822,5.0487,4.9268,4.8731,4.8705,4.7082,4.6571,4.6904,4.6531,4.61,4.5684,4.5562,4.5163,4.4589,4.4439,4.4507,4.4639,4.4254,4.4369,4.4657,4.4225,4.4095,4.4095,4.4095,4.4382,4.4801,4.5166,4.5544,4.5869,4.5869,4.5853,4.575,4.5371,4.5305,4.5287,4.5069,4.5064,4.5116,4.5116,4.5116,4.5031,4.4654,4.4156,4.3478,4.2482,4.2685,4.2749,4.2155,4.3223,4.4066,4.4066,4.4529,4.4955,4.5131,4.5673,4.621,4.6763,4.6637,4.6712,4.7074,4.7249,4.735,4.735,4.7892,4.8008,4.7641,4.8008,4.8184,4.8184,4.836,4.8636,4.9053,4.9053,4.9254,4.959,4.959,4.959,4.959,4.959,4.959,4.964,5.0176,5.0402,5.0477,5.1088,5.1414,5.1565,6.1239,6.112,6.112,6.112,6.1672,6.2121,6.2121,6.2121,6.2345,6.3003,6.2525,6.2121,6.2121,6.2091,6.1822,6.118,6.0505,6.01,6.01,5.8846,5.7799,5.7124,5.6521,5.5893,5.5222,5.4551,5.3892,5.3216,5.3228,5.2684,5.1644,5.1615,5.1056,5.0033,5.002,5.0577,5.1527,5.0448,5.0603,5.1456,4.9762,4.8693,4.8037,4.758,4.6982,4.6419,4.6486,4.6501,4.6501,4.6501,4.6501,4.6501,4.6501,4.6501,4.6501,4.6501,4.6501,4.6618,4.715,4.7307,4.7033,4.5891,4.577,4.5914,4.5914,4.6107,4.6326,4.6311,4.6311,4.6311,4.6311,4.5874,4.5321,4.4729,4.4629,4.4428,4.389,4.4278,4.4614,4.4629,4.5146,4.5738,4.6261,4.6772,4.7324,4.7883,4.74,4.7124,4.7124,4.7616,4.7908,4.7908,4.8501,4.8818,4.8818,4.8818,4.8818,4.8818,4.9355,4.959,4.959,4.959,4.959,4.959,4.959,4.9615,4.9615,4.9615,4.9615,4.9665,5.0201,5.0427,5.0477,5.1071,5.1649,5.2126,6.1852,6.2195,6.2495,6.2495,6.2674,6.2794,6.2794,6.2794,6.2854,6.3063,6.2928,6.2794,6.2794,6.2361,6.2032,6.1822,6.1194,6.0595,6.013,5.9279,5.8697,5.8501,5.7436,5.6748,5.6526,5.6346,5.6137,5.594,5.5491,5.5142,5.4794,5.3092,5.2336,5.2321,5.0715,5.039,5.0982,5.0294,5.0175,5.0435,4.9938,4.9102,4.8157,4.8014,4.7324,4.6462,4.6483,4.6501,4.6501,4.6501,4.6501,4.6501,4.6501,4.6501,4.6501,4.6501,4.6761,4.7112,4.7255,4.7922,4.8305,4.7312,4.7111,4.7048,4.6616,4.6883,4.7152,4.6909,4.7164,4.7415,4.7415,4.6988,4.6547,4.6371,4.6346,4.6296,4.6135,4.6245,4.6496,4.6863,4.6426,4.6426,4.7315,4.6888,4.7089,4.8426,4.8375,4.8109,4.7691,4.8209,4.8526,4.8526,4.9079,4.9355,4.9355,4.9355,4.9355,4.9355,4.9515,4.959,4.9615,4.9992,4.9967,4.9615,5.0017,5.0151,5.0151,5.0151,5.0419,5.0862,5.1373,5.1582,5.1674,5.2209,5.2511,5.2661,6.2495,6.2824,6.3108,6.3108,6.3108,6.3108,6.3108,6.3108,6.3108,6.3108,6.3108,6.3108,6.3108,6.2734,6.2495,6.2495,6.1882,6.1224,6.0535,5.9877,5.9488,5.9488,5.8471,5.7782,5.7513,5.7244,5.7094,5.7094,5.6492,5.6192,5.6149,5.4433,5.3805,5.4038,5.2668,5.2226,5.252,5.2197,5.205,5.205,5.205,5.145,5.0558,5.0333,4.9363,4.8145,4.7926,4.7553,4.7167,4.7167,4.7167,4.7167,4.7167,4.7167,4.7167,4.7167,4.7388,4.7713,4.7948,4.8538,4.9005,4.8655,4.8455,4.8287,4.7897,4.7998,4.807,4.7717,4.7908,4.8104,4.7923,4.7641,4.74,4.74,4.74,4.74,4.74,4.74,4.7541,4.7867,4.733,4.728,4.8159,4.7657,4.7722,4.8718,4.9003,4.8853,4.83,4.8802,4.9129,4.9129,4.943,4.959,4.959,4.959,4.959,4.959,4.959,4.9715,4.9941,5.0252,5.0226,4.9941,5.0519,5.0603,5.0427,5.067,5.0971,5.1364,5.19,5.2101,5.2159,5.2711,5.2895,5.2895,6.3108,6.3108,6.3108,6.3108,6.3108,6.3108,6.3108,6.3108,6.3108,6.3108,6.3108,6.3108,6.3108,6.3108,6.3108,6.3108,6.2495,6.1852,6.1239,6.0565,6.016,6.01,5.9518,5.8876,5.8205,5.7603,5.7287,5.7287,5.6671,5.6342,5.6282,5.5671,5.5341,5.5281,5.5341,5.5371,5.5371,5.5311,5.5281,5.5281,5.5222,5.48,5.4168,5.3675,5.2362,5.0733,5.0184,4.9254,4.8265,4.8213,4.8239,4.8291,4.8291,4.8317,4.8344,4.8344,4.8344,4.8474,4.9023,4.9206,4.9363,4.986,4.9789,4.9561,4.9442,4.9265,4.8994,4.8639,4.8613,4.8504,4.8121,4.8043,4.8043,4.8043,4.8043,4.8043,4.8043,4.8008,4.8008,4.8058,4.7958,4.8159,4.8818,4.8868,4.8843,4.8793,4.9305,4.938,4.8894,4.933,4.959,4.959,4.964,4.9665,4.9665,4.9715,4.9715,4.9665,4.9665,4.9967,5.0477,5.0528,5.0528,5.0503,5.1096,5.1046,5.0603,5.1147,5.1389,5.149,5.1975,5.2176,5.2226,5.2711,5.2895,5.2895,6.3108,6.3108,6.3108,6.3108,6.3108,6.3108,6.3108,6.3108,6.3108,6.3108,6.3108,6.3108,6.3108,6.3108,6.3108,6.3108,6.2495,6.2032,6.1882,6.1253,6.0655,6.013,5.9951,5.9578,5.8906,5.874,5.868,5.868,5.8008,5.7423,5.6898,5.6778,5.6449,5.6013,5.6479,5.6688,5.6658,5.6192,5.5983,5.5953,5.5401,5.4849,5.4321,5.423,5.3099,5.1483,5.09,4.9912,4.884,4.837,4.85,4.8893,4.8893,4.9206,4.9546,4.9546,4.9546,4.9572,4.9703,5.0069,5.0461,5.0592,5.087,5.0825,4.9669,4.9717,4.9837,4.9255,4.9444,4.9637,4.9302,4.9238,4.9238,4.9238,4.9238,4.9238,4.9238,4.8878,4.8752,4.9163,4.8435,4.8309,4.933,4.943,4.9254,4.8843,4.9305,4.954,4.943,4.9556,4.959,4.959,5.0017,5.0226,5.0226,5.0711,5.0695,5.0226,5.0226,5.0544,5.1113,5.1548,5.1498,5.1138,5.1674,5.185,5.1732,5.1875,5.2176,5.2561,5.2686,5.2737,5.2737,5.2845,5.2895,5.2895,6.3108,6.3108,6.3108,6.3108,6.3108,6.3108,6.3108,6.3108,6.3108,6.3108,6.3108,6.3108,6.3108,6.3108,6.3108,6.3108,6.2764,6.2584,6.2584,6.1942,6.1433,6.1058,6.0745,6.0416,6.0073,6.0043,5.9757,5.9099,5.8427,5.7919,5.7573,5.7244,5.6928,5.6628,5.6958,5.7094,5.7077,5.6748,5.6628,5.6598,5.6239,5.595,5.5689,5.5689,5.4766,5.3402,5.2473,5.0997,4.9442,4.9128,4.9232,4.9494,4.9494,4.9662,4.9912,4.9912,4.9912,4.9965,5.0252,5.0566,5.088,5.1126,5.1387,5.1408,5.0638,5.0695,5.0789,5.0257,5.0377,5.0471,5.0152,4.9944,4.9831,4.9831,4.9687,4.959,4.959,4.9355,4.928,4.9565,4.9063,4.8937,4.954,4.959,4.959,4.9565,4.9816,4.9992,4.9992,4.9992,4.9992,4.9992,5.0252,5.0528,5.082,5.1138,5.1264,5.1205,5.0946,5.1122,5.1674,5.1975,5.195,5.1699,5.2234,5.2335,5.2126,5.2385,5.2661,5.2895,5.2895,5.2895,5.2895,5.2895,5.2895,5.2895,6.3108,6.3108,6.3108,6.3108,6.3108,6.3108,6.3108,6.3108,6.3108,6.3108,6.3108,6.3108,6.3108,6.3108,6.3108,6.3108,6.3108,6.3108,6.3108,6.2584,6.2211,6.2091,6.1583,6.121,6.109,6.109,6.0551,5.9444,5.8906,5.8504,5.8264,5.7812,5.7483,5.7274,5.7393,5.7423,5.7423,5.7304,5.7274,5.7244,5.7167,5.7154,5.7274,5.7274,5.6616,5.5526,5.4162,5.2036,4.9912,4.9912,4.9965,5.0069,5.0069,5.0121,5.02,5.02,5.02,5.0289,5.0801,5.0932,5.1037,5.1492,5.1596,5.1596,5.1596,5.1596,5.1502,5.1167,5.1104,5.0978,5.0598,5.028,5.0122,5.016,4.9918,4.9741,4.9741,4.9741,4.969,4.9615,4.959,4.959,4.959,4.959,4.9816,5.0352,5.0302,5.0352,5.0528,5.0452,5.0452,5.0553,5.0628,5.0946,5.144,5.154,5.18,5.2226,5.1774,5.18,5.2251,5.2251,5.2251,5.226,5.2711,5.2661,5.2277,5.2711,5.2895,5.2895,5.2895,5.2895,5.2895,5.2895,5.2895,5.2895,6.3108,6.3108,6.3108,6.3108,6.3108,6.3108,6.3108,6.3108,6.3108,6.3108,6.3108,6.3108,6.3108,6.3108,6.3108,6.3108,6.3108,6.3108,6.3108,6.3018,6.2704,6.2121,6.2002,6.1702,6.112,6.109,6.1,6.0821,6.0731,6.0103,5.8979,5.9472,5.9069,5.7995,5.8577,5.883,5.88,5.8218,5.7965,5.7919,5.7334,5.7453,5.7965,5.7965,5.7564,5.6728,5.4998,5.2435,4.9912,4.9912,5.0252,5.067,5.067,5.101,5.1361,5.1361,5.1361,5.1387,5.1465,5.1492,5.1518,5.157,5.1596,5.1596,5.1596,5.1596,5.1502,5.1167,5.1104,5.0915,5.028,5.0145,5.0169,5.0341,5.0334,5.0277,5.0277,5.0277,5.0101,4.9665,4.959,4.959,4.959,4.959,4.9816,5.0352,4.9967,5.0142,5.1138,5.0678,5.0628,5.1163,5.1624,5.1925,5.2,5.246,5.2737,5.2787,5.2711,5.2737,5.2787,5.2787,5.2787,5.2812,5.2887,5.2845,5.2812,5.2887,5.2895,5.2895,5.2895,5.2895,5.2895,5.2895,5.2895,5.2895,6.3108,6.3108,6.3108,6.3108,6.3108,6.3108,6.3108,6.3108,6.3108,6.3108,6.3108,6.3108,6.3108,6.3108,6.3108,6.3108,6.3108,6.3108,6.3108,6.3108,6.2988,6.2674,6.2674,6.2525,6.2211,6.2225,6.2225,6.2225,6.1463,6.0625,5.9681,5.9951,5.9578,5.8667,5.8979,5.9099,5.9069,5.8786,5.8667,5.8637,5.8351,5.8397,5.8667,5.8667,5.8037,5.6919,5.4726,5.2611,5.0838,5.0838,5.1021,5.1246,5.1246,5.1413,5.1596,5.1596,5.1596,5.1675,5.2014,5.2093,5.2171,5.2511,5.2616,5.2616,5.2616,5.2616,5.2359,5.1565,5.1663,5.1802,5.15,5.1534,5.1639,5.1723,5.143,5.1083,5.078,5.0826,5.082,5.0586,5.0561,5.0561,5.0561,5.0561,5.077,5.1306,5.1122,5.1222,5.1724,5.1498,5.1473,5.1724,5.1975,5.2234,5.2536,5.2787,5.2895,5.2895,5.2895,5.2895,5.2895,5.2895,5.2895,5.2895,5.2895,5.2895,5.2895,5.2895,5.2895,5.2895,5.2895,5.2895,5.2895,5.2895,5.2895,5.2895]}]]